[[{"header":{"parameterUnit":"m.s-1","parameterCategory":1,"la1":30.6,"la2":29.2853,"lo1":-89.7004,"lo2":-87.6739,"dy":0.0162,"dx":0.0183,"nx":112,"ny":82,"refTime":"2024-04-10T06:00:00:Z","depth":0,"parameterNumber":2,"parameterNumberName":"U-component_of_WINDS"},"data":[0.0,0.0,0.0,0.0,0.0,0.0,0.0,0.0,0.0,0.0,0.0,0.0,0.0,0.0,0.0,0.0,0.0,0.0,0.0,0.0,0.0,0.0,0.0,0.0,0.0,0.0,0.0,0.0,0.0,0.0,0.0,0.0,0.0,0.0,0.0,0.0,0.0,0.0,0.0,0.0,0.0,0.0,0.0,0.0,0.0,0.0,0.0,0.0,0.0,0.0,0.0,0.0,0.0,0.0,0.0,0.0,0.0,0.0,0.0,0.0,0.0,0.0,0.0,0.0,0.0,0.0,0.0,0.0,0.0,0.0,0.0,0.0,0.0,0.0,0.0,0.0,0.0,0.0,0.0,0.0,0.0,0.0,0.0,0.0,0.0,0.0,0.0,0.0,0.0,0.0,0.0,-3.0346,-3.0447,-3.0352,-3.0018,-2.9931,-2.9787,-2.951,0.0,0.0,0.0,0.0,0.0,0.0,0.0,0.0,0.0,0.0,0.0,0.0,0.0,0.0,0.0,0.0,0.0,0.0,0.0,0.0,0.0,0.0,0.0,0.0,0.0,0.0,0.0,0.0,0.0,0.0,0.0,0.0,0.0,0.0,0.0,0.0,0.0,0.0,0.0,0.0,0.0,0.0,0.0,0.0,0.0,0.0,0.0,0.0,0.0,0.0,0.0,0.0,0.0,0.0,0.0,0.0,0.0,0.0,0.0,0.0,0.0,0.0,0.0,0.0,0.0,0.0,0.0,0.0,0.0,0.0,0.0,0.0,0.0,0.0,0.0,0.0,0.0,0.0,0.0,0.0,0.0,0.0,0.0,0.0,0.0,0.0,0.0,0.0,0.0,0.0,0.0,0.0,0.0,0.0,0.0,0.0,0.0,0.0,0.0,0.0,0.0,0.0,0.0,0.0,-3.0373,-3.0535,-3.0525,-3.0488,-3.0406,-3.0099,-2.9878,-2.982,0.0,0.0,0.0,0.0,0.0,0.0,0.0,0.0,0.0,0.0,0.0,0.0,0.0,0.0,0.0,0.0,0.0,0.0,0.0,0.0,0.0,0.0,0.0,0.0,0.0,0.0,0.0,0.0,0.0,0.0,0.0,0.0,0.0,0.0,0.0,0.0,0.0,0.0,0.0,0.0,0.0,0.0,0.0,0.0,0.0,0.0,0.0,0.0,0.0,0.0,0.0,0.0,0.0,0.0,0.0,0.0,0.0,0.0,0.0,0.0,0.0,0.0,0.0,0.0,0.0,0.0,0.0,0.0,0.0,0.0,0.0,0.0,0.0,0.0,0.0,0.0,0.0,0.0,0.0,0.0,0.0,0.0,0.0,0.0,0.0,0.0,0.0,0.0,0.0,0.0,0.0,0.0,0.0,0.0,0.0,0.0,0.0,0.0,0.0,0.0,0.0,0.0,0.0,-3.0323,-3.0425,-3.0583,-3.0535,-3.0458,-3.0352,-3.0078,-2.9853,-2.9732,-2.9138,0.0,0.0,0.0,0.0,0.0,0.0,0.0,0.0,0.0,0.0,0.0,0.0,0.0,0.0,0.0,0.0,0.0,0.0,0.0,0.0,0.0,0.0,0.0,0.0,0.0,0.0,0.0,0.0,0.0,0.0,0.0,0.0,0.0,0.0,0.0,0.0,0.0,0.0,0.0,0.0,0.0,0.0,0.0,0.0,0.0,0.0,0.0,0.0,0.0,0.0,0.0,0.0,0.0,0.0,0.0,0.0,0.0,0.0,0.0,0.0,0.0,0.0,0.0,0.0,0.0,0.0,0.0,0.0,0.0,0.0,0.0,0.0,0.0,0.0,0.0,0.0,0.0,0.0,0.0,0.0,0.0,0.0,0.0,0.0,0.0,0.0,0.0,0.0,0.0,0.0,0.0,0.0,0.0,0.0,0.0,0.0,0.0,0.0,0.0,0.0,0.0,0.0,-3.0422,-3.049,-3.0593,-3.054,-3.0433,-3.0291,-3.0044,-2.9826,-2.9689,-2.9511,0.0,0.0,0.0,0.0,0.0,0.0,0.0,0.0,0.0,0.0,0.0,0.0,0.0,0.0,0.0,0.0,0.0,0.0,0.0,0.0,0.0,0.0,0.0,0.0,0.0,0.0,0.0,0.0,0.0,0.0,0.0,0.0,0.0,0.0,0.0,0.0,0.0,0.0,0.0,0.0,0.0,0.0,0.0,0.0,0.0,0.0,0.0,0.0,0.0,0.0,0.0,0.0,0.0,0.0,0.0,0.0,0.0,0.0,0.0,0.0,0.0,0.0,0.0,0.0,0.0,0.0,0.0,0.0,0.0,0.0,0.0,0.0,0.0,0.0,0.0,0.0,0.0,0.0,0.0,0.0,0.0,0.0,0.0,0.0,0.0,0.0,0.0,0.0,0.0,0.0,0.0,0.0,0.0,0.0,0.0,0.0,0.0,0.0,0.0,0.0,0.0,0.0,-3.0477,-3.0593,-3.0598,-3.053,-3.0481,-3.0474,-3.0129,-2.9888,-2.9886,-2.957,0.0,0.0,0.0,0.0,0.0,0.0,0.0,0.0,0.0,0.0,0.0,0.0,0.0,0.0,0.0,0.0,0.0,0.0,0.0,0.0,0.0,0.0,0.0,0.0,0.0,0.0,0.0,0.0,0.0,0.0,0.0,0.0,0.0,0.0,0.0,0.0,0.0,0.0,0.0,0.0,0.0,0.0,0.0,0.0,0.0,0.0,0.0,0.0,0.0,0.0,0.0,0.0,0.0,0.0,0.0,0.0,0.0,0.0,0.0,0.0,0.0,0.0,0.0,0.0,0.0,0.0,0.0,0.0,0.0,0.0,0.0,0.0,0.0,0.0,0.0,0.0,0.0,0.0,0.0,0.0,0.0,0.0,0.0,0.0,0.0,0.0,0.0,0.0,0.0,0.0,0.0,0.0,0.0,0.0,0.0,0.0,0.0,0.0,0.0,0.0,0.0,0.0,-3.0408,-3.0505,0.0,-3.053,-3.0491,-3.0505,-3.0124,-2.9904,-2.9907,0.0,0.0,0.0,0.0,0.0,0.0,0.0,0.0,0.0,0.0,0.0,0.0,0.0,0.0,0.0,0.0,0.0,0.0,0.0,0.0,0.0,0.0,0.0,0.0,0.0,0.0,0.0,0.0,0.0,0.0,0.0,0.0,0.0,0.0,0.0,0.0,0.0,0.0,0.0,0.0,0.0,0.0,0.0,0.0,0.0,0.0,0.0,0.0,0.0,0.0,0.0,0.0,0.0,0.0,0.0,0.0,0.0,0.0,0.0,0.0,0.0,0.0,0.0,0.0,0.0,0.0,0.0,0.0,0.0,0.0,0.0,0.0,0.0,0.0,0.0,0.0,0.0,0.0,0.0,0.0,0.0,0.0,0.0,0.0,0.0,0.0,0.0,0.0,0.0,0.0,0.0,0.0,0.0,0.0,0.0,0.0,0.0,0.0,0.0,0.0,0.0,0.0,-3.0279,-3.0402,-3.05,0.0,-3.0559,-3.0525,-3.0496,-3.0144,-2.992,-2.9904,0.0,0.0,0.0,0.0,0.0,0.0,0.0,0.0,0.0,0.0,0.0,0.0,0.0,0.0,0.0,0.0,0.0,0.0,0.0,0.0,0.0,0.0,0.0,0.0,0.0,0.0,0.0,0.0,0.0,0.0,0.0,0.0,0.0,0.0,0.0,0.0,0.0,0.0,0.0,0.0,0.0,0.0,0.0,0.0,0.0,0.0,0.0,0.0,0.0,0.0,0.0,0.0,0.0,0.0,0.0,0.0,0.0,0.0,0.0,0.0,0.0,0.0,0.0,0.0,0.0,0.0,0.0,0.0,0.0,0.0,0.0,0.0,0.0,0.0,0.0,0.0,0.0,0.0,0.0,0.0,0.0,0.0,0.0,0.0,0.0,0.0,0.0,0.0,0.0,0.0,0.0,0.0,0.0,0.0,0.0,0.0,0.0,0.0,0.0,0.0,0.0,0.0,-3.0292,-3.0477,-3.0598,-3.0598,-3.0598,-3.0569,-3.0515,-3.019,-2.9958,0.0,0.0,0.0,0.0,0.0,0.0,0.0,0.0,0.0,0.0,0.0,0.0,0.0,0.0,0.0,0.0,0.0,0.0,0.0,0.0,0.0,0.0,0.0,0.0,0.0,0.0,0.0,0.0,0.0,0.0,0.0,0.0,0.0,0.0,0.0,0.0,0.0,0.0,0.0,0.0,0.0,0.0,0.0,0.0,0.0,0.0,0.0,0.0,0.0,0.0,0.0,0.0,0.0,0.0,0.0,0.0,0.0,0.0,0.0,0.0,0.0,0.0,0.0,0.0,0.0,0.0,0.0,0.0,0.0,0.0,0.0,0.0,0.0,0.0,0.0,0.0,0.0,0.0,0.0,0.0,0.0,0.0,0.0,0.0,0.0,0.0,0.0,0.0,0.0,0.0,0.0,0.0,0.0,0.0,0.0,0.0,0.0,0.0,0.0,0.0,0.0,0.0,0.0,-3.0292,-3.0477,-3.0598,-3.0598,-3.0598,-3.0593,-3.0564,-3.0346,-3.0136,-2.9985,0.0,0.0,0.0,0.0,0.0,0.0,0.0,0.0,0.0,0.0,0.0,0.0,0.0,0.0,0.0,0.0,0.0,0.0,0.0,0.0,0.0,0.0,0.0,0.0,0.0,0.0,0.0,0.0,0.0,0.0,0.0,0.0,0.0,0.0,0.0,0.0,0.0,0.0,0.0,0.0,0.0,0.0,0.0,0.0,0.0,0.0,0.0,0.0,0.0,0.0,0.0,0.0,0.0,0.0,0.0,0.0,0.0,0.0,0.0,0.0,0.0,0.0,0.0,0.0,0.0,0.0,0.0,0.0,0.0,0.0,0.0,0.0,0.0,0.0,0.0,0.0,0.0,0.0,0.0,0.0,0.0,0.0,0.0,0.0,0.0,0.0,0.0,0.0,0.0,0.0,0.0,0.0,0.0,0.0,0.0,0.0,0.0,0.0,0.0,0.0,0.0,0.0,-3.0343,-3.0499,-3.0598,-3.0598,-3.0598,-3.0598,-3.0598,-3.0417,-3.0241,-3.0095,0.0,0.0,0.0,0.0,0.0,0.0,0.0,0.0,0.0,0.0,0.0,0.0,0.0,0.0,0.0,0.0,0.0,0.0,0.0,0.0,0.0,0.0,0.0,0.0,0.0,0.0,0.0,0.0,0.0,0.0,0.0,0.0,0.0,0.0,0.0,0.0,0.0,0.0,0.0,0.0,0.0,0.0,0.0,0.0,0.0,0.0,0.0,0.0,0.0,0.0,0.0,0.0,0.0,0.0,0.0,0.0,0.0,0.0,0.0,0.0,0.0,0.0,0.0,0.0,0.0,0.0,0.0,0.0,0.0,0.0,0.0,0.0,0.0,0.0,0.0,0.0,0.0,0.0,0.0,0.0,0.0,0.0,0.0,0.0,0.0,0.0,0.0,0.0,0.0,0.0,0.0,0.0,0.0,0.0,0.0,0.0,0.0,0.0,0.0,0.0,0.0,0.0,-3.0386,-3.053,-3.0598,-3.0598,-3.0598,-3.0598,-3.0598,-3.0428,-3.0285,-3.0216,0.0,0.0,0.0,0.0,0.0,0.0,0.0,0.0,0.0,0.0,0.0,0.0,0.0,0.0,0.0,0.0,0.0,0.0,0.0,0.0,0.0,0.0,0.0,0.0,0.0,0.0,0.0,0.0,0.0,0.0,0.0,0.0,0.0,0.0,0.0,0.0,0.0,0.0,0.0,0.0,0.0,0.0,0.0,0.0,0.0,0.0,0.0,0.0,0.0,0.0,0.0,0.0,0.0,0.0,0.0,0.0,0.0,0.0,0.0,0.0,-2.9929,0.0,0.0,0.0,0.0,0.0,0.0,0.0,0.0,0.0,0.0,0.0,0.0,0.0,0.0,0.0,0.0,0.0,0.0,0.0,0.0,0.0,0.0,0.0,0.0,0.0,0.0,0.0,0.0,0.0,0.0,0.0,0.0,0.0,0.0,0.0,0.0,0.0,0.0,0.0,0.0,0.0,-3.0392,-3.053,-3.0598,-3.0598,-3.0598,-3.0598,-3.0598,-3.0554,-3.0439,-3.0203,0.0,0.0,0.0,0.0,0.0,0.0,0.0,0.0,0.0,0.0,0.0,0.0,0.0,0.0,0.0,0.0,0.0,0.0,0.0,0.0,0.0,0.0,0.0,0.0,0.0,0.0,0.0,0.0,0.0,0.0,0.0,0.0,0.0,0.0,0.0,0.0,0.0,0.0,0.0,0.0,0.0,0.0,0.0,0.0,0.0,0.0,0.0,0.0,0.0,0.0,0.0,0.0,0.0,0.0,0.0,0.0,0.0,0.0,0.0,0.0,0.0,-3.0075,0.0,0.0,0.0,0.0,0.0,0.0,0.0,0.0,0.0,0.0,0.0,0.0,0.0,0.0,0.0,0.0,0.0,0.0,0.0,0.0,0.0,0.0,0.0,0.0,0.0,0.0,0.0,0.0,0.0,0.0,0.0,0.0,0.0,0.0,0.0,0.0,0.0,0.0,0.0,0.0,-3.1011,-3.0806,-3.0598,-3.0598,-3.0598,-3.0598,-3.0598,-3.0598,-3.054,-3.035,-3.0272,0.0,0.0,0.0,0.0,0.0,0.0,0.0,0.0,0.0,0.0,0.0,0.0,0.0,0.0,0.0,0.0,0.0,0.0,0.0,0.0,0.0,0.0,0.0,0.0,0.0,0.0,0.0,0.0,0.0,0.0,0.0,0.0,0.0,0.0,0.0,0.0,0.0,0.0,0.0,0.0,0.0,0.0,0.0,0.0,0.0,0.0,0.0,0.0,0.0,0.0,0.0,0.0,0.0,0.0,-3.2218,-3.2257,-3.2981,-3.3378,-3.3381,-3.1776,-3.0963,-3.0759,0.0,0.0,0.0,0.0,0.0,0.0,0.0,0.0,0.0,0.0,0.0,0.0,0.0,0.0,0.0,0.0,0.0,0.0,0.0,0.0,0.0,0.0,0.0,0.0,0.0,-3.0343,-3.0343,0.0,0.0,0.0,0.0,0.0,0.0,0.0,0.0,0.0,0.0,0.0,0.0,-3.1937,-3.1444,-3.1043,-3.1043,-3.1043,-3.1043,-3.1043,-3.0907,-3.0796,-3.0733,-3.0469,-3.0285,0.0,0.0,0.0,0.0,0.0,0.0,0.0,0.0,0.0,0.0,0.0,0.0,0.0,0.0,0.0,0.0,0.0,0.0,0.0,0.0,0.0,0.0,0.0,0.0,0.0,0.0,0.0,0.0,0.0,0.0,0.0,0.0,-2.8761,-2.8803,0.0,0.0,0.0,0.0,0.0,0.0,0.0,0.0,0.0,0.0,0.0,0.0,0.0,0.0,-3.339,-3.3516,-3.3986,-3.4809,-3.4924,-3.5026,-3.5154,-3.527,-3.5334,-3.5325,-3.5071,0.0,-3.2632,-3.2639,0.0,0.0,0.0,0.0,0.0,0.0,0.0,0.0,0.0,0.0,0.0,0.0,0.0,0.0,0.0,0.0,0.0,0.0,0.0,0.0,0.0,0.0,-3.0318,-3.0509,-3.0569,-3.0569,0.0,-3.0414,-3.0292,-3.0292,0.0,0.0,0.0,0.0,0.0,0.0,0.0,0.0,-3.2914,-3.2836,-3.2778,-3.2778,-3.2778,-3.2778,-3.2778,-3.2082,-3.1647,-3.1627,-3.0891,-3.0398,-3.0209,-2.9996,0.0,0.0,0.0,0.0,0.0,0.0,0.0,0.0,0.0,0.0,0.0,0.0,0.0,0.0,0.0,0.0,0.0,0.0,0.0,0.0,0.0,0.0,0.0,0.0,0.0,0.0,0.0,0.0,0.0,-2.8682,-2.8832,-2.9056,-2.9101,-2.9177,0.0,0.0,0.0,0.0,0.0,0.0,0.0,0.0,0.0,-3.325,-3.334,-3.3752,-3.4579,-3.4715,-3.5016,-3.5515,-3.6028,-3.6327,-3.6381,-3.6884,-3.7116,-3.7116,-3.7116,-3.6654,-3.5846,-3.4814,-3.4334,-3.4182,0.0,0.0,0.0,0.0,0.0,-3.2467,-3.2395,0.0,0.0,0.0,0.0,0.0,0.0,0.0,0.0,0.0,0.0,0.0,0.0,0.0,0.0,-3.1979,-3.2005,-3.2005,-3.2005,-3.1934,-3.1609,0.0,-3.1224,-3.1821,-3.1686,0.0,0.0,0.0,0.0,0.0,-3.377,-3.3397,-3.3107,-3.3107,-3.3107,-3.3107,-3.3107,-3.2759,-3.2522,-3.2536,-3.1719,-3.1181,-3.1091,-3.0405,-2.995,0.0,0.0,0.0,0.0,0.0,0.0,0.0,0.0,0.0,0.0,0.0,0.0,0.0,0.0,0.0,0.0,0.0,0.0,0.0,0.0,0.0,0.0,0.0,0.0,0.0,0.0,0.0,0.0,-2.8743,-2.8906,-2.9198,-2.9455,-2.968,0.0,0.0,0.0,0.0,0.0,0.0,-3.379,-3.3865,-3.4282,-3.5192,-3.5477,-3.5846,-3.6365,-3.6731,-3.7064,-3.737,-3.8138,-3.8479,-3.8498,-3.9186,-3.9489,-3.9489,-3.9489,-3.9489,-3.9334,-3.7108,-3.6164,-3.6074,-3.5365,-3.5074,-3.4969,-3.4273,-3.3961,-3.3865,-3.3843,-3.3633,-3.3335,-3.3107,0.0,-3.2389,-3.2344,0.0,0.0,0.0,0.0,-3.2599,-3.2761,-3.2872,-3.2966,-3.3081,-3.3107,-3.3107,-3.3107,-3.3281,-3.2991,0.0,-3.2256,-3.2952,-3.2551,0.0,0.0,0.0,0.0,-3.4002,-3.4645,-3.4176,-3.3764,-3.3764,-3.3764,-3.3764,-3.3764,-3.3552,-3.3436,-3.3436,-3.2604,-3.2125,-3.2083,-3.1047,-3.0393,-3.0235,0.0,0.0,0.0,0.0,0.0,0.0,0.0,0.0,0.0,0.0,0.0,0.0,0.0,0.0,0.0,0.0,0.0,0.0,0.0,0.0,0.0,0.0,0.0,0.0,0.0,0.0,0.0,0.0,0.0,-2.91,-3.0018,0.0,0.0,0.0,0.0,-3.3271,-3.4149,-3.4747,-3.4823,-3.4823,-3.523,-3.6112,-3.6996,-3.8232,-3.9834,-4.0796,-4.1664,-4.244,-4.2673,-4.2795,-4.2784,-4.296,-4.3034,-4.3034,-4.3034,-4.3034,-4.2783,-3.945,-3.7983,-3.7859,-3.7821,-3.7738,-3.7586,-3.7426,-3.7354,-3.7327,-3.7195,-3.6642,-3.5874,-3.504,-3.3695,-3.2397,-3.2397,-3.2397,0.0,0.0,-3.2406,-3.2476,-3.2721,-3.2804,-3.2865,-3.3045,-3.3107,-3.3107,-3.3107,-3.375,-3.406,0.0,-3.3049,-3.3358,-3.4123,0.0,-3.4626,-3.5491,-3.5607,-3.5588,-3.5626,-3.5607,-3.5568,-3.5568,-3.5568,-3.5568,-3.5568,-3.4819,-3.4336,-3.4336,-3.3518,-3.2968,-3.2857,-3.193,-3.1338,-3.1146,-3.0251,0.0,0.0,0.0,0.0,0.0,0.0,0.0,0.0,0.0,0.0,0.0,0.0,0.0,0.0,0.0,0.0,0.0,0.0,0.0,0.0,0.0,0.0,0.0,0.0,0.0,0.0,0.0,0.0,-3.166,-3.2158,0.0,0.0,-3.3937,-3.4523,-3.4964,-3.5901,-3.6919,-3.8005,-3.8534,-3.9228,-4.0157,-4.0504,-4.0973,-4.1573,-4.2016,-4.2392,-4.2669,-4.2949,-4.3096,-4.3103,-4.325,-4.3305,-4.3298,-4.3202,-4.3165,-4.3061,-4.1716,-4.1262,-4.135,-4.0694,-4.0057,-3.9454,-3.8772,-3.8124,-3.7584,-3.7557,-3.729,-3.6927,-3.6613,-3.6102,-3.5609,-3.5609,-3.5609,-3.5609,-3.5609,-3.5676,-3.5794,-3.597,-3.6077,-3.6041,-3.5631,-3.5544,-3.5389,-3.4891,-3.5027,-3.5143,-3.4833,-3.4775,-3.4698,-3.4432,-3.4877,-3.5342,-3.5646,-3.5704,-3.5704,-3.5704,-3.5704,-3.5704,-3.5704,-3.5704,-3.5704,-3.5704,-3.5419,-3.5245,-3.5245,-3.4427,-3.3914,-3.3881,-3.2872,-3.2022,-3.1337,-3.0833,-3.0226,0.0,0.0,0.0,0.0,0.0,0.0,0.0,0.0,0.0,0.0,0.0,0.0,0.0,0.0,0.0,0.0,0.0,0.0,0.0,0.0,0.0,0.0,0.0,0.0,0.0,0.0,-3.259,-3.3512,-3.3977,-3.4591,-3.5493,-3.6138,-3.6807,-3.7551,-3.849,-3.9509,-4.0613,-4.118,-4.1763,-4.2382,-4.2685,-4.2848,-4.2848,-4.3209,-4.3379,-4.3379,-4.3676,-4.3806,-4.3815,-4.3979,-4.4059,-4.4014,-4.3948,-4.3926,-4.3876,-4.3731,-4.3812,-4.3871,-4.264,-4.1772,-4.1187,-4.0478,-3.9814,-3.9242,-3.8918,-3.8553,-3.8205,-3.7931,-3.7647,-3.7401,-3.7401,-3.7401,-3.7401,-3.7401,-3.747,-3.7557,-3.7691,-3.78,-3.7766,-3.7379,-3.7275,-3.7133,-3.6646,-3.6535,-3.6535,-3.6535,-3.6091,-3.5516,-3.4935,-3.5322,-3.5704,-3.5704,-3.5704,-3.5704,-3.5704,-3.5704,-3.5704,-3.5704,-3.5704,-3.5704,-3.5704,-3.5704,-3.5704,-3.5704,-3.5121,-3.4759,-3.4704,-3.3743,-3.2874,-3.2191,-3.1395,-3.0668,-3.002,0.0,0.0,0.0,0.0,0.0,0.0,0.0,0.0,0.0,0.0,0.0,0.0,0.0,0.0,0.0,0.0,0.0,0.0,0.0,0.0,0.0,0.0,0.0,-3.2921,-3.3069,-3.3564,-3.4453,-3.5432,-3.6348,-3.7182,-3.8848,-4.0207,-4.0981,-4.1907,-4.2439,-4.2439,-4.2458,-4.2477,-4.2477,-4.3303,-4.3739,-4.3739,-4.4497,-4.4857,-4.4857,-4.5038,-4.5115,-4.5126,-4.5389,-4.5442,-4.5333,-4.5479,-4.5472,-4.5362,-4.5371,-4.5371,-4.5218,-4.3532,-4.2871,-4.2814,-4.2667,-4.2616,-4.2462,-4.1559,-4.0677,-3.9843,-3.9069,-3.8235,-3.7571,-3.7571,-3.7552,-3.7533,-3.7533,-3.7495,-3.7507,-3.7652,-3.7689,-3.7742,-3.7981,-3.8031,-3.8066,-3.8163,-3.8187,-3.8187,-3.8187,-3.6884,-3.5762,-3.5742,-3.5742,-3.5723,-3.5704,-3.5704,0.0,-3.5704,-3.5704,-3.5704,-3.5704,-3.5704,-3.5704,-3.5704,-3.5704,-3.5684,-3.5684,-3.5578,-3.5437,-3.5315,-3.4496,-3.3941,-3.3704,-3.1957,-3.1034,-3.1034,0.0,0.0,0.0,0.0,0.0,0.0,0.0,0.0,0.0,0.0,0.0,0.0,0.0,0.0,0.0,0.0,0.0,0.0,0.0,0.0,0.0,0.0,-3.523,-3.3742,-3.4963,-3.6584,-3.8131,-3.8554,-3.9309,-4.0806,-4.1377,-4.1779,-4.2006,-4.2844,-4.3341,-4.3341,-4.391,-4.4213,-4.4213,-4.4459,-4.4573,-4.4573,-4.4213,-4.4023,-4.4023,-4.3591,-4.3391,-4.3401,-4.355,-4.3623,-4.3616,-4.4135,-4.4363,-4.434,-4.484,-4.503,-4.5004,-4.4669,-4.4149,-4.3574,-4.3441,-4.2993,-4.2413,-4.2159,-4.1908,-4.1681,-4.1446,-4.1219,-4.1029,-4.1029,-4.0631,-4.0157,-4.0157,-3.9702,-3.9241,-3.9385,-3.9404,-3.9299,-3.8901,-3.8807,-3.8642,-3.804,-3.7986,-3.8047,-3.8047,-3.7758,-3.7309,-3.669,-3.6574,-3.6361,-3.5781,-3.5704,0.0,-3.5704,-3.5704,-3.5704,-3.5704,-3.5704,-3.5704,-3.5704,-3.5608,-3.5547,0.0,-3.543,-3.5345,-3.5289,-3.4974,-3.4442,-3.3714,-3.2543,-3.193,0.0,0.0,0.0,0.0,0.0,0.0,0.0,0.0,0.0,0.0,0.0,0.0,0.0,0.0,0.0,0.0,0.0,0.0,0.0,0.0,0.0,0.0,-3.6051,-3.7026,-3.6108,-3.7305,-3.8912,-4.0681,-4.0889,-4.1434,-4.2818,-4.2943,-4.3076,-4.3417,-4.3606,-4.3701,-4.3701,-4.3796,-4.3853,-4.3853,-4.3853,-4.3853,-4.3853,-4.3758,-4.3701,-4.3701,-4.3646,-4.3615,-4.3626,-4.3787,-4.3827,0.0,-4.4241,-4.4397,-4.4346,-4.4735,-4.4895,0.0,0.0,0.0,0.0,0.0,-4.3891,-4.3398,-4.3057,-4.2943,-4.2886,-4.2515,-4.2401,-4.2401,-4.2401,-4.206,-4.17,-4.17,-4.134,-4.0964,-4.1035,-4.1056,-4.0888,-4.0215,-4.006,-3.9849,-3.9029,-3.8911,-3.8966,-3.8966,0.0,0.0,-3.7963,-3.7617,-3.729,-3.6826,-3.6439,-3.6207,-3.6207,-3.5869,-3.5645,-3.5684,-3.5596,-3.5566,-3.5608,-3.5483,0.0,0.0,0.0,-3.5187,-3.5138,-3.5062,0.0,0.0,0.0,-3.2902,-3.2883,0.0,0.0,0.0,-2.9859,-2.9481,0.0,0.0,0.0,0.0,0.0,0.0,0.0,0.0,0.0,0.0,0.0,0.0,0.0,0.0,0.0,0.0,-3.751,-3.8872,-3.9346,-3.9933,-4.0885,-4.2363,-4.2564,-4.2848,-4.3625,-4.3701,-4.3966,-4.4573,-4.3966,-4.3549,-4.3549,0.0,0.0,0.0,0.0,-4.2723,-4.2829,-4.3512,-4.3891,-4.3985,-4.4611,-4.4895,-4.4914,-4.5072,-4.508,-4.4907,-4.5091,-4.5049,-4.4895,-4.4895,-4.4895,-4.4895,-4.4895,-4.4895,-4.4895,-4.4895,-4.4895,0.0,0.0,0.0,0.0,-4.2931,-4.2666,-4.2666,-4.2666,-4.2621,-4.2564,-4.2564,-4.2477,-4.2401,-4.2401,-4.2401,-4.2257,-4.1649,-4.1519,-4.1331,-4.069,-4.0476,-4.0417,-4.0417,-4.0349,-4.007,-3.9363,-3.8739,-3.8297,-3.82,-3.7524,-3.7021,-3.7021,-3.6209,-3.5657,-3.578,0.0,0.0,-3.5463,-3.534,-3.5285,-3.5285,-3.5155,-3.5027,-3.4898,-3.4908,-3.4908,-3.4908,-3.4207,-3.3847,-3.3828,-3.2975,-3.2513,-3.2421,-3.0649,-2.9756,0.0,0.0,0.0,0.0,0.0,0.0,0.0,0.0,0.0,0.0,0.0,0.0,0.0,0.0,0.0,-3.756,-3.8961,-4.0436,-4.1794,-4.2553,-4.3095,-4.3417,-4.3455,-4.3512,-4.3682,-4.3701,-4.3474,-4.2912,-4.2754,-4.2647,-4.2647,-4.317,0.0,-4.3455,-4.408,-4.4743,-4.5464,-4.4933,-4.5028,-4.571,0.0,0.0,-4.4895,-4.4931,-4.4931,-4.4895,-4.4931,-4.495,-4.4895,-4.4895,-4.4895,-4.4895,-4.4895,-4.4895,-4.4895,-4.4895,-4.4895,-4.4876,-4.4724,-4.4668,-4.4649,-4.4478,-4.4421,-4.4421,-4.4421,-4.3966,0.0,-4.3455,-4.2943,-4.2401,-4.2401,-4.2401,-4.2375,-4.2238,-4.2212,-4.2166,-4.2028,-4.1575,-4.1189,-4.1189,-4.07,-4.0251,-4.0089,-3.9519,-3.8844,-3.815,-3.7899,-3.7783,-3.7783,-3.6909,-3.6324,-3.6346,-3.5714,-3.5315,-3.5345,-3.5211,-3.5138,-3.5138,-3.5009,-3.4936,-3.4908,-3.4908,-3.4908,-3.4908,-3.4756,-3.4661,-3.4661,-3.3847,-3.3439,-3.3402,-3.227,-3.1346,0.0,0.0,0.0,0.0,0.0,0.0,0.0,0.0,0.0,0.0,0.0,-3.5363,-3.6206,0.0,-3.7865,-3.8663,-4.0185,-4.1591,-4.2556,-4.3127,-4.3517,-4.3689,-4.3701,-4.3531,-4.3095,-4.3057,-4.3057,-4.3057,-4.2647,-4.2602,-4.3038,-4.3455,-4.3701,-4.3701,-4.4478,-4.5103,-4.5539,-4.5539,-4.5767,-4.6203,-4.6165,-4.6146,-4.6146,-4.6146,-4.6146,-4.6146,-4.6146,-4.6146,-4.6127,-4.571,-4.5539,-4.5501,-4.5066,-4.4895,-4.4895,-4.4895,-4.4895,-4.4895,-4.4895,-4.4895,-4.4895,-4.4895,-4.4895,-4.4895,-4.4895,-4.463,-4.4308,-4.4308,-4.3985,-4.3663,-4.3663,-4.3663,-4.3549,-4.3152,-4.3057,-4.2943,-4.2477,-4.2139,-4.189,-4.189,-4.1279,-4.0749,-4.0749,-4.0165,-3.9588,-3.9211,-3.8816,-3.8558,-3.8558,-3.7661,-3.7086,-3.7143,-3.6317,-3.5779,-3.5837,-3.5327,-3.5,-3.5,-3.4945,-3.4908,-3.4908,-3.4908,-3.4908,-3.4908,-3.4908,-3.4908,-3.4908,-3.4491,-3.4301,-3.4282,-3.3819,-3.2883,0.0,0.0,0.0,0.0,0.0,0.0,0.0,0.0,-3.4526,-3.4884,-3.56,-3.6409,-3.7305,-3.8118,-3.8898,-3.9713,-4.1237,-4.2389,-4.2656,-4.3044,-4.3283,-4.3223,-4.336,-4.317,-4.2458,-4.2401,-4.2685,-4.3398,-4.2962,-4.2962,-4.3663,-4.4004,-4.4194,-4.4194,-4.4971,-4.5464,-4.5634,-4.6335,-4.6752,-4.6923,-4.7567,-4.7889,-4.7889,-4.7889,-4.7889,-4.7883,-4.7719,-4.7548,-4.734,-4.6695,-4.643,-4.6354,-4.5653,-4.5293,-4.5122,-4.4952,-4.4895,-4.4895,-4.4895,-4.4895,-4.4895,-4.4895,-4.4895,-4.4895,-4.4895,-4.4895,-4.4895,-4.4895,-4.4895,-4.4895,-4.4895,-4.4895,-4.4743,-4.4099,-4.3929,-4.3739,-4.3038,-4.2761,-4.2647,-4.2647,-4.1984,-4.1435,-4.1435,-4.0815,-4.0301,-4.0258,-3.9712,-3.9282,-3.9282,-3.8421,-3.786,-3.7968,-3.7043,-3.6407,-3.6367,-3.5448,-3.4908,-3.4908,-3.4908,-3.4908,-3.4908,-3.4908,-3.4908,-3.4908,-3.4908,-3.4908,-3.4908,-3.4908,-3.4908,-3.4908,-3.4908,-3.4056,-3.122,-3.1658,-3.2511,-3.3627,-3.3906,-3.4118,0.0,0.0,-3.5515,-3.6364,-3.7172,-3.8035,-3.8971,-3.9749,-4.051,-4.1307,-4.2134,-4.2656,-4.2693,-4.3246,-4.3116,-4.1643,-4.2109,-4.2507,-4.2401,-4.2401,-4.2439,-4.2545,-4.317,-4.3606,-4.3682,-4.5103,-4.5918,-4.5918,-4.6695,-4.7491,-4.8281,-4.8376,-4.8774,-4.9495,-4.9589,-4.9627,-4.9627,-4.9627,-4.9627,-4.9589,-4.8869,-4.8117,-4.7378,-4.7302,-4.7264,-4.7264,-4.715,-4.6676,-4.5956,-4.5198,-4.4895,-4.4895,-4.4895,-4.4895,-4.4895,-4.4895,-4.4895,-4.4895,-4.4895,-4.4895,-4.4895,-4.4895,-4.4895,-4.4895,-4.4895,-4.4895,-4.4876,-4.4781,-4.4762,-4.4743,-4.4649,-4.4061,-4.3549,-4.3549,-4.2867,-4.2268,-4.2268,-4.1609,-4.087,-4.0215,-4.0043,-3.9986,-3.9986,-3.9154,-3.8588,-3.8609,-3.78,-3.6984,-3.6283,-3.541,-3.4908,-3.4908,-3.4908,-3.4908,-3.4908,-3.4908,-3.4908,-3.4908,-3.4908,-3.4908,-3.4908,-3.4908,-3.4908,-3.4908,-3.4908,-3.4406,-3.2703,-3.3389,0.0,0.0,-3.486,-3.4965,-3.537,-3.5849,-3.6457,-3.7317,-3.8198,-3.9063,-3.9894,-4.0655,-4.1307,0.0,-4.2263,-4.2708,-4.2711,-4.2827,-4.2678,-4.1977,-4.2192,-4.2223,-4.1738,-4.2117,-4.2799,-4.3777,-4.4194,-4.4819,-4.5805,-4.7011,-4.7656,-4.7656,-4.8452,-4.904,-4.94,-4.94,-4.957,-4.9912,-4.9912,-4.9912,-4.9912,-4.9912,-4.9912,-4.9893,-4.9551,-4.9191,-4.8831,-4.8357,-4.8168,-4.8111,-4.7605,-4.7188,-4.679,-4.5956,-4.5331,-4.4895,-4.4895,-4.4895,-4.4895,-4.4895,-4.4895,-4.4895,-4.4895,-4.4895,-4.4895,-4.4895,-4.4895,-4.4895,-4.4895,-4.4895,-4.4895,-4.4895,-4.4895,-4.4895,-4.4895,-4.4649,-4.4402,-4.4402,-4.3739,-4.317,-4.317,-4.2469,-4.1639,-4.0851,-4.0311,-3.9969,-3.9969,-3.965,-3.921,-3.8746,-3.8367,-3.7818,-3.6965,-3.614,-3.5647,-3.5647,-3.5173,-3.4908,-3.4908,-3.4908,-3.4908,-3.4908,-3.4908,-3.4908,-3.4908,-3.4908,-3.4908,-3.4908,-3.4908,-3.4718,-3.402,0.0,0.0,-3.5558,-3.5698,-3.5804,-3.6049,-3.6799,-3.7606,-3.8217,-3.9227,-4.0166,-4.0727,-4.1488,0.0,-4.2141,-4.2478,-4.2649,-4.25,-4.2428,-4.2306,-4.2109,-4.2477,-4.2533,-4.1958,-4.2621,-4.3701,-4.5141,-4.5691,-4.6487,-4.7681,-4.8566,-4.904,-4.904,-4.9608,-4.9912,-4.9912,-4.9912,-4.9912,-4.9912,-4.9912,-4.9912,-4.9912,-4.9912,-4.9912,-4.9912,-4.9912,-4.9912,-4.9855,-4.9267,-4.904,-4.8983,-4.8338,-4.7946,-4.7681,-4.7093,-4.6203,-4.5217,-4.499,-4.4895,-4.4895,-4.4895,-4.4895,-4.4895,-4.4895,-4.4895,-4.4895,-4.4895,-4.4895,-4.4895,-4.4895,-4.4895,-4.4895,-4.4895,-4.4895,-4.4895,-4.4895,-4.4895,-4.4895,-4.4895,-4.4421,-4.4023,-4.4023,-4.3322,-4.2564,-4.1977,-4.0961,-4.0165,-3.9938,-3.99,-3.9673,-3.9077,-3.8822,-3.8443,-3.7818,-3.7002,-3.6453,-3.6206,-3.5609,-3.5154,-3.4908,-3.4908,-3.4908,-3.4908,-3.4908,-3.4908,-3.4908,-3.4908,-3.4908,-3.4908,-3.4908,-3.4908,0.0,0.0,-3.4975,-3.6096,-3.6469,-3.6754,-3.747,-3.8349,-3.9068,-3.9157,-4.0438,-4.1558,-4.165,-4.2321,-4.2959,-4.33,-4.2973,-4.2519,-4.1994,-4.2196,-4.2098,-4.1321,-4.2678,-4.3644,0.0,-4.4345,-4.5198,-4.6089,-4.7675,-4.8623,-4.8661,-4.9438,-4.9855,-4.9855,-4.9893,-4.9912,-4.9912,-4.9912,-4.9912,-4.9912,-4.9912,-4.9912,-4.9912,-4.9912,-4.9912,-4.9912,-4.9912,-4.9912,-4.9912,-4.9874,-4.9855,-4.9855,-4.9836,-4.9362,-4.8661,-4.8642,-4.758,-4.6032,-4.5198,-4.4895,-4.4895,-4.4895,-4.4895,-4.4895,-4.4895,-4.4895,-4.4895,-4.4895,-4.4895,-4.4895,-4.4895,-4.4895,-4.4895,-4.4895,-4.4895,-4.4895,-4.4895,-4.4895,-4.4895,-4.4895,-4.4876,-4.4857,-4.4857,-4.4194,-4.3644,-4.3625,-4.2223,-4.0847,-4.0014,-3.99,-3.99,-3.9862,-3.9172,-3.869,-3.8652,-3.7856,-3.704,-3.6244,-3.6187,-3.578,-3.4927,-3.4908,-3.4908,-3.4908,-3.4908,-3.4908,-3.4908,-3.4908,-3.4908,-3.4908,-3.4908,-3.4908,0.0,0.0,-3.6809,-3.7325,-3.7898,-3.8401,-3.876,-3.9445,-4.0185,-4.0745,-4.1288,-4.1849,-4.2393,-4.2905,-4.3084,-4.2675,-4.2365,-4.2108,-4.1922,-4.2189,-4.2507,-4.2829,-4.3834,0.0,0.0,0.0,0.0,-4.6923,-4.8054,-4.8926,-4.9476,-4.976,-4.9912,-4.9912,-4.9912,-4.9912,-4.9912,-4.9912,-4.9912,-4.9912,-4.9912,-4.9912,-4.9912,-4.9912,-4.9912,-4.9912,-4.9912,-4.9912,-4.9912,-4.9912,-4.9912,-4.9912,-4.9912,-4.9741,-4.9438,-4.8907,-4.8338,-4.7656,-4.6241,-4.5767,-4.5672,-4.5085,-4.4895,-4.4895,-4.4895,-4.4895,-4.4895,-4.4895,-4.4895,-4.4895,-4.4895,-4.4895,-4.4895,-4.4895,-4.4895,-4.4895,-4.4895,-4.4895,-4.4895,-4.4895,-4.4895,-4.4895,-4.4895,-4.4687,-4.4326,-4.3777,-4.228,-4.0885,-4.0014,-3.99,-3.99,-3.99,-3.9654,-3.9513,-3.9513,-3.8736,-3.8159,-3.7874,-3.7325,-3.686,-3.6557,-3.6045,-3.5761,-3.5761,-3.5192,-3.4908,-3.4908,-3.4908,-3.4908,-3.4908,-3.4908,-3.4908,-3.6969,-3.7327,-3.7757,-3.8222,-3.8743,-3.9265,-3.9661,-4.0347,-4.1071,-4.1596,-4.1922,-4.2303,-4.2792,-4.3087,-4.3011,-4.2326,-4.2091,-4.2001,-4.194,-4.2366,-4.2949,-4.3613,-4.4402,0.0,0.0,0.0,0.0,-4.7359,-4.8471,-4.9362,-4.9874,-4.9912,-4.9912,-4.9912,-4.9912,-4.9912,-4.9912,-4.9912,-4.9912,-4.9912,-4.9912,-4.9912,-4.9912,-4.9912,-4.9912,-4.9912,-4.9912,-4.9912,-4.9912,-4.9912,-4.9912,-4.9912,-4.9912,-4.9912,-4.9836,-4.9324,-4.9134,-4.8888,-4.7207,-4.643,-4.6108,-4.5539,-4.5141,-4.4895,-4.4895,-4.4895,-4.4895,-4.4895,-4.4895,-4.4895,-4.4895,-4.4895,-4.4895,-4.4895,-4.4895,-4.4895,-4.4895,-4.4895,-4.4895,-4.4895,-4.4895,-4.4895,-4.4895,-4.4895,-4.463,-4.3815,-4.2791,-4.1662,-4.0506,-4.0089,-3.99,-3.99,-3.99,-3.99,-3.99,-3.9437,-3.9012,-3.8727,-3.8178,-3.7723,-3.742,-3.6908,-3.6642,-3.6642,-3.6083,-3.578,-3.578,-3.578,-3.578,-3.578,-3.578,-3.578,-3.7721,-3.7721,-3.7881,-3.876,-3.9103,-3.9445,-4.0293,-4.1143,-4.1759,-4.1759,-4.2375,-4.2901,0.0,0.0,-4.2759,-4.2217,-4.2211,-4.2197,-4.2034,-4.2701,-4.3358,0.0,0.0,0.0,0.0,0.0,0.0,-4.7453,0.0,-4.9912,-4.9912,-4.9912,-4.9912,-4.9912,-4.9912,-4.9912,-4.9912,-4.9912,-4.9912,-4.9912,-4.9912,-4.9912,-4.9912,-4.9912,-4.9912,-4.9912,-4.9912,-4.9912,-4.9912,-4.9912,-4.9912,-4.9912,-4.9912,-4.9912,-4.9912,-4.9912,-4.9912,-4.9684,-4.8079,-4.6999,-4.6297,-4.6222,-4.5634,-4.4952,-4.4914,-4.4895,-4.4895,-4.4895,-4.4895,-4.4895,-4.4895,-4.4895,-4.4895,-4.4895,-4.4895,-4.4895,-4.4895,-4.4895,-4.4895,-4.4895,-4.4895,-4.4895,-4.4895,-4.4895,-4.4649,-4.3872,-4.3739,-4.3095,-4.1427,-4.0468,-3.9957,-3.99,-3.99,-3.99,-3.99,-3.99,-3.9559,-3.8803,-3.8765,-3.8386,-3.7561,-3.7495,-3.7476,-3.7476,-3.742,-3.7401,-3.7401,-3.7401,-3.7401,-3.7401,-3.7401,-3.7401,-3.8419,-3.858,-3.8796,-3.9769,-4.0491,-4.1033,-4.1306,-4.1994,-4.2592,-4.2592,-4.2755,-4.2901,0.0,0.0,0.0,-4.1519,-4.2224,0.0,-4.2087,-4.2907,0.0,0.0,0.0,-4.5236,-4.6108,-4.6923,0.0,0.0,-4.9324,-4.9912,-4.9912,-4.9912,-4.9912,-4.9912,-4.9912,-4.9912,-4.9912,-4.9912,-4.9912,-4.9912,-4.9912,-4.9912,-4.9912,-4.9912,-4.9912,-4.9912,-4.9912,-4.9912,-4.9912,-4.9912,-4.9912,-4.9912,-4.9912,-4.9912,-4.9912,-4.9912,-4.9912,-4.9836,-4.9419,-4.8736,-4.7864,-4.6601,-4.6051,-4.5748,-4.5103,-4.4895,-4.4895,-4.4895,-4.4895,-4.4895,-4.4895,-4.4895,-4.4895,-4.4895,-4.4895,-4.4895,-4.4895,-4.4895,-4.4895,-4.4895,-4.4895,-4.4895,-4.4895,-4.4895,-4.4838,-4.463,-4.408,-4.3095,-4.1427,-4.0999,-4.062,-3.9976,-3.99,-3.99,-3.99,-3.99,-3.9805,-3.9597,-3.9578,-3.9483,-3.9275,-3.8679,-3.8367,-3.8367,-3.7742,-3.7401,-3.7401,-3.7401,-3.7401,-3.7401,-3.7401,-3.7401,-3.8632,-3.8847,-3.9189,-4.0506,-4.1175,-4.1646,-4.2121,-4.2574,-4.2901,-4.2901,-4.2901,0.0,0.0,0.0,0.0,0.0,0.0,0.0,-4.2375,-4.316,-4.4049,0.0,-4.4895,0.0,-4.6601,-4.7131,-4.7908,0.0,-4.9646,-4.9912,-4.9912,-4.9912,-4.9912,-4.9912,-4.9912,-4.9912,-4.9912,-4.9912,-4.9912,-4.9912,-4.9912,-4.9912,-4.9912,-4.9912,-4.9912,-4.9912,0.0,-4.9912,-4.9912,-4.9912,-4.9912,-4.9912,-4.9912,-4.9912,-4.9912,-4.9912,-4.9912,-4.9912,-4.9912,-4.9608,-4.9021,-4.7732,-4.6803,-4.6108,-4.5615,-4.5198,-4.4895,-4.4895,-4.4895,-4.4895,-4.4895,-4.4895,-4.4895,-4.4895,-4.4895,-4.4895,-4.4895,-4.4895,-4.4895,-4.4895,-4.4895,-4.4895,-4.4895,-4.4895,-4.4895,-4.4895,-4.4516,-4.3758,-4.2469,-4.1673,-4.0999,-4.0525,-4.0127,-3.99,-3.99,-3.99,-3.99,-3.99,-3.99,-3.99,-3.99,-3.9475,-3.9229,-3.9229,-3.8755,-3.8509,-3.8509,-3.8509,-3.8509,-3.8509,-3.8509,-3.8509,-3.8701,-3.8949,-3.9363,-4.1112,-4.1547,-4.1785,-4.2681,-4.2882,-4.2901,-4.2901,0.0,-4.2901,-4.2901,0.0,-4.2629,-4.1831,0.0,-4.2903,-4.2736,-4.3438,-4.4198,-4.4833,-4.4895,-4.5558,-4.7245,-4.7397,-4.8098,-4.9779,-4.9912,-4.9912,-4.9912,-4.9912,-4.9912,-4.9912,-4.9912,-4.9912,-4.9912,-4.9912,-4.9912,-4.9912,-4.9912,-4.9912,-4.9912,-4.9912,-4.9912,-4.9912,0.0,0.0,-4.9912,-4.9912,-4.9912,-4.9912,-4.9912,-4.9912,-4.9912,-4.9912,-4.9912,-4.9912,-4.9912,-4.9912,-4.9779,-4.8964,-4.7732,-4.6506,-4.6392,-4.5767,-4.5066,-4.5066,-4.499,-4.4895,-4.4895,-4.4895,-4.4895,-4.4895,-4.4895,-4.4895,-4.4895,-4.4895,-4.4895,-4.4895,-4.4895,-4.4895,-4.4895,-4.4895,-4.4895,-4.4895,-4.4895,-4.4649,-4.3947,-4.2507,-4.1491,-4.1359,-4.0582,-4.0071,-4.0071,-3.9976,-3.99,-3.99,-3.99,-3.99,-3.99,-3.99,-3.99,-3.99,-3.99,-3.99,-3.99,-3.99,-3.99,-3.99,-3.99,-3.99,-3.9343,-3.9698,-4.013,-4.1857,-4.235,-4.2467,-4.2747,-4.2861,0.0,0.0,0.0,-4.2901,-4.2901,-4.2901,0.0,-4.1831,0.0,0.0,0.0,0.0,-4.4457,0.0,0.0,0.0,0.0,0.0,0.0,0.0,0.0,0.0,-4.9912,-4.9912,-4.9912,-4.9912,-4.9912,-4.9912,-4.9912,-4.9912,-4.9912,-4.9912,-4.9912,-4.9912,-4.9912,-4.9912,-4.9912,-4.9912,0.0,0.0,-4.9912,-4.9912,-4.9912,-4.9912,-4.9912,-4.9912,-4.9912,-4.9912,-4.9912,-4.9912,-4.9912,-4.9912,-4.9779,-4.8964,-4.8509,-4.813,-4.7397,-4.662,-4.5975,-4.5975,-4.5464,-4.4895,-4.4895,-4.4895,-4.4895,-4.4895,-4.4895,-4.4895,-4.4895,-4.4895,-4.4895,-4.4895,-4.4895,-4.4895,-4.4895,-4.4895,-4.4895,-4.4895,-4.4895,-4.4857,-4.4706,-4.3853,-4.3,-4.2268,-4.1454,-4.0961,-4.0961,-4.0317,-3.99,-3.99,-3.99,-3.99,-3.99,-3.99,-3.99,-3.99,-3.99,-3.99,-3.99,-3.99,-3.99,-3.99,-3.99,-3.99,-3.9022,-3.9609,-4.0219,-4.1534,-4.2243,-4.2629,-4.2764,0.0,0.0,0.0,0.0,-4.1778,-4.2212,0.0,0.0,0.0,0.0,0.0,0.0,0.0,0.0,0.0,0.0,0.0,0.0,0.0,0.0,0.0,0.0,0.0,-4.9912,-4.9912,-4.9912,-4.9912,-4.9912,-4.9912,-4.9912,-4.9912,-4.9912,-4.9912,-4.9912,-4.9912,-4.9912,-4.9912,-4.9912,-4.9912,-4.9912,0.0,-4.9912,-4.9912,-4.9912,-4.9912,-4.9912,-4.9912,-4.9912,-4.9912,-4.9912,-4.9912,-4.9912,-4.9912,-4.9836,-4.9457,-4.904,-4.8623,-4.8193,-4.7491,-4.6733,-4.6316,-4.5899,-4.5464,-4.5028,-4.4895,-4.4895,-4.4895,-4.4895,-4.4895,-4.4895,-4.4895,-4.4895,-4.4895,-4.4895,-4.4895,-4.4895,-4.4895,-4.4895,-4.4895,-4.4895,-4.4895,-4.4895,-4.4554,-4.4004,-4.317,-4.2325,-4.1643,-4.1226,-4.0809,-4.0374,-3.9938,-3.99,-3.99,-3.99,-3.99,-3.99,-3.99,-3.99,-3.99,-3.99,-3.99,-3.99,-3.99,-3.99,-3.99,-3.8594,-3.9217,-3.988,-4.0781,-4.1667,-4.2322,-4.2239,-4.1955,0.0,0.0,-4.0926,-4.0691,-4.1325,0.0,0.0,0.0,0.0,0.0,0.0,0.0,0.0,0.0,0.0,0.0,0.0,0.0,0.0,0.0,0.0,0.0,-4.9912,-4.9912,-4.9912,-4.9912,-4.9912,-4.9912,-4.9912,-4.9912,-4.9912,-4.9912,-4.9912,-4.9912,-4.9912,-4.9912,-4.9912,-4.9912,-4.9912,0.0,0.0,-4.9912,-4.9912,-4.9912,-4.9912,-4.9912,-4.9912,-4.9912,-4.9912,-4.9912,-4.9912,-4.9912,-4.9912,-4.9912,-4.9476,-4.8964,-4.8964,-4.8357,-4.7548,-4.6904,-4.6468,-4.6032,-4.5369,-4.5047,-4.4895,-4.4895,-4.4895,-4.4895,-4.4895,-4.4895,-4.4895,-4.4895,-4.4895,-4.4895,-4.4895,-4.4895,-4.4895,-4.4895,-4.4895,-4.4895,-4.4895,-4.4895,-4.4668,-4.4023,-4.3189,-4.2431,-4.1787,-4.1548,-4.1094,-4.0222,-4.0184,-4.0089,-3.9919,-3.99,-3.99,-3.99,-3.99,-3.99,-3.99,-3.99,-3.99,-3.99,-3.99,-3.9889,-3.8594,-3.8861,-3.9093,-3.9843,-4.0726,-4.1254,-4.0577,0.0,0.0,-4.0745,-4.0546,-4.051,-4.0601,-4.1198,-4.1723,0.0,0.0,0.0,0.0,0.0,0.0,0.0,0.0,0.0,0.0,0.0,0.0,0.0,0.0,0.0,0.0,-4.9912,-4.9912,-4.9912,-4.9912,-4.9912,-4.9912,-4.9912,-4.9912,-4.9912,-4.9912,-4.9912,-4.9912,-4.9912,-4.9912,-4.9912,0.0,0.0,0.0,-4.9912,-4.9912,-4.9912,-4.9912,-4.9912,-4.9912,-4.9912,-4.9912,-4.9912,-4.9912,-4.9912,-4.9912,-4.9912,-4.9855,-4.9798,-4.9798,-4.9229,-4.8566,-4.849,-4.7372,-4.6184,-4.6089,-4.5483,-4.4895,-4.4895,-4.4895,-4.4895,-4.4895,-4.4895,-4.4895,-4.4895,-4.4895,-4.4895,-4.4895,-4.4895,-4.4895,-4.4895,-4.4895,-4.4895,-4.4895,-4.4895,-4.4876,-4.48,-4.4061,-4.3549,-4.3474,-4.2754,-4.1927,-4.1132,-4.1075,-4.0734,-3.9938,-3.99,-3.99,-3.99,-3.99,-3.99,-3.99,-3.99,-3.99,-3.99,-3.99,-3.9826,-3.7987,-3.8433,-3.8879,-3.9146,-3.9902,-4.0499,-4.0214,0.0,0.0,-3.977,-3.9407,-3.926,-3.9749,-4.0474,-4.1144,0.0,0.0,0.0,0.0,0.0,0.0,0.0,0.0,0.0,0.0,0.0,0.0,0.0,0.0,0.0,0.0,-4.9912,-4.9912,-4.9912,-4.9912,-4.9912,-4.9912,-4.9912,-4.9912,-4.9912,-4.9912,-4.9912,-4.9912,-4.9912,-4.9912,-4.9912,0.0,0.0,0.0,-4.9912,-4.9912,-4.9912,-4.9912,-4.9912,-4.9912,-4.9912,-4.9912,-4.9912,-4.9912,-4.9912,-4.9912,-4.9912,-4.9912,-4.9912,-4.9912,-4.9684,-4.9324,-4.885,-4.8225,-4.7472,-4.6449,-4.5539,-4.4895,-4.4895,-4.4895,-4.4895,-4.4895,-4.4895,-4.4895,-4.4895,-4.4895,-4.4895,-4.4895,-4.4895,-4.4895,-4.4895,-4.4895,-4.4895,-4.4895,-4.4895,-4.4895,-4.4895,-4.4611,-4.4232,-4.3739,-4.3379,-4.2829,-4.1977,-4.1908,-4.1757,-4.1416,-4.0942,-4.0677,-4.0677,-4.0165,-3.99,-3.99,-3.99,-3.99,-3.9919,-4.0431,-4.0654,-3.7595,-3.8005,-3.8451,-3.8451,-3.9096,-3.9673,0.0,0.0,-3.9067,-3.8886,-3.8468,-3.8338,-3.8934,-3.984,-4.0691,-4.1252,0.0,-4.3014,0.0,0.0,0.0,0.0,0.0,0.0,0.0,0.0,0.0,0.0,0.0,0.0,0.0,-4.9912,-4.9912,-4.9912,-4.9912,-4.9912,-4.9912,-4.9912,-4.9912,-4.9912,-4.9912,-4.9912,-4.9912,-4.9912,-4.9912,-4.9912,0.0,0.0,0.0,-4.9912,-4.9912,-4.9912,-4.9912,-4.9912,-4.9912,-4.9912,-4.9912,-4.9912,-4.9912,-4.9912,-4.9912,-4.9912,-4.9912,-4.9912,-4.9912,-4.9912,-4.9779,-4.921,-4.8888,-4.8319,-4.6651,-4.5729,-4.5217,-4.4952,-4.4895,-4.4895,-4.4895,-4.4895,-4.4895,-4.4895,-4.4895,-4.4895,-4.4895,-4.4895,-4.4895,-4.4895,-4.4895,-4.4895,-4.4895,-4.4895,-4.4895,-4.4895,-4.4895,-4.4668,-4.4099,-4.4042,-4.3682,-4.2848,-4.2791,-4.2678,-4.2401,-4.1863,-4.1548,-4.1548,-4.0942,-4.0639,-4.0639,-4.0639,-4.0639,-4.0658,-4.123,-4.1456,-3.7595,-3.7613,-3.7613,-3.7613,-3.8219,-3.8612,0.0,0.0,-3.8725,-3.8147,-3.8019,-3.8036,-3.8192,-3.9478,-4.0492,-4.051,-4.1868,0.0,0.0,0.0,0.0,0.0,0.0,0.0,0.0,0.0,0.0,0.0,0.0,0.0,0.0,-4.9912,-4.9912,-4.9912,-4.9912,-4.9912,-4.9912,-4.9912,-4.9912,-4.9912,-4.9912,-4.9912,-4.9912,-4.9912,-4.9912,0.0,0.0,0.0,0.0,-4.9912,-4.9912,-4.9912,-4.9912,-4.9912,-4.9912,-4.9912,-4.9912,-4.9912,-4.9912,-4.9912,-4.9912,-4.9912,-4.9912,-4.9912,-4.9912,-4.9912,-4.9912,-4.9893,-4.9305,-4.8319,-4.6651,-4.6184,-4.5975,-4.5103,-4.4895,-4.4895,-4.4895,-4.4895,-4.4895,-4.4895,-4.4895,-4.4895,-4.4895,-4.4895,-4.4895,-4.4895,-4.4895,-4.4895,-4.4895,-4.4895,-4.4895,-4.4895,-4.4895,-4.4895,-4.4895,-4.4895,-4.4535,-4.3739,-4.3682,-4.3303,-4.2439,-4.2382,-4.2382,-4.2382,-4.2393,-4.2363,-4.2363,-4.2363,-4.2363,-4.2363,-4.2252,-4.2038,-3.7595,-3.7595,-3.7595,-3.7595,-3.7791,-3.7916,-3.7685,0.0,-3.8044,-3.7952,-3.7933,-3.7986,-3.8175,-3.9407,-4.0456,-4.0492,-4.185,0.0,0.0,0.0,0.0,0.0,0.0,0.0,0.0,0.0,0.0,0.0,0.0,0.0,0.0,0.0,-4.9912,-4.9912,-4.9912,-4.9912,-4.9912,-4.9912,-4.9912,-4.9912,-4.9912,-4.9912,-4.9912,-4.9912,0.0,0.0,0.0,0.0,0.0,-4.9912,-4.9912,-4.9912,-4.9912,-4.9912,-4.9912,-4.9912,-4.9912,-4.9912,-4.9912,-4.9843,-4.9745,-4.9745,-4.9673,-4.9566,-4.9566,-4.9726,-4.9912,-4.9912,-4.9324,-4.8452,-4.7302,-4.6601,-4.5975,-4.5103,-4.4895,-4.4895,-4.4895,-4.4895,-4.4895,-4.4895,-4.4895,-4.4895,-4.4895,-4.4895,-4.4895,-4.4895,-4.4895,-4.4895,-4.4895,-4.4895,-4.4895,-4.4895,-4.4895,-4.4895,-4.4895,-4.4895,-4.4781,-4.4535,-4.4516,-4.4402,-4.4118,-4.3587,-4.3303,-4.3303,-4.2697,-4.2401,-4.2401,-4.2401,-4.2657,-4.3158,-4.3108,-4.3235,0.0,-3.7595,-3.7595,-3.7595,-3.7595,0.0,0.0,0.0,-3.7703,-3.781,-3.7828,-3.7881,-3.8088,-3.9372,-4.042,-4.0492,-4.185,0.0,0.0,0.0,0.0,0.0,0.0,0.0,0.0,0.0,0.0,0.0,0.0,0.0,0.0,0.0,-4.9912,-4.9912,-4.9912,-4.9912,-4.9912,-4.9912,-4.9912,-4.9912,-4.9912,-4.9912,-4.9912,-4.9912,0.0,0.0,0.0,0.0,0.0,-4.9912,-4.9912,-4.9912,-4.9912,-4.9871,-4.9816,-4.9816,-4.9816,-4.9816,-4.9741,-4.9702,-4.9692,-4.96,-4.9491,-4.9399,-4.9399,-4.9596,-4.983,-4.9898,-4.9511,-4.8883,-4.8098,-4.7244,-4.6385,-4.5584,-4.5141,-4.4895,-4.4895,-4.4895,-4.4895,-4.4895,-4.4895,-4.4895,-4.4895,-4.4895,-4.4895,-4.4895,-4.4895,-4.4895,-4.4895,-4.4895,-4.4895,-4.4895,-4.4846,-4.4852,-4.4914,-4.4895,-4.4895,-4.4895,-4.4895,-4.4895,-4.4895,-4.4421,-4.4132,-4.4083,-4.3541,-4.3276,-4.3276,-4.3276,-4.3479,-4.3885,-4.3831,-4.3943,0.0,-3.7559,-3.7595,-3.7595,-3.7595,-3.7595,0.0,0.0,0.0,-3.7685,-3.7703,-3.7775,-3.8039,-3.9337,-4.0438,-4.0546,-4.1886,0.0,0.0,0.0,0.0,0.0,0.0,0.0,0.0,0.0,0.0,0.0,0.0,0.0,0.0,0.0,-4.9912,-4.9912,-4.9912,-4.9912,-4.9912,-4.9912,-4.9912,-4.9912,-4.9912,-4.9912,-4.9912,-4.9912,0.0,0.0,0.0,0.0,0.0,-4.9898,-4.9898,-4.9866,-4.9866,-4.9788,-4.9678,-4.9678,-4.9678,-4.9663,-4.9461,-4.9525,-4.9634,-4.943,-4.9349,-4.9349,-4.9349,-4.9506,-4.9721,-4.9824,-4.9788,-4.9532,-4.884,-4.7926,-4.7008,-4.6328,-4.5496,-4.487,-4.487,-4.4902,-4.4883,-4.4895,-4.4895,-4.4895,-4.4895,-4.4895,-4.4895,-4.4895,-4.4895,-4.4895,-4.4895,-4.4895,-4.4895,-4.4883,-4.477,-4.4751,-4.4858,-4.487,-4.4883,-4.4895,-4.4895,-4.4895,-4.4895,-4.4895,-4.4833,-4.4712,-4.4699,-4.4685,-4.4685,-4.4685,-4.4619,-4.4487,-4.4358,-4.4192,-3.6453,0.0,-3.7595,-3.7595,-3.7595,-3.7595,0.0,0.0,0.0,0.0,0.0,0.0,0.0,-3.9698,-4.0563,-4.1306,0.0,0.0,0.0,0.0,0.0,0.0,0.0,0.0,0.0,0.0,0.0,0.0,0.0,0.0,0.0,0.0,-4.9912,-4.9912,-4.9912,-4.9912,-4.9912,-4.9912,-4.9912,-4.9912,-4.9912,-4.9912,-4.9912,-4.9912,0.0,0.0,0.0,0.0,-4.9898,-4.9788,-4.975,-4.9717,-4.9581,-4.9506,-4.9461,-4.9461,-4.9461,-4.9461,-4.9415,-4.9352,-4.9276,-4.9077,-4.901,-4.8993,-4.8905,-4.9255,-4.9678,-4.9551,-4.9615,-4.9489,-4.8558,-4.7649,-4.6774,-4.6008,-4.5194,-4.4619,-4.4719,-4.4751,-4.4789,-4.487,-4.4895,-4.4895,-4.4895,-4.4895,-4.4895,-4.4895,-4.4895,-4.4895,-4.4895,-4.4895,-4.4858,-4.4764,-4.4725,-4.4672,-4.4592,-4.4699,-4.4783,-4.4883,-4.4895,-4.4895,-4.4895,-4.4895,-4.4833,-4.4712,-4.4592,-4.4556,-4.4556,-4.4556,-4.4487,-4.4344,-4.4314,-4.4192,-3.565,-3.6702,-3.7595,-3.7595,-3.7595,-3.7595,-3.7595,0.0,0.0,0.0,0.0,0.0,0.0,0.0,0.0,0.0,0.0,0.0,0.0,0.0,0.0,0.0,0.0,0.0,0.0,0.0,0.0,0.0,0.0,0.0,0.0,0.0,-4.9912,-4.9912,-4.9912,-4.9912,-4.9912,-4.9912,-4.9912,-4.9912,-4.9912,-4.9912,-4.9912,-4.9912,0.0,0.0,0.0,0.0,-4.9802,-4.9736,-4.9648,-4.9555,-4.9446,-4.9368,-4.9324,-4.9324,-4.9324,-4.9308,-4.9209,-4.911,-4.9029,-4.8767,-4.866,-4.8641,-4.8439,-4.8694,-4.9036,-4.9134,-4.9318,-4.9355,-4.8874,-4.8062,-4.7188,-4.6475,-4.5664,-4.4965,-4.4667,-4.4659,-4.4706,-4.4783,-4.4846,-4.4895,-4.4895,-4.4895,-4.4895,-4.4895,-4.4895,-4.4895,-4.4895,-4.4777,-4.4629,-4.4541,-4.4308,-4.4129,-4.4084,-4.4129,-4.4351,-4.4783,-4.4877,-4.4895,-4.4895,-4.4833,-4.4725,-4.4524,-4.4458,-4.4416,-4.4416,-4.4416,-4.4373,-4.43,-4.4226,-4.4097,-3.494,-3.6274,-3.7522,-3.7577,-3.7595,-3.7595,-3.7595,0.0,0.0,0.0,0.0,0.0,0.0,0.0,0.0,0.0,0.0,0.0,0.0,0.0,0.0,0.0,0.0,0.0,0.0,0.0,0.0,0.0,0.0,0.0,0.0,0.0,0.0,-4.9824,-4.9824,-4.9838,-4.9912,-4.9912,-4.9912,-4.9912,-4.9912,-4.9912,-4.9912,-4.9912,-4.9912,0.0,0.0,0.0,-4.9692,-4.9663,-4.954,-4.9368,-4.9337,-4.9241,-4.9146,-4.9146,-4.9146,-4.9129,-4.896,-4.8909,-4.8838,-4.8495,-4.8402,-4.8345,-4.8014,-4.8037,-4.8234,-4.8584,-4.885,-4.9077,-4.9174,-4.8492,-4.7623,-4.7015,-4.6218,-4.5423,-4.4641,-4.4551,-4.4646,-4.4672,-4.4789,-4.4858,-4.4858,-4.4858,-4.4858,-4.4858,-4.4846,-4.4821,-4.4808,-4.453,-4.4299,-4.4184,-4.3767,-4.3505,-4.3537,-4.3522,-4.3786,-4.4453,-4.47,-4.4814,-4.4802,-4.4693,-4.451,-4.4222,-4.4237,-4.4237,-4.4237,-4.4237,-4.4222,-4.4192,-4.4051,-4.3958,-3.4654,-3.5872,-3.7111,-3.7503,-3.7595,-3.7595,-3.7595,0.0,0.0,0.0,0.0,0.0,0.0,0.0,0.0,0.0,0.0,0.0,0.0,0.0,0.0,0.0,0.0,0.0,0.0,0.0,0.0,0.0,0.0,0.0,0.0,0.0,0.0,-4.9476,-4.9491,-4.9607,-4.9912,-4.9912,-4.9912,-4.9912,-4.9912,-4.9912,-4.9912,-4.9912,-4.9912,0.0,0.0,-4.9816,-4.9692,-4.9525,-4.9352,-4.9211,-4.9027,-4.8959,-4.8943,-4.8943,-4.8943,-4.8943,-4.8909,-4.8909,-4.8838,-4.8495,-4.8402,-4.8307,-4.7728,-4.7788,-4.7994,-4.7772,-4.8018,-4.8328,-4.825,-4.7757,-4.7112,-4.6353,-4.5745,-4.5155,-4.4487,-4.4344,-4.4383,-4.4515,-4.4646,-4.4738,-4.4738,-4.4738,-4.4738,-4.4738,-4.4632,-4.4491,-4.4341,-4.4154,-4.3955,-4.3652,-4.3507,-4.3371,-4.3268,-4.3355,-4.3456,-4.359,-4.4154,-4.4443,-4.4388,-4.4378,-4.4203,-4.3871,-4.3986,-4.4051,-4.4051,-4.4051,-4.3942,-4.3714,-4.3908,-4.3747,-3.4891,-3.5741,-3.6469,-3.736,-3.7595,-3.772,-3.8148,0.0,0.0,0.0,0.0,0.0,0.0,0.0,0.0,0.0,0.0,0.0,0.0,0.0,0.0,0.0,0.0,0.0,0.0,0.0,0.0,0.0,0.0,0.0,0.0,0.0,0.0,0.0,-4.8919,-4.8984,-4.9148,-4.9129,-4.9401,-4.9912,-4.9912,-4.9912,-4.9912,-4.9816,-4.9788,-4.9788,0.0,-4.9551,-4.9402,-4.9141,-4.8922,-4.8749,-4.8514,-4.8402,-4.842,-4.8569,-4.8623,-4.866,-4.8838,-4.8909,-4.882,-4.8345,-4.8191,-4.8055,-4.7428,-4.7338,-4.7428,-4.7272,-4.7648,-4.8076,-4.8032,-4.7817,-4.7311,-4.6084,-4.5608,-4.5126,-4.3959,-4.3763,-4.3873,-4.4075,-4.4236,-4.4407,-4.4653,-4.4646,-4.4619,-4.4699,-4.4426,-4.4206,-4.4095,-4.3751,-4.3437,-4.3248,-4.3032,-4.2844,-4.2728,-4.2843,-4.3087,-4.3488,-4.4031,-4.4184,-4.3833,-4.4008,-4.3934,-4.3477,-4.3529,-4.3563,-4.3563,-4.3563,-4.3495,-4.3392,-4.3512,-4.3444,-3.4931,-3.5612,-3.6103,-3.7408,-3.7807,-3.8041,-3.8665,0.0,0.0,0.0,0.0,0.0,0.0,0.0,0.0,0.0,0.0,0.0,0.0,0.0,0.0,0.0,0.0,0.0,0.0,0.0,0.0,0.0,0.0,0.0,0.0,0.0,0.0,0.0,-4.7832,-4.785,-4.794,-4.794,-4.849,-4.9569,-4.9569,-4.9569,-4.9569,-4.9533,-4.9472,-4.9411,-4.9315,-4.9155,-4.894,-4.8694,-4.8477,-4.8288,-4.8073,-4.7992,-4.8032,-4.823,-4.8307,-4.8326,-4.8587,-4.8696,-4.8605,-4.8072,-4.7891,-4.7767,-4.7183,-4.6998,-4.6998,-4.6998,-4.7363,-4.7767,-4.7767,-4.7829,-4.7506,-4.6106,-4.5673,-4.522,-4.3761,-4.3395,-4.3424,-4.3627,-4.377,-4.3971,-4.4322,-4.4317,-4.4273,-4.4383,-4.405,-4.3799,-4.3751,-4.33,-4.2959,-4.2902,-4.2629,-4.2425,-4.2308,-4.2387,-4.2691,-4.3264,-4.3767,-4.3818,-4.3336,-4.364,-4.3574,-4.3105,-4.316,-4.3214,-4.3214,-4.3214,-4.316,-4.3069,-4.316,-4.3123,-3.423,-3.5356,-3.6464,-3.7737,-3.8398,0.0,-3.879,-3.9324,0.0,0.0,0.0,0.0,0.0,0.0,0.0,0.0,0.0,0.0,0.0,0.0,0.0,0.0,0.0,0.0,0.0,0.0,0.0,0.0,0.0,0.0,0.0,0.0,0.0,0.0,0.0,-4.5975,-4.6274,-4.6255,-4.7068,-4.8603,-4.8603,-4.8603,-4.8603,-4.8864,-4.883,-4.8585,-4.8829,-4.8691,-4.8272,-4.8253,-4.8155,-4.8032,-4.8012,-4.7992,-4.8012,-4.8032,-4.8032,-4.8032,-4.8052,-4.8072,-4.8012,-4.7642,-4.7533,-4.7468,-4.7093,-4.6998,-4.6998,-4.6998,-4.7025,-4.707,-4.707,-4.7294,-4.7316,-4.6446,-4.5914,-4.5348,-4.4436,-4.3689,-4.3214,-4.3232,-4.3337,-4.3439,-4.3491,-4.3491,-4.3491,-4.349,-4.3355,-4.3178,-4.2995,-4.2826,-4.2671,-4.2546,-4.2407,-4.2308,-4.2308,-4.2308,-4.2348,-4.2391,-4.2957,-4.3214,-4.3051,-4.3178,-4.3087,-4.275,-4.3032,-4.3214,-4.3214,-4.3214,-4.3032,-4.275,-4.3068,-4.29,-3.5232,-3.607,-3.6936,-3.8215,-3.9014,0.0,0.0,-4.0449,-4.0877,0.0,0.0,0.0,0.0,0.0,0.0,0.0,0.0,0.0,0.0,0.0,0.0,0.0,0.0,0.0,0.0,0.0,0.0,0.0,0.0,0.0,0.0,0.0,0.0,0.0,0.0,-4.5037,-4.5162,-4.5182,-4.547,-4.6085,-4.7223,-4.7755,-4.7774,-4.8255,-4.8403,-4.831,-4.8328,-4.8251,-4.8056,-4.7836,-4.7731,-4.7663,-4.745,-4.7385,-4.7407,-4.76,-4.7684,-4.7705,-4.7931,-4.7992,-4.7951,-4.7618,-4.7511,-4.7446,-4.7093,-4.6998,-4.6998,-4.6998,-4.6998,-4.6998,-4.6998,-4.7093,-4.6986,-4.6175,-4.5476,-4.4772,-4.396,-4.3188,-4.2689,-4.2863,-4.2921,-4.3051,-4.3354,-4.332,-4.3303,-4.3388,-4.3105,-4.2845,-4.2806,-4.2593,-4.2432,-4.2387,-4.2328,-4.2308,-4.2308,-4.2308,-4.2308,-4.2308,-4.2806,-4.292,-4.2573,-4.2883,-4.2883,-4.2454,-4.2571,-4.2631,-4.2631,-4.2631,-4.2571,-4.2434,-4.2591,-4.2512,-3.5899,-3.6737,-3.7541,0.0,0.0,0.0,-4.1306,-4.1484,-4.1627,0.0,0.0,0.0,0.0,0.0,0.0,0.0,0.0,0.0,0.0,0.0,0.0,0.0,0.0,0.0,0.0,0.0,0.0,0.0,0.0,0.0,0.0,0.0,0.0,0.0,0.0,0.0,-4.3875,-4.3875,-4.3875,-4.3893,-4.5393,-4.6211,-4.6468,-4.7252,-4.7538,-4.7456,-4.7743,-4.7788,-4.7663,-4.7446,-4.7338,-4.7316,-4.7093,-4.6998,-4.7043,-4.7249,-4.7338,-4.7363,-4.76,-4.7684,-4.7642,-4.7425,-4.7338,-4.7294,-4.707,-4.6998,-4.6998,-4.6998,-4.6998,-4.6998,-4.6998,-4.6998,-4.6855,-4.6302,-4.557,-4.4763,-4.3996,-4.3233,-4.2652,-4.2588,-4.2555,-4.2673,-4.3014,-4.2976,-4.2939,-4.3051,-4.277,-4.2555,-4.2555,-4.2412,-4.2308,-4.2308,-4.2308,-4.2308,-4.2308,-4.2308,-4.2308,-4.2308,-4.2595,-4.2634,-4.2308,-4.2613,-4.2614,-4.2308,-4.2308,-4.2308,-4.2308,-4.2308,-4.2308,-4.2308,-4.2308,-4.2308,-3.5899,-3.7119,-3.831,0.0,0.0,0.0,0.0,-4.2308,0.0,0.0,0.0,0.0,0.0,0.0,0.0,0.0,0.0,0.0,0.0,0.0,0.0,0.0,0.0,0.0,0.0,0.0,0.0,0.0,0.0,0.0,0.0,0.0,0.0,0.0,0.0,0.0,-4.2308,-4.2308,-4.2308,-4.2308,-4.3108,-4.3872,-4.4642,-4.5759,-4.6097,-4.586,-4.7,-4.7316,-4.698,-4.6998,-4.6998,-4.6998,-4.6998,-4.6998,-4.6998,-4.6998,-4.6998,-4.6998,-4.6998,-4.6998,-4.6998,-4.6998,-4.6998,-4.6998,-4.6998,-4.6998,-4.6998,-4.6998,-4.6998,-4.6998,-4.6998,-4.6998,-4.6998,-4.6998,-4.6391,-4.5588,-4.4781,-4.4014,-4.3268,-4.2486,-4.2308,-4.2308,-4.2308,-4.2308,-4.2308,-4.2308,-4.2308,-4.2308,-4.2308,-4.2308,-4.2308,-4.2308,-4.2308,-4.2308,-4.2308,-4.2308,-4.2308,-4.2308,-4.2308,-4.2308,-4.2308,-4.2308,-4.2308,-4.2308,-4.2308,-4.2308,-4.2308,-4.2308,-4.2308,-4.2308,-4.2308,-4.2308,-3.61,-3.7379,0.0,0.0,0.0,0.0,0.0,0.0,0.0,0.0,0.0,0.0,0.0,0.0,0.0,0.0,0.0,0.0,0.0,0.0,0.0,0.0,0.0,0.0,0.0,0.0,0.0,0.0,0.0,0.0,0.0,0.0,0.0,0.0,0.0,0.0,-4.2308,-4.2308,-4.2308,-4.2308,-4.2537,-4.3072,-4.3875,-4.4714,-4.505,-4.5017,-4.5913,-4.6248,-4.6195,-4.6766,-4.6998,-4.6998,-4.6998,-4.6998,-4.6998,-4.6998,-4.6998,-4.6998,-4.6998,-4.6998,-4.6998,-4.6998,-4.6998,-4.6998,-4.6998,-4.6998,-4.6998,-4.6998,-4.6998,-4.6998,-4.6998,-4.6998,-4.6998,-4.6998,-4.6391,-4.5731,-4.5499,-4.4428,-4.3447,-4.3197,-4.268,-4.2308,-4.2308,-4.2308,-4.2308,-4.2308,-4.2308,-4.2308,-4.2308,-4.2308,-4.2308,-4.2308,-4.2308,-4.2308,-4.2308,-4.2308,-4.2308,-4.2308,-4.2308,-4.2308,-4.2308,-4.2308,-4.2308,-4.2308,-4.2308,-4.2308,-4.2308,-4.2308,-4.2308,-4.2308,-4.2308,-4.2308,-3.7027,0.0,0.0,0.0,0.0,0.0,0.0,0.0,0.0,0.0,0.0,0.0,0.0,0.0,0.0,0.0,0.0,0.0,0.0,0.0,0.0,0.0,0.0,0.0,0.0,0.0,0.0,0.0,0.0,0.0,0.0,0.0,0.0,0.0,0.0,0.0,-4.2308,-4.2308,-4.2308,-4.2308,-4.2308,-4.2537,-4.3054,-4.38,-4.4157,-4.421,-4.532,-4.5802,-4.5856,-4.6659,-4.6998,-4.6998,-4.6998,-4.6998,-4.6998,-4.6998,-4.6998,-4.6998,-4.6998,-4.6998,-4.6998,-4.6998,-4.6998,-4.6998,-4.6998,-4.6998,-4.6998,-4.6998,-4.6998,-4.6998,-4.6998,-4.6998,-4.6998,-4.6998,-4.6623,-4.6195,-4.5873,-4.4821,-4.3836,-4.3551,-4.2858,-4.2308,-4.2308,-4.2308,-4.2308,-4.2308,-4.2308,-4.2308,-4.2308,-4.2308,-4.2308,-4.2308,-4.2308,-4.2308,-4.2308,-4.2308,-4.2308,-4.2308,-4.2308,-4.2308,-4.2308,-4.2308,-4.2308,-4.2308,-4.2308,-4.2308,-4.2308,-4.2308,-4.2308,-4.2308,-4.2308,-4.2308,-3.8215,0.0,0.0,0.0,0.0,0.0,0.0,0.0,0.0,0.0,0.0,0.0,0.0,0.0,0.0,0.0,0.0,0.0,0.0,0.0,0.0,0.0,0.0,0.0,0.0,0.0,0.0,0.0,0.0,0.0,0.0,0.0,0.0,0.0,0.0,0.0,-4.2308,-4.2308,-4.2308,0.0,-4.2308,-4.2308,-4.2325,-4.3054,-4.3426,-4.359,-4.4981,-4.5641,-4.5749,-4.6551,-4.6873,-4.689,-4.6962,-4.6998,-4.6998,-4.6998,-4.6998,-4.6998,-4.6998,-4.6998,-4.6998,-4.6998,-4.6998,-4.6998,-4.6998,-4.6998,-4.6998,-4.6998,-4.6998,-4.6998,-4.6998,-4.6998,-4.6998,-4.6998,-4.6998,-4.6801,-4.607,-4.5285,-4.4478,-4.3729,-4.2965,-4.2397,-4.2305,-4.2308,-4.2308,-4.2308,-4.2308,-4.2308,-4.2308,-4.2308,-4.2308,-4.2308,-4.2308,-4.2308,-4.2308,-4.2308,-4.2308,-4.2308,-4.2308,-4.2308,-4.2308,-4.2308,-4.2308,-4.2308,-4.2308,-4.2308,-4.2308,-4.2308,-4.2308,-4.2308,-4.2308,-4.2308,0.0,-3.878,0.0,0.0,0.0,0.0,0.0,0.0,0.0,0.0,0.0,0.0,0.0,0.0,0.0,0.0,0.0,0.0,0.0,0.0,0.0,0.0,0.0,0.0,0.0,0.0,0.0,0.0,0.0,0.0,0.0,0.0,0.0,0.0,0.0,-4.2308,-4.2308,-4.2308,-4.2308,0.0,-4.2308,-4.2308,-4.2308,-4.2465,-4.2894,-4.3515,-4.3857,-4.4339,-4.4906,-4.5731,-4.607,-4.6123,-4.6748,-4.6998,-4.6998,-4.6998,-4.6998,-4.6998,-4.6998,-4.6998,-4.6998,-4.6998,-4.6998,-4.6998,-4.6998,-4.6998,-4.6998,-4.6998,-4.6998,-4.6998,-4.6998,-4.6998,-4.6998,-4.6998,-4.6998,-4.6944,-4.6766,-4.6105,-4.532,-4.4514,-4.3768,-4.3036,-4.2415,-4.2308,-4.2308,-4.2308,-4.2308,-4.2308,-4.2308,-4.2308,-4.2308,-4.2308,-4.2308,-4.2308,-4.2308,-4.2308,-4.2308,-4.2308,-4.2308,-4.2308,-4.2308,-4.2308,-4.2308,-4.2308,-4.2308,-4.2308,-4.2308,-4.2308,-4.2308,-4.2308,-4.2308,-4.2308,0.0,0.0,0.0,0.0,0.0,0.0,0.0,0.0,0.0,0.0,0.0,0.0,0.0,0.0,0.0,0.0,0.0,0.0,0.0,0.0,0.0,0.0,0.0,0.0,0.0,0.0,0.0,0.0,0.0,0.0,0.0,0.0,0.0,0.0,-4.2308,-4.2308,-4.2308,-4.2308,-4.2308,-4.2308,-4.2308,-4.2308,-4.2308,-4.2308,-4.2519,-4.2947,-4.334,-4.3711,-4.4121,-4.4928,-4.5463,-4.5838,-4.6266,-4.6659,-4.6998,-4.6998,-4.6998,-4.6998,-4.6998,-4.6998,-4.6998,-4.6998,-4.6998,-4.6998,-4.6998,-4.6998,-4.6998,-4.6998,-4.6998,-4.6998,-4.6998,-4.6998,-4.6998,-4.6998,-4.6998,-4.6998,-4.6998,-4.6373,-4.5677,-4.5267,-4.4264,-4.3375,-4.2947,-4.2555,-4.2308,-4.2308,-4.2308,-4.2308,-4.2308,-4.2308,-4.2308,-4.2308,-4.2308,-4.2308,-4.2308,-4.2308,-4.2308,-4.2308,-4.2308,-4.2308,-4.2308,-4.2308,-4.2308,-4.2308,-4.2308,-4.2308,-4.2308,-4.2308,-4.2308,-4.2308,-4.2308,-4.2308,0.0,0.0,0.0,0.0,0.0,0.0,0.0,0.0,0.0,0.0,0.0,0.0,0.0,0.0,0.0,0.0,0.0,0.0,0.0,0.0,0.0,0.0,0.0,0.0,0.0,0.0,0.0,0.0,0.0,0.0,0.0,0.0,-4.2308,-4.2308,-4.2308,-4.2308,-4.2308,-4.2308,-4.2308,-4.2308,-4.2308,-4.2308,-4.2308,-4.2308,-4.2308,-4.2343,-4.3001,-4.3304,-4.3358,-4.4086,-4.4799,-4.5427,-4.5695,-4.6212,-4.6801,-4.6944,-4.6998,-4.6998,-4.6998,-4.6998,-4.6998,-4.6998,-4.6998,-4.6998,-4.6998,-4.6998,-4.6998,-4.6998,-4.6998,-4.6998,-4.6998,-4.6998,-4.6998,-4.6998,-4.6998,-4.6998,-4.6998,-4.648,-4.5963,-4.5838,-4.4553,-4.3444,-4.3322,-4.2733,-4.2308,-4.2308,-4.2308,-4.2308,-4.2308,-4.2308,-4.2308,-4.2308,-4.2308,-4.2308,-4.2308,-4.2308,-4.2308,-4.2308,-4.2308,-4.2308,-4.2308,-4.2308,-4.2308,-4.2308,-4.2308,-4.2308,-4.2308,-4.2308,-4.2308,-4.2308,-4.2308,-4.2308,0.0,0.0,0.0,0.0,0.0,0.0,0.0,0.0,0.0,0.0,0.0,0.0,0.0,0.0,0.0,0.0,0.0,0.0,0.0,0.0,0.0,0.0,0.0,0.0,0.0,0.0,0.0,0.0,0.0,0.0,0.0,-4.2308,-4.2308,-4.2308,-4.2308,-4.2308,-4.2308,-4.2308,-4.2308,-4.2308,-4.2308,-4.2308,-4.2308,-4.2308,-4.2308,-4.2308,-4.2394,-4.2448,-4.2519,-4.3322,-4.3693,-4.3946,-4.5285,-4.5873,-4.6034,-4.673,-4.6998,-4.6998,-4.6998,-4.6998,-4.6998,-4.6998,-4.6998,-4.6998,-4.6998,-4.6998,-4.6998,-4.6998,-4.6998,-4.6998,-4.6998,-4.6998,-4.6998,-4.6998,-4.6998,-4.6998,-4.6998,-4.6908,-4.6623,-4.5945,-4.4553,-4.3286,-4.2573,-4.2358,-4.2308,-4.2308,-4.2308,-4.2308,-4.2308,-4.2308,-4.2308,-4.2308,-4.2308,-4.2308,-4.2308,-4.2308,-4.2308,-4.2308,-4.2308,-4.2308,-4.2308,-4.2308,-4.2308,-4.2308,-4.2308,-4.2308,-4.2308,-4.2308,-4.2308,-4.2308,-4.2308,-4.2308,0.0,0.0,0.0,0.0,0.0,0.0,0.0,0.0,0.0,0.0,0.0,0.0,0.0,0.0,0.0,0.0,0.0,0.0,0.0,0.0,0.0,0.0,0.0,0.0,0.0,0.0,0.0,0.0,0.0,0.0,-4.2308,-4.2308,-4.2308,-4.2308,-4.2308,-4.2308,-4.2308,-4.2308,-4.2308,-4.2308,-4.2308,-4.2308,-4.2308,-4.2308,-4.2308,-4.2308,-4.2308,-4.2308,-4.2343,-4.268,-4.309,-4.3604,-4.4714,-4.541,-4.5909,-4.6694,-4.6998,-4.6998,-4.6998,-4.6998,-4.6998,-4.6998,-4.6998,-4.6998,-4.6998,-4.6998,-4.6998,-4.6998,-4.6998,-4.6998,-4.6998,-4.6998,-4.6998,-4.6998,-4.6998,-4.6998,-4.6998,-4.6998,-4.6748,-4.5963,-4.4892,-4.3875,-4.3108,-4.259,-4.2308,-4.2308,-4.2308,-4.2308,-4.2308,-4.2308,-4.2308,-4.2308,-4.2308,-4.2308,-4.2308,-4.2308,-4.2308,-4.2308,-4.2308,-4.2308,-4.2308,-4.2308,-4.2308,-4.2308,-4.2308,-4.2308,-4.2308,-4.2308,-4.2308,-4.2308,-4.2308,-4.2308,0.0,0.0,0.0,0.0,0.0,0.0,0.0,0.0,0.0,0.0,0.0,0.0,0.0,0.0,0.0,0.0,0.0,0.0,0.0,0.0,0.0,0.0,0.0,0.0,0.0,0.0,0.0,0.0,0.0,0.0,-4.2308,-4.2308,-4.2308,-4.2308,-4.2308,-4.2308,-4.2308,-4.2308,-4.2308,-4.2308,-4.2308,-4.2308,-4.2308,-4.2308,-4.2308,-4.2308,-4.2308,-4.2308,-4.2308,-4.2308,-4.2644,-4.3268,-4.4014,-4.4799,-4.5588,-4.6391,-4.6819,-4.6998,-4.6998,-4.6998,-4.6998,-4.6998,-4.6998,-4.6998,-4.6998,-4.6998,-4.6998,-4.6998,-4.6998,-4.6998,-4.6998,-4.6998,-4.6998,-4.6998,-4.6998,-4.6998,-4.6998,-4.6998,-4.6748,-4.5963,-4.516,-4.4353,-4.3622,-4.2822,-4.2308,-4.2308,-4.2308,-4.2308,-4.2308,-4.2308,-4.2308,-4.2308,-4.2308,-4.2308,-4.2308,-4.2308,-4.2308,-4.2308,-4.2308,-4.2308,-4.2308,-4.2308,-4.2308,-4.2308,-4.2308,-4.2308,-4.2308,-4.2308,-4.2308,-4.2308,-4.2308,-4.2308,0.0,0.0,0.0,0.0,0.0,0.0,0.0,0.0,0.0,0.0,0.0,0.0,0.0,0.0,0.0,0.0,0.0,0.0,0.0,0.0,0.0,0.0,0.0,0.0,0.0,0.0,0.0,0.0,0.0,0.0,-4.2308,-4.2308,-4.2308,-4.2308,-4.2308,-4.2308,-4.2308,-4.2308,-4.2308,-4.2308,-4.2308,-4.2308,-4.2308,-4.2308,-4.2308,-4.2308,-4.2308,-4.2308,-4.2308,-4.2308,-4.2325,-4.243,-4.3251,-4.3996,-4.4745,-4.557,-4.6355,-4.6998,-4.6998,-4.6998,-4.6998,-4.6998,-4.6998,-4.6998,-4.6998,-4.6998,-4.6998,-4.6998,-4.6998,-4.6998,-4.6998,-4.6998,-4.6998,-4.6998,-4.6998,-4.6998,-4.6998,-4.6998,-4.6748,-4.5963,-4.516,-4.4353,-4.3622,-4.2822,-4.2308,-4.2308,-4.2308,-4.2308,-4.2308,-4.2308,-4.2308,-4.2308,-4.2308,-4.2308,-4.2308,-4.2308,-4.2308,-4.2308,-4.2308,-4.2308,-4.2308,-4.2308,-4.2308,-4.2308,-4.2308,-4.2308,-4.2308,-4.2308,-4.2308,-4.2308,-4.2308,-4.2308,0.0,0.0,0.0,0.0,0.0,0.0,0.0,0.0,0.0,0.0,0.0,0.0,0.0,0.0,0.0,0.0,0.0,0.0,0.0,0.0,0.0,0.0,0.0,0.0,0.0,0.0,0.0,0.0,0.0,0.0,-4.2308,-4.2308,-4.2308,-4.2308,-4.2308,-4.2308,-4.2308,-4.2308,-4.2308,-4.2308,-4.2308,-4.2308,-4.2308,-4.2308,-4.2308,-4.2308,-4.2308,-4.2308,-4.2308,-4.2308,-4.2308,-4.2397,-4.3197,-4.3943,-4.4692,-4.5517,-4.6302,-4.6998,-4.6998,-4.6998,-4.6998,-4.6998,-4.6998,-4.6998,-4.6998,-4.6998,-4.6998,-4.6998,-4.6998,-4.6998,-4.6998,-4.6998,-4.6998,-4.6998,-4.6998,-4.6998,-4.6998,-4.6998,-4.6908,-4.6623,-4.5927,-4.5124,-4.4335,-4.3572,-4.2894,-4.2397,-4.2308,-4.2308,-4.2308,-4.2308,-4.2308,-4.2308,-4.2308,-4.2308,-4.2308,-4.2308,-4.2308,-4.2308,-4.2308,-4.2308,-4.2308,-4.2308,-4.2308,-4.2308,-4.2308,-4.2308,-4.2308,-4.2308,-4.2308,-4.2308,-4.2308,-4.2308,0.0,0.0,0.0,0.0,0.0,0.0,0.0,0.0,0.0,0.0,0.0,0.0,0.0,0.0,0.0,0.0,0.0,0.0,0.0,0.0,0.0,0.0,0.0,0.0,0.0,0.0,0.0,0.0,0.0,0.0,-4.2308,-4.2308,-4.2308,-4.2308,-4.2308,-4.2308,-4.2308,-4.2308,-4.2308,-4.2308,-4.2308,-4.2308,-4.2308,-4.2308,-4.2308,-4.2308,-4.2308,-4.2308,-4.2308,-4.2308,-4.2308,-4.2341,-4.2894,-4.3693,-4.4656,-4.5213,-4.6088,-4.6998,-4.6998,-4.6998,-4.6998,-4.6998,-4.6998,-4.6998,-4.6998,-4.6998,-4.6998,-4.6998,-4.6998,-4.6998,-4.6998,-4.6998,-4.6998,-4.6998,-4.6998,-4.6998,-4.6998,-4.6998,-4.6998,-4.6998,-4.6355,-4.5641,-4.5084,-4.4157,-4.3322,-4.2769,-4.2465,-4.2308,-4.2308,-4.2308,-4.2308,-4.2308,-4.2308,-4.2308,-4.2308,-4.2308,-4.2308,-4.2308,-4.2308,-4.2308,-4.2308,-4.2308,-4.2308,-4.2308,-4.2308,-4.2308,-4.2308,-4.2308,-4.2308,-4.2308,-4.2308,-4.2308,0.0,0.0,0.0,0.0,0.0,0.0,0.0,0.0,0.0,0.0,0.0,0.0,0.0,0.0,0.0,0.0,0.0,0.0,0.0,0.0,0.0,0.0,0.0,0.0,0.0,0.0,0.0,0.0,0.0,-4.2287,-4.2287,-4.2287,-4.2308,-4.2308,-4.2308,-4.2308,-4.2308,-4.2308,-4.2308,-4.2308,-4.2308,-4.2308,-4.2308,-4.2308,-4.2308,-4.2308,-4.2308,-4.2308,-4.2308,-4.2308,-4.2308,-4.2308,-4.2343,-4.3268,-4.4603,-4.4621,-4.5641,-4.6998,-4.6998,-4.6998,-4.6998,-4.6998,-4.6998,-4.6998,-4.6998,-4.6998,-4.6998,-4.6998,-4.6998,-4.6998,-4.6998,-4.6998,-4.6998,-4.6998,-4.6998,-4.6998,-4.6998,-4.6998,-4.6998,-4.6998,-4.6373,-4.5838,-4.5802,-4.4553,-4.3515,-4.3497,-4.2822,-4.2308,-4.2308,-4.2308,-4.2308,-4.2308,-4.2308,-4.2308,-4.2308,-4.2308,-4.2308,-4.2308,-4.2308,-4.2308,-4.2308,-4.2308,-4.2308,-4.2308,-4.2308,-4.2308,-4.2308,-4.2308,-4.2308,-4.2308,-4.2325,-4.2343,-3.9299,0.0,0.0,0.0,0.0,0.0,0.0,0.0,0.0,0.0,0.0,0.0,0.0,0.0,0.0,0.0,0.0,0.0,0.0,0.0,0.0,0.0,0.0,0.0,0.0,0.0,0.0,0.0,-4.1445,-4.1709,-4.1709,-4.2103,-4.2308,-4.2308,-4.2308,-4.2308,-4.2308,-4.2308,-4.2308,-4.2308,-4.2308,-4.2308,-4.2308,-4.2308,-4.2308,-4.2308,-4.2308,-4.2308,-4.2308,-4.2308,-4.2308,-4.2361,-4.2947,-4.3747,-4.4656,-4.5267,-4.6123,-4.6998,-4.6998,-4.6998,-4.6998,-4.6998,-4.6998,-4.6998,-4.6998,-4.6998,-4.6998,-4.6998,-4.6998,-4.6998,-4.6998,-4.6998,-4.6998,-4.6998,-4.6998,-4.6998,-4.6998,-4.6998,-4.6998,-4.6998,-4.6819,-4.648,-4.5909,-4.4942,-4.4103,-4.3568,-4.2822,-4.2308,-4.2308,-4.2308,-4.2308,-4.2308,-4.2308,-4.2308,-4.2308,-4.2308,-4.2308,-4.2308,-4.2308,-4.2308,-4.2308,-4.2308,-4.2308,-4.2308,-4.2308,-4.2308,-4.2308,-4.2308,-4.2308,-4.2305,-4.2894,-4.3179,0.0,0.0,0.0,0.0,0.0,0.0,-3.9299,-3.9299,0.0,0.0,0.0,0.0,0.0,0.0,0.0,0.0,0.0,0.0,0.0,0.0,0.0,0.0,0.0,0.0,0.0,0.0,0.0,0.0,-4.0926,-4.1293,-4.1494,-4.2002,-4.2308,-4.2308,-4.2308,-4.2308,-4.2308,-4.2308,-4.2308,-4.2308,-4.2308,-4.2308,-4.2308,-4.2308,-4.2308,-4.2308,-4.2308,-4.2308,-4.2308,-4.2308,-4.2308,-4.2397,-4.3197,-4.3943,-4.4692,-4.5517,-4.6302,-4.6998,-4.6998,-4.6998,-4.6998,-4.6998,-4.6998,-4.6998,-4.6998,-4.6998,-4.6998,-4.6998,-4.6998,-4.6998,-4.6998,-4.6998,-4.6998,-4.6998,-4.6998,-4.6998,-4.6998,-4.6998,-4.6998,-4.6998,-4.6998,-4.6837,-4.6373,-4.5641,-4.4856,-4.4068,-4.3304,-4.268,-4.2343,-4.2308,-4.2308,-4.2308,-4.2308,-4.2308,-4.2308,-4.2308,-4.2308,-4.2308,-4.2308,-4.2308,-4.2308,-4.2308,-4.2308,-4.2308,-4.2308,-4.2486,-4.2804,-4.2448,-4.2465,-4.2804,-4.3286,-4.3658,0.0,0.0,0.0,0.0,0.0,0.0,-3.9272,-3.9272,-3.9272,0.0,0.0,0.0,0.0,0.0,0.0,0.0,0.0,0.0,0.0,0.0,0.0,0.0,0.0,0.0,0.0,0.0,-3.9919,-3.9919,-4.0466,-4.0995,-4.1472,-4.2002,-4.2308,-4.2308,-4.2308,-4.2308,-4.2308,-4.2308,-4.2308,-4.2308,-4.2308,-4.2308,-4.2308,-4.2308,-4.2308,-4.2308,-4.2308,-4.2308,-4.2308,-4.2308,-4.2341,-4.2501,-4.3322,-4.4068,-4.4817,-4.5641,-4.6391,-4.6998,-4.6998,-4.6998,-4.6998,-4.6998,-4.6998,-4.6998,-4.6998,-4.6998,-4.6998,-4.6998,-4.6998,-4.6998,-4.6998,-4.6998,-4.6998,-4.6998,-4.6998,-4.6998,-4.6998,-4.6998,-4.6998,-4.6998,-4.6998,-4.6998,-4.6998,-4.632,-4.557,-4.4835,-4.4014,-4.3251,-4.2519,-4.2361,-4.2308,-4.2308,-4.2308,-4.2308,-4.2308,-4.2308,-4.2308,-4.2308,-4.2308,-4.2308,-4.2308,-4.2308,-4.2308,-4.2308,-4.2397,-4.2822,-4.3604,-4.2822,-4.284,-4.3622,-4.3693,-4.4103,0.0,0.0,0.0,0.0,0.0,0.0,-3.9023,-3.905,-3.9094,0.0,0.0,0.0,0.0,0.0,0.0,0.0,0.0,0.0,0.0,0.0,0.0,0.0,0.0,0.0,0.0,0.0,-3.9441,-3.9441,-4.0269,-4.0995,-4.1472,-4.2002,-4.2308,-4.2308,-4.2308,-4.2308,-4.2308,-4.2308,-4.2308,-4.2308,-4.2308,-4.2308,-4.2308,-4.2308,-4.2308,-4.2308,-4.2308,-4.2308,-4.2308,-4.2308,-4.268,-4.3358,-4.4086,-4.4852,-4.5659,-4.6462,-4.6855,-4.6998,-4.6998,-4.6998,-4.6998,-4.6998,-4.6998,-4.6998,-4.6998,-4.6998,-4.6998,-4.6998,-4.6998,-4.6998,-4.6998,-4.6998,-4.6998,-4.6998,-4.6998,-4.6998,-4.6998,-4.6998,-4.6998,-4.6998,-4.6998,-4.6998,-4.6998,-4.632,-4.5749,-4.5588,-4.4392,-4.3426,-4.3304,-4.2697,-4.2308,-4.2308,-4.2308,-4.2308,-4.2308,-4.2308,-4.2308,-4.2308,-4.2308,-4.2308,-4.2308,-4.2308,-4.2308,-4.2308,-4.2947,-4.3643,-4.4371,-4.3643,-4.3661,-4.4389,-4.5053,-4.5427,0.0,0.0,0.0,-3.8996,0.0,0.0,0.0,-3.8914,0.0,0.0,0.0,0.0,0.0,0.0,0.0,0.0,0.0,0.0,0.0,0.0,0.0,0.0,0.0,0.0,0.0,0.0,-3.9299,-3.9299,-4.0237,-4.0919,-4.1134,-4.1878,-4.2308,-4.2308,-4.2308,-4.2308,-4.2308,-4.2308,-4.2308,-4.2308,-4.2308,-4.2308,-4.2308,-4.2308,-4.2308,-4.2308,-4.2308,-4.2308,-4.2323,-4.2733,-4.3358,-4.4086,-4.446,-4.5106,-4.5909,-4.6694,-4.6998,-4.6998,-4.6998,-4.6998,-4.6998,-4.6998,-4.6998,-4.6998,-4.6998,-4.6998,-4.6998,-4.6998,-4.6998,-4.6998,-4.6998,-4.6998,-4.6998,-4.6998,-4.6998,-4.6998,-4.6998,-4.6998,-4.6998,-4.6998,-4.6998,-4.6998,-4.6998,-4.6659,-4.6266,-4.5856,-4.5142,-4.4517,-4.4086,-4.3393,-4.2894,-4.2894,-4.2537,-4.2308,-4.2308,-4.2308,-4.2308,-4.2308,-4.2308,-4.2308,-4.2308,-4.268,-4.3072,-4.3447,-4.3836,-4.4446,-4.5213,-4.4839,-4.4856,-4.5213,-4.5624,-4.6016,0.0,0.0,0.0,0.0,0.0,-3.875,0.0,0.0,0.0,0.0,0.0,0.0,0.0,0.0,0.0,0.0,0.0,0.0,0.0,0.0,0.0,0.0,0.0,0.0,0.0,0.0,-3.9299,-3.9299,-4.0137,-4.0659,-4.0659,-4.16,-4.2145,-4.2145,-4.2246,-4.2308,-4.2308,-4.2308,-4.2308,-4.2308,-4.2205,-4.2187,-4.2287,-4.2103,-4.2061,-4.2145,-4.2044,-4.2061,-4.2216,-4.3017,-4.3843,-4.4621,-4.4763,-4.532,-4.6105,-4.6748,-4.6998,-4.6998,-4.6998,-4.6998,-4.6998,-4.6998,-4.6998,-4.6998,-4.6998,-4.6998,-4.6998,-4.6998,-4.6998,-4.6998,-4.6998,-4.6998,-4.6998,-4.6998,-4.6998,-4.6998,-4.6998,-4.6998,-4.6998,-4.6998,-4.6998,-4.6998,-4.6998,-4.6998,-4.6766,-4.6123,-4.5909,-4.557,-4.4906,-4.4175,-4.3711,-4.3711,-4.3126,-4.2733,-4.2733,-4.2733,-4.2733,-4.2733,-4.2733,-4.2733,-4.2733,-4.3375,-4.405,-4.4817,-4.4817,-4.5231,-4.6034,-4.6034,-4.6034,-4.6034,-4.6034,-4.6373,0.0,0.0,0.0,0.0,-3.8616,0.0,0.0,0.0,0.0,0.0,0.0,0.0,0.0,0.0,0.0,0.0,0.0,0.0,0.0,0.0,0.0,0.0,0.0,0.0,0.0,0.0,0.0,-3.9299,-3.9782,-4.0103,-4.0103,-4.1047,-4.16,-4.16,-4.2044,-4.2308,-4.2308,-4.2308,-4.2308,-4.2287,-4.1813,-4.1835,-4.2267,-4.1378,-4.1197,-4.1578,-4.1151,-4.122,-4.1653,-4.2466,-4.3505,-4.4656,-4.5392,-4.6159,-4.6855,-4.6962,-4.6998,-4.6998,-4.6998,-4.6998,-4.6998,-4.6998,-4.6998,-4.6998,-4.6998,-4.6998,-4.6998,-4.6998,-4.6998,-4.6998,-4.6998,-4.6998,-4.6998,-4.6998,-4.6998,-4.6998,-4.6998,-4.6998,-4.6998,-4.6998,-4.6998,-4.6998,-4.6998,-4.6998,-4.6962,-4.6873,-4.6266,-4.5766,-4.5677,-4.4981,-4.4478,-4.4478,-4.4389,-4.4335,-4.4335,-4.4335,-4.4335,-4.4335,-4.4335,-4.4335,-4.4335,-4.4424,-4.4835,-4.5659,-4.5659,-4.607,-4.6855,-4.6855,-4.6855,-4.6855,-4.6855,-4.6908,0.0,0.0,0.0,0.0,0.0,0.0,0.0,0.0,-3.8504,0.0,0.0,0.0,0.0,0.0,0.0,0.0,0.0,0.0,0.0,0.0,0.0,0.0,0.0,0.0,0.0,0.0,0.0,0.0,0.0,-4.0003,-4.0003,-4.0713,-4.1088,-4.1088,-4.1311,-4.1423,-4.1423,-4.1423,-4.1423,-4.1423,-4.1197,-4.122,-4.1423,-4.099,-4.0919,-4.1065,-4.0896,-4.1138,-4.1794,-4.2565,-4.345,-4.441,-4.557,-4.6424,-4.6998,-4.6998,-4.6998,-4.6998,-4.6998,-4.6998,-4.6998,-4.6998,-4.6998,-4.6998,-4.6998,-4.6998,-4.6998,-4.6998,-4.6998,-4.6998,-4.6998,-4.6998,-4.6998,-4.6998,-4.6998,-4.6998,-4.6998,-4.6998,-4.6998,-4.6998,-4.6998,-4.6998,-4.6998,-4.6998,-4.6998,-4.6998,-4.6712,-4.6498,-4.6498,-4.5802,-4.5302,-4.5302,-4.487,-4.4603,-4.4603,-4.4603,-4.4603,-4.4603,-4.4603,-4.4799,-4.5285,-4.5302,-4.5677,-4.648,-4.6498,-4.6659,-4.6998,-4.6998,-4.6998,-4.6998,-4.6998,-4.6998,-3.9023,0.0,0.0,0.0,0.0,0.0,0.0,0.0,0.0,0.0,0.0,0.0,0.0,0.0,0.0,0.0,0.0,0.0,0.0,0.0,0.0,0.0,0.0,0.0,0.0,0.0,0.0,0.0,0.0,0.0,-3.9791,-4.0302,-4.057,-4.057,-4.0731,-4.0802,-4.0802,-4.0802,-4.0802,-4.0802,-4.0659,-4.0659,-4.0778,-4.0514,-4.0466,-4.057,-4.0441,-4.0869,-4.1746,-4.2508,-4.3322,-4.4208,-4.5463,-4.6193,-4.6572,-4.6888,-4.6998,-4.6998,-4.6998,-4.6998,-4.6975,-4.6842,-4.6888,-4.6998,-4.6998,-4.6998,-4.6998,-4.6998,-4.6998,-4.6998,-4.6998,-4.6998,-4.6998,-4.6998,-4.6998,-4.6998,-4.6998,-4.6998,-4.6998,-4.6998,-4.6998,-4.6998,-4.6998,-4.6998,-4.6998,-4.6998,-4.6998,-4.6998,-4.6998,-4.648,-4.6123,-4.6123,-4.5624,-4.5267,-4.5267,-4.5267,-4.5267,-4.5267,-4.5267,-4.5517,-4.6105,-4.6123,-4.6391,-4.698,-4.6998,-4.6998,-4.6998,-4.6998,-4.6998,-4.6998,-4.6998,-4.6998,0.0,0.0,0.0,-3.8644,0.0,0.0,0.0,0.0,-3.8391,0.0,0.0,0.0,0.0,0.0,0.0,0.0,0.0,0.0,0.0,0.0,0.0,0.0,0.0,0.0,0.0,0.0,0.0,0.0,0.0,0.0,-3.9325,-3.9782,-4.0028,-4.0028,-4.0521,-4.0802,-4.0802,-4.0802,-4.0802,-4.0802,-4.0277,-4.0302,-4.0778,-3.9799,-3.9592,-4.0003,-3.9556,-4.001,-4.1187,-4.1984,-4.3003,-4.4182,-4.501,-4.5329,-4.5485,-4.6596,-4.6998,-4.6998,-4.6998,-4.6998,-4.6911,-4.6381,-4.659,-4.6998,-4.6998,-4.6998,-4.6998,-4.6998,-4.6998,-4.6998,-4.6998,-4.6998,-4.6998,-4.6998,-4.6998,-4.6998,-4.6998,-4.6998,-4.6998,-4.6998,-4.6998,-4.6998,-4.6998,-4.6998,-4.6998,-4.6998,-4.6998,-4.6998,-4.6998,-4.6962,-4.6944,-4.6944,-4.6926,-4.6908,-4.6908,-4.6908,-4.6908,-4.6908,-4.6908,-4.6926,-4.6944,-4.6944,-4.6962,-4.6998,-4.6998,-4.6998,-4.6998,-4.6998,-4.6998,-4.6998,-4.6998,-4.6998,0.0,0.0,-3.9056,-3.8672,0.0,0.0,0.0,0.0,0.0,0.0,0.0,0.0,0.0,0.0,0.0,0.0,0.0,0.0,0.0,0.0,0.0,0.0,0.0,0.0,0.0,0.0,0.0,0.0,0.0,0.0,0.0,-3.9468,-3.953,-3.953,-3.9696,-3.9799,-3.9799,-3.9799,-3.9799,-3.9799,-3.9618,-3.9618,-3.9799,-3.9468,-3.9388,-3.9563,-3.9877,-4.0508,-4.1355,-4.2133,-4.2952,-4.3821,-4.4523,-4.4773,-4.4855,-4.5606,-4.5885,-4.5885,-4.5885,-4.6126,-4.6429,-4.6259,-4.6308,-4.6542,-4.6888,-4.6998,-4.6998,-4.6998,-4.6998,-4.6998,-4.6998,-4.6998,-4.6998,-4.6998,-4.6998,-4.6998,-4.6998,-4.6998,-4.6998,-4.6998,-4.6998,-4.6998,-4.6998,-4.6998,-4.6998,-4.6998,-4.6998,-4.6998,-4.6998,-4.6998,-4.6998,-4.6998,-4.6998,-4.6998,-4.6998,-4.6998,-4.6998,-4.6998,-4.6998,-4.6998,-4.6998,-4.6998,-4.6998,-4.6998,-4.6998,-4.6998,-4.6998,-4.6998,-4.6998,-4.6998,-4.6998,-4.6998,-3.9148,-3.9148,0.0,-3.8821,-3.875,0.0,-3.8532,0.0,0.0,0.0,0.0,0.0,0.0,0.0,0.0,0.0,0.0,0.0,0.0,-3.8887,0.0,0.0,0.0,0.0,0.0,0.0,0.0,0.0,0.0,0.0,0.0,0.0,-3.9299,-3.9299,-3.9299,-3.9299,-3.9299,-3.9299,-3.9299,-3.9299,-3.9299,-3.9299,-3.9299,-3.9299,-3.9299,-3.9348,-4.0094,-4.0779,-4.1446,-4.2191,-4.292,-4.3658,-4.4035,-4.4179,-4.4276,-4.5028,-4.5303,-4.5276,-4.5081,-4.5399,-4.5852,-4.5649,-4.5726,-4.5928,-4.6291,-4.6548,-4.6725,-4.6725,-4.6865,-4.6998,-4.6998,-4.6998,-4.6998,-4.6998,-4.6998,-4.6998,-4.6998,-4.6998,-4.6998,-4.6998,-4.6998,-4.6998,-4.6998,-4.6998,-4.6998,-4.6998,-4.6998,-4.6998,-4.6998,-4.6998,-4.6998,-4.6998,-4.6998,-4.6998,-4.6998,-4.6998,-4.6998,-4.6998,-4.6998,-4.6998,-4.6998,-4.6998,-4.6855,-4.6569,-4.6837,-4.6855,-4.6569,-4.6855,-4.6998,-4.6998,-4.6998,-4.6998]},{"header":{"parameterUnit":"m.s-1","parameterCategory":1,"la1":30.6,"la2":29.2853,"lo1":-89.7004,"lo2":-87.6739,"dy":0.0162,"dx":0.0183,"nx":112,"ny":82,"refTime":"2024-04-10T06:00:00:Z","depth":0,"parameterNumber":3,"parameterNumberName":"V-component_of_WINDS"},"data":[0.0,0.0,0.0,0.0,0.0,0.0,0.0,0.0,0.0,0.0,0.0,0.0,0.0,0.0,0.0,0.0,0.0,0.0,0.0,0.0,0.0,0.0,0.0,0.0,0.0,0.0,0.0,0.0,0.0,0.0,0.0,0.0,0.0,0.0,0.0,0.0,0.0,0.0,0.0,0.0,0.0,0.0,0.0,0.0,0.0,0.0,0.0,0.0,0.0,0.0,0.0,0.0,0.0,0.0,0.0,0.0,0.0,0.0,0.0,0.0,0.0,0.0,0.0,0.0,0.0,0.0,0.0,0.0,0.0,0.0,0.0,0.0,0.0,0.0,0.0,0.0,0.0,0.0,0.0,0.0,0.0,0.0,0.0,0.0,0.0,0.0,0.0,0.0,0.0,0.0,0.0,0.5385,0.5027,0.5352,0.6724,0.7186,0.7912,0.9092,0.0,0.0,0.0,0.0,0.0,0.0,0.0,0.0,0.0,0.0,0.0,0.0,0.0,0.0,0.0,0.0,0.0,0.0,0.0,0.0,0.0,0.0,0.0,0.0,0.0,0.0,0.0,0.0,0.0,0.0,0.0,0.0,0.0,0.0,0.0,0.0,0.0,0.0,0.0,0.0,0.0,0.0,0.0,0.0,0.0,0.0,0.0,0.0,0.0,0.0,0.0,0.0,0.0,0.0,0.0,0.0,0.0,0.0,0.0,0.0,0.0,0.0,0.0,0.0,0.0,0.0,0.0,0.0,0.0,0.0,0.0,0.0,0.0,0.0,0.0,0.0,0.0,0.0,0.0,0.0,0.0,0.0,0.0,0.0,0.0,0.0,0.0,0.0,0.0,0.0,0.0,0.0,0.0,0.0,0.0,0.0,0.0,0.0,0.0,0.0,0.0,0.0,0.0,0.0,0.5458,0.4597,0.4664,0.4897,0.5156,0.6535,0.7484,0.7712,0.0,0.0,0.0,0.0,0.0,0.0,0.0,0.0,0.0,0.0,0.0,0.0,0.0,0.0,0.0,0.0,0.0,0.0,0.0,0.0,0.0,0.0,0.0,0.0,0.0,0.0,0.0,0.0,0.0,0.0,0.0,0.0,0.0,0.0,0.0,0.0,0.0,0.0,0.0,0.0,0.0,0.0,0.0,0.0,0.0,0.0,0.0,0.0,0.0,0.0,0.0,0.0,0.0,0.0,0.0,0.0,0.0,0.0,0.0,0.0,0.0,0.0,0.0,0.0,0.0,0.0,0.0,0.0,0.0,0.0,0.0,0.0,0.0,0.0,0.0,0.0,0.0,0.0,0.0,0.0,0.0,0.0,0.0,0.0,0.0,0.0,0.0,0.0,0.0,0.0,0.0,0.0,0.0,0.0,0.0,0.0,0.0,0.0,0.0,0.0,0.0,0.0,0.0,0.562,0.516,0.44,0.4597,0.496,0.5352,0.6634,0.7582,0.7967,0.8839,0.0,0.0,0.0,0.0,0.0,0.0,0.0,0.0,0.0,0.0,0.0,0.0,0.0,0.0,0.0,0.0,0.0,0.0,0.0,0.0,0.0,0.0,0.0,0.0,0.0,0.0,0.0,0.0,0.0,0.0,0.0,0.0,0.0,0.0,0.0,0.0,0.0,0.0,0.0,0.0,0.0,0.0,0.0,0.0,0.0,0.0,0.0,0.0,0.0,0.0,0.0,0.0,0.0,0.0,0.0,0.0,0.0,0.0,0.0,0.0,0.0,0.0,0.0,0.0,0.0,0.0,0.0,0.0,0.0,0.0,0.0,0.0,0.0,0.0,0.0,0.0,0.0,0.0,0.0,0.0,0.0,0.0,0.0,0.0,0.0,0.0,0.0,0.0,0.0,0.0,0.0,0.0,0.0,0.0,0.0,0.0,0.0,0.0,0.0,0.0,0.0,0.0,0.5057,0.4761,0.4334,0.4564,0.499,0.558,0.6695,0.7609,0.8199,0.9022,0.0,0.0,0.0,0.0,0.0,0.0,0.0,0.0,0.0,0.0,0.0,0.0,0.0,0.0,0.0,0.0,0.0,0.0,0.0,0.0,0.0,0.0,0.0,0.0,0.0,0.0,0.0,0.0,0.0,0.0,0.0,0.0,0.0,0.0,0.0,0.0,0.0,0.0,0.0,0.0,0.0,0.0,0.0,0.0,0.0,0.0,0.0,0.0,0.0,0.0,0.0,0.0,0.0,0.0,0.0,0.0,0.0,0.0,0.0,0.0,0.0,0.0,0.0,0.0,0.0,0.0,0.0,0.0,0.0,0.0,0.0,0.0,0.0,0.0,0.0,0.0,0.0,0.0,0.0,0.0,0.0,0.0,0.0,0.0,0.0,0.0,0.0,0.0,0.0,0.0,0.0,0.0,0.0,0.0,0.0,0.0,0.0,0.0,0.0,0.0,0.0,0.0,0.4964,0.4334,0.43,0.4495,0.4691,0.4861,0.6301,0.7279,0.7451,0.8759,0.0,0.0,0.0,0.0,0.0,0.0,0.0,0.0,0.0,0.0,0.0,0.0,0.0,0.0,0.0,0.0,0.0,0.0,0.0,0.0,0.0,0.0,0.0,0.0,0.0,0.0,0.0,0.0,0.0,0.0,0.0,0.0,0.0,0.0,0.0,0.0,0.0,0.0,0.0,0.0,0.0,0.0,0.0,0.0,0.0,0.0,0.0,0.0,0.0,0.0,0.0,0.0,0.0,0.0,0.0,0.0,0.0,0.0,0.0,0.0,0.0,0.0,0.0,0.0,0.0,0.0,0.0,0.0,0.0,0.0,0.0,0.0,0.0,0.0,0.0,0.0,0.0,0.0,0.0,0.0,0.0,0.0,0.0,0.0,0.0,0.0,0.0,0.0,0.0,0.0,0.0,0.0,0.0,0.0,0.0,0.0,0.0,0.0,0.0,0.0,0.0,0.0,0.5259,0.4661,0.0,0.4495,0.4625,0.4661,0.6231,0.7214,0.7284,0.0,0.0,0.0,0.0,0.0,0.0,0.0,0.0,0.0,0.0,0.0,0.0,0.0,0.0,0.0,0.0,0.0,0.0,0.0,0.0,0.0,0.0,0.0,0.0,0.0,0.0,0.0,0.0,0.0,0.0,0.0,0.0,0.0,0.0,0.0,0.0,0.0,0.0,0.0,0.0,0.0,0.0,0.0,0.0,0.0,0.0,0.0,0.0,0.0,0.0,0.0,0.0,0.0,0.0,0.0,0.0,0.0,0.0,0.0,0.0,0.0,0.0,0.0,0.0,0.0,0.0,0.0,0.0,0.0,0.0,0.0,0.0,0.0,0.0,0.0,0.0,0.0,0.0,0.0,0.0,0.0,0.0,0.0,0.0,0.0,0.0,0.0,0.0,0.0,0.0,0.0,0.0,0.0,0.0,0.0,0.0,0.0,0.0,0.0,0.0,0.0,0.0,0.5954,0.5292,0.4694,0.0,0.4431,0.4528,0.4592,0.6133,0.7149,0.7214,0.0,0.0,0.0,0.0,0.0,0.0,0.0,0.0,0.0,0.0,0.0,0.0,0.0,0.0,0.0,0.0,0.0,0.0,0.0,0.0,0.0,0.0,0.0,0.0,0.0,0.0,0.0,0.0,0.0,0.0,0.0,0.0,0.0,0.0,0.0,0.0,0.0,0.0,0.0,0.0,0.0,0.0,0.0,0.0,0.0,0.0,0.0,0.0,0.0,0.0,0.0,0.0,0.0,0.0,0.0,0.0,0.0,0.0,0.0,0.0,0.0,0.0,0.0,0.0,0.0,0.0,0.0,0.0,0.0,0.0,0.0,0.0,0.0,0.0,0.0,0.0,0.0,0.0,0.0,0.0,0.0,0.0,0.0,0.0,0.0,0.0,0.0,0.0,0.0,0.0,0.0,0.0,0.0,0.0,0.0,0.0,0.0,0.0,0.0,0.0,0.0,0.0,0.5888,0.4964,0.43,0.43,0.43,0.4364,0.4595,0.6005,0.6985,0.0,0.0,0.0,0.0,0.0,0.0,0.0,0.0,0.0,0.0,0.0,0.0,0.0,0.0,0.0,0.0,0.0,0.0,0.0,0.0,0.0,0.0,0.0,0.0,0.0,0.0,0.0,0.0,0.0,0.0,0.0,0.0,0.0,0.0,0.0,0.0,0.0,0.0,0.0,0.0,0.0,0.0,0.0,0.0,0.0,0.0,0.0,0.0,0.0,0.0,0.0,0.0,0.0,0.0,0.0,0.0,0.0,0.0,0.0,0.0,0.0,0.0,0.0,0.0,0.0,0.0,0.0,0.0,0.0,0.0,0.0,0.0,0.0,0.0,0.0,0.0,0.0,0.0,0.0,0.0,0.0,0.0,0.0,0.0,0.0,0.0,0.0,0.0,0.0,0.0,0.0,0.0,0.0,0.0,0.0,0.0,0.0,0.0,0.0,0.0,0.0,0.0,0.0,0.5888,0.4964,0.43,0.43,0.43,0.4334,0.4398,0.5385,0.6268,0.6957,0.0,0.0,0.0,0.0,0.0,0.0,0.0,0.0,0.0,0.0,0.0,0.0,0.0,0.0,0.0,0.0,0.0,0.0,0.0,0.0,0.0,0.0,0.0,0.0,0.0,0.0,0.0,0.0,0.0,0.0,0.0,0.0,0.0,0.0,0.0,0.0,0.0,0.0,0.0,0.0,0.0,0.0,0.0,0.0,0.0,0.0,0.0,0.0,0.0,0.0,0.0,0.0,0.0,0.0,0.0,0.0,0.0,0.0,0.0,0.0,0.0,0.0,0.0,0.0,0.0,0.0,0.0,0.0,0.0,0.0,0.0,0.0,0.0,0.0,0.0,0.0,0.0,0.0,0.0,0.0,0.0,0.0,0.0,0.0,0.0,0.0,0.0,0.0,0.0,0.0,0.0,0.0,0.0,0.0,0.0,0.0,0.0,0.0,0.0,0.0,0.0,0.0,0.5624,0.4831,0.43,0.43,0.43,0.43,0.43,0.509,0.5844,0.6465,0.0,0.0,0.0,0.0,0.0,0.0,0.0,0.0,0.0,0.0,0.0,0.0,0.0,0.0,0.0,0.0,0.0,0.0,0.0,0.0,0.0,0.0,0.0,0.0,0.0,0.0,0.0,0.0,0.0,0.0,0.0,0.0,0.0,0.0,0.0,0.0,0.0,0.0,0.0,0.0,0.0,0.0,0.0,0.0,0.0,0.0,0.0,0.0,0.0,0.0,0.0,0.0,0.0,0.0,0.0,0.0,0.0,0.0,0.0,0.0,0.0,0.0,0.0,0.0,0.0,0.0,0.0,0.0,0.0,0.0,0.0,0.0,0.0,0.0,0.0,0.0,0.0,0.0,0.0,0.0,0.0,0.0,0.0,0.0,0.0,0.0,0.0,0.0,0.0,0.0,0.0,0.0,0.0,0.0,0.0,0.0,0.0,0.0,0.0,0.0,0.0,0.0,0.5153,0.4631,0.43,0.43,0.43,0.43,0.43,0.5024,0.5613,0.5873,0.0,0.0,0.0,0.0,0.0,0.0,0.0,0.0,0.0,0.0,0.0,0.0,0.0,0.0,0.0,0.0,0.0,0.0,0.0,0.0,0.0,0.0,0.0,0.0,0.0,0.0,0.0,0.0,0.0,0.0,0.0,0.0,0.0,0.0,0.0,0.0,0.0,0.0,0.0,0.0,0.0,0.0,0.0,0.0,0.0,0.0,0.0,0.0,0.0,0.0,0.0,0.0,0.0,0.0,0.0,0.0,0.0,0.0,0.0,0.0,0.7358,0.0,0.0,0.0,0.0,0.0,0.0,0.0,0.0,0.0,0.0,0.0,0.0,0.0,0.0,0.0,0.0,0.0,0.0,0.0,0.0,0.0,0.0,0.0,0.0,0.0,0.0,0.0,0.0,0.0,0.0,0.0,0.0,0.0,0.0,0.0,0.0,0.0,0.0,0.0,0.0,0.0,0.512,0.4631,0.43,0.43,0.43,0.43,0.43,0.4464,0.4957,0.5837,0.0,0.0,0.0,0.0,0.0,0.0,0.0,0.0,0.0,0.0,0.0,0.0,0.0,0.0,0.0,0.0,0.0,0.0,0.0,0.0,0.0,0.0,0.0,0.0,0.0,0.0,0.0,0.0,0.0,0.0,0.0,0.0,0.0,0.0,0.0,0.0,0.0,0.0,0.0,0.0,0.0,0.0,0.0,0.0,0.0,0.0,0.0,0.0,0.0,0.0,0.0,0.0,0.0,0.0,0.0,0.0,0.0,0.0,0.0,0.0,0.0,0.6736,0.0,0.0,0.0,0.0,0.0,0.0,0.0,0.0,0.0,0.0,0.0,0.0,0.0,0.0,0.0,0.0,0.0,0.0,0.0,0.0,0.0,0.0,0.0,0.0,0.0,0.0,0.0,0.0,0.0,0.0,0.0,0.0,0.0,0.0,0.0,0.0,0.0,0.0,0.0,0.0,0.4842,0.4501,0.43,0.43,0.43,0.43,0.43,0.43,0.4564,0.5249,0.5576,0.0,0.0,0.0,0.0,0.0,0.0,0.0,0.0,0.0,0.0,0.0,0.0,0.0,0.0,0.0,0.0,0.0,0.0,0.0,0.0,0.0,0.0,0.0,0.0,0.0,0.0,0.0,0.0,0.0,0.0,0.0,0.0,0.0,0.0,0.0,0.0,0.0,0.0,0.0,0.0,0.0,0.0,0.0,0.0,0.0,0.0,0.0,0.0,0.0,0.0,0.0,0.0,0.0,0.0,0.6008,0.5906,0.5964,0.5735,0.5362,0.5925,0.6019,0.584,0.0,0.0,0.0,0.0,0.0,0.0,0.0,0.0,0.0,0.0,0.0,0.0,0.0,0.0,0.0,0.0,0.0,0.0,0.0,0.0,0.0,0.0,0.0,0.0,0.0,0.5624,0.5624,0.0,0.0,0.0,0.0,0.0,0.0,0.0,0.0,0.0,0.0,0.0,0.0,0.4595,0.4454,0.4363,0.4363,0.4363,0.4363,0.4363,0.4344,0.4431,0.4593,0.5133,0.5613,0.0,0.0,0.0,0.0,0.0,0.0,0.0,0.0,0.0,0.0,0.0,0.0,0.0,0.0,0.0,0.0,0.0,0.0,0.0,0.0,0.0,0.0,0.0,0.0,0.0,0.0,0.0,0.0,0.0,0.0,0.0,0.0,1.1076,1.1021,0.0,0.0,0.0,0.0,0.0,0.0,0.0,0.0,0.0,0.0,0.0,0.0,0.0,0.0,0.7212,0.6705,0.6222,0.5825,0.5844,0.5587,0.5136,0.5153,0.5123,0.5043,0.5163,0.0,0.5461,0.5535,0.0,0.0,0.0,0.0,0.0,0.0,0.0,0.0,0.0,0.0,0.0,0.0,0.0,0.0,0.0,0.0,0.0,0.0,0.0,0.0,0.0,0.0,0.5756,0.4764,0.45,0.45,0.0,0.5226,0.5888,0.5888,0.0,0.0,0.0,0.0,0.0,0.0,0.0,0.0,0.4662,0.4651,0.4643,0.4643,0.4643,0.4643,0.4643,0.4545,0.4553,0.4691,0.472,0.5087,0.5906,0.6822,0.0,0.0,0.0,0.0,0.0,0.0,0.0,0.0,0.0,0.0,0.0,0.0,0.0,0.0,0.0,0.0,0.0,0.0,0.0,0.0,0.0,0.0,0.0,0.0,0.0,0.0,0.0,0.0,0.0,1.1226,1.078,1.0218,1.0091,0.9869,0.0,0.0,0.0,0.0,0.0,0.0,0.0,0.0,0.0,0.8329,0.8043,0.7831,0.7626,0.6984,0.645,0.5983,0.5626,0.5348,0.5113,0.5184,0.5216,0.5216,0.5216,0.5274,0.5397,0.5553,0.5938,0.6451,0.0,0.0,0.0,0.0,0.0,0.7832,0.7964,0.0,0.0,0.0,0.0,0.0,0.0,0.0,0.0,0.0,0.0,0.0,0.0,0.0,0.0,0.4708,0.4534,0.4534,0.4534,0.4879,0.5183,0.0,0.512,0.5218,0.5196,0.0,0.0,0.0,0.0,0.0,0.4746,0.4731,0.469,0.469,0.469,0.469,0.469,0.464,0.4643,0.4681,0.4599,0.4764,0.5203,0.6221,0.7018,0.0,0.0,0.0,0.0,0.0,0.0,0.0,0.0,0.0,0.0,0.0,0.0,0.0,0.0,0.0,0.0,0.0,0.0,0.0,0.0,0.0,0.0,0.0,0.0,0.0,0.0,0.0,0.0,1.1069,1.0521,0.9805,0.9713,0.9465,0.0,0.0,0.0,0.0,0.0,0.0,0.8896,0.8916,0.8866,0.8774,0.8681,0.8482,0.8145,0.7556,0.7079,0.6716,0.604,0.5751,0.5754,0.5638,0.5594,0.5594,0.5594,0.5594,0.5572,0.567,0.5768,0.5956,0.6276,0.6461,0.6599,0.6701,0.7064,0.7508,0.7697,0.7997,0.8311,0.8255,0.0,0.815,0.8402,0.0,0.0,0.0,0.0,0.7264,0.6591,0.6018,0.548,0.487,0.469,0.469,0.469,0.4714,0.4673,0.0,0.4569,0.4668,0.4575,0.0,0.0,0.0,0.0,0.4779,0.4831,0.4803,0.4783,0.4783,0.4783,0.4783,0.4783,0.4753,0.4736,0.4736,0.4618,0.4658,0.4938,0.5789,0.6564,0.7259,0.0,0.0,0.0,0.0,0.0,0.0,0.0,0.0,0.0,0.0,0.0,0.0,0.0,0.0,0.0,0.0,0.0,0.0,0.0,0.0,0.0,0.0,0.0,0.0,0.0,0.0,0.0,0.0,0.0,1.0269,0.9753,0.0,0.0,0.0,0.0,0.9462,0.8991,0.8704,0.8723,0.8723,0.8784,0.8962,0.8626,0.8563,0.8831,0.8439,0.8288,0.8394,0.7572,0.7209,0.716,0.642,0.6048,0.6048,0.6048,0.6048,0.6013,0.5588,0.5761,0.6293,0.6287,0.6654,0.7263,0.7955,0.8196,0.8318,0.8973,0.9094,0.8944,0.8737,0.8401,0.8115,0.8115,0.8115,0.0,0.0,0.808,0.7797,0.6694,0.6376,0.6054,0.4976,0.469,0.469,0.469,0.4743,0.4787,0.0,0.4681,0.4725,0.4758,0.0,0.4828,0.4988,0.5004,0.5002,0.5007,0.5004,0.4999,0.4999,0.4999,0.4999,0.4999,0.4855,0.4787,0.4787,0.4711,0.4964,0.5535,0.5738,0.634,0.7478,0.7683,0.0,0.0,0.0,0.0,0.0,0.0,0.0,0.0,0.0,0.0,0.0,0.0,0.0,0.0,0.0,0.0,0.0,0.0,0.0,0.0,0.0,0.0,0.0,0.0,0.0,0.0,0.0,0.0,1.0134,0.9717,0.0,0.0,0.9252,0.9331,0.9861,0.962,0.9591,0.9917,1.0055,1.01,1.0012,0.9911,0.9884,0.9981,0.9363,0.9107,0.9118,0.7912,0.7308,0.7261,0.6464,0.6086,0.6133,0.6649,0.6885,0.6917,0.7262,0.6905,0.6226,0.6627,0.6883,0.7046,0.7712,0.8147,0.8418,0.8628,0.891,0.9164,0.9129,0.9001,0.8878,0.8878,0.8878,0.8878,0.8878,0.8606,0.8099,0.7277,0.6727,0.6153,0.5246,0.5035,0.5013,0.4904,0.4923,0.4939,0.4896,0.4887,0.4876,0.4801,0.4863,0.4928,0.501,0.5018,0.5018,0.5018,0.5018,0.5018,0.5018,0.5018,0.5018,0.5018,0.4938,0.4914,0.4914,0.4838,0.4842,0.5064,0.5796,0.6406,0.6911,0.7688,0.8382,0.0,0.0,0.0,0.0,0.0,0.0,0.0,0.0,0.0,0.0,0.0,0.0,0.0,0.0,0.0,0.0,0.0,0.0,0.0,0.0,0.0,0.0,0.0,0.0,0.0,0.0,1.0237,1.0166,0.9903,0.9674,0.9635,0.9641,0.9862,1.0326,1.0223,1.0264,1.0598,1.0746,1.0752,1.0616,1.0692,1.0683,1.0683,1.0274,1.0065,1.0065,0.8787,0.8218,0.817,0.7113,0.6732,0.702,0.7305,0.7548,0.7835,0.8402,0.7972,0.7047,0.7423,0.7507,0.7448,0.8143,0.8554,0.879,0.8985,0.9256,0.9526,0.9413,0.9343,0.9282,0.9282,0.9282,0.9282,0.9282,0.8996,0.8541,0.7926,0.739,0.6829,0.5837,0.5612,0.5508,0.5191,0.5135,0.5135,0.5135,0.5072,0.4952,0.4871,0.4925,0.5018,0.5018,0.5018,0.5018,0.5018,0.5018,0.5018,0.5018,0.5018,0.5018,0.5018,0.5018,0.5018,0.5018,0.5092,0.5272,0.5497,0.614,0.6726,0.721,0.7937,0.8469,0.875,0.0,0.0,0.0,0.0,0.0,0.0,0.0,0.0,0.0,0.0,0.0,0.0,0.0,0.0,0.0,0.0,0.0,0.0,0.0,0.0,0.0,0.0,0.0,1.1416,1.0665,1.0262,1.0492,1.0285,1.0208,1.0486,1.0546,1.068,1.0885,1.074,1.063,1.063,1.0635,1.064,1.064,1.0797,1.0905,1.0905,1.1094,1.1184,1.1184,1.0346,1.0002,0.9953,0.8361,0.8064,0.8761,0.7968,0.812,0.8817,0.8871,0.8871,0.8841,0.861,0.8528,0.8613,0.9313,0.9545,0.9608,1.0121,1.0189,0.998,0.9696,0.9489,0.9324,0.9324,0.9319,0.9315,0.9315,0.9305,0.9178,0.8563,0.8399,0.8065,0.674,0.645,0.6242,0.5618,0.5452,0.5452,0.5452,0.5184,0.5026,0.5023,0.5023,0.5021,0.5018,0.5018,0.0,0.5018,0.5018,0.5018,0.5018,0.5018,0.5018,0.5018,0.5018,0.5015,0.5015,0.5595,0.6209,0.6865,0.6783,0.7253,0.8364,0.8339,0.8316,0.8316,0.0,0.0,0.0,0.0,0.0,0.0,0.0,0.0,0.0,0.0,0.0,0.0,0.0,0.0,0.0,0.0,0.0,0.0,0.0,0.0,0.0,0.0,1.2088,1.1907,1.1024,1.0447,1.0575,1.0511,1.0487,1.0553,1.0605,1.0611,1.0668,1.0782,1.0806,1.0806,1.0948,1.1023,1.1023,1.1085,1.1113,1.1113,1.1023,1.0976,1.0976,1.0014,0.957,0.9523,0.8515,0.8134,0.8379,0.8879,0.9227,0.9526,1.0249,1.0551,1.0493,0.9852,0.9485,0.9461,1.0229,1.0421,1.0329,1.0462,1.0497,1.0441,1.0334,1.0277,1.023,1.023,1.013,1.0012,1.0012,0.9899,0.9648,0.8957,0.8781,0.8533,0.7562,0.7324,0.7249,0.6964,0.6484,0.6111,0.6111,0.5685,0.5243,0.5156,0.514,0.511,0.5029,0.5018,0.0,0.5018,0.5018,0.5018,0.5018,0.5018,0.5018,0.5018,0.5401,0.567,0.0,0.6247,0.671,0.6899,0.7275,0.7793,0.8406,0.8492,0.8518,0.0,0.0,0.0,0.0,0.0,0.0,0.0,0.0,0.0,0.0,0.0,0.0,0.0,0.0,0.0,0.0,0.0,0.0,0.0,0.0,0.0,0.0,1.3389,1.293,1.2477,1.1183,1.0381,1.0568,1.0622,1.0619,1.0725,1.0707,1.074,1.0825,1.0872,1.0896,1.0896,1.092,1.0934,1.0934,1.0934,1.0934,1.0934,1.091,1.0896,1.0896,1.0378,1.017,1.0122,0.9307,0.9116,0.0,0.9707,0.9995,1.0391,1.0947,1.1194,0.0,0.0,0.0,0.0,0.0,1.0943,1.082,1.0735,1.0707,1.0693,1.0649,1.0621,1.0621,1.0621,1.0535,1.0445,1.0445,1.0355,1.0166,0.971,0.962,0.9393,0.8548,0.8333,0.8198,0.7719,0.73,0.7002,0.7002,0.0,0.0,0.6268,0.5706,0.5241,0.5175,0.5121,0.5089,0.5089,0.5241,0.5287,0.5015,0.5479,0.5673,0.5401,0.5938,0.0,0.0,0.0,0.7399,0.7629,0.7974,0.0,0.0,0.0,0.8509,0.8504,0.0,0.0,0.0,0.8951,0.9119,0.0,0.0,0.0,0.0,0.0,0.0,0.0,0.0,0.0,0.0,0.0,0.0,0.0,0.0,0.0,0.0,1.4446,1.3861,1.3022,1.1309,1.0241,1.0611,1.0612,1.0683,1.0877,1.0896,1.0962,1.1113,1.0962,1.0858,1.0858,0.0,0.0,0.0,0.0,1.0702,1.0679,1.0849,1.0943,1.0967,1.1123,1.1194,1.1198,1.0458,1.0511,1.1145,1.0462,1.0556,1.1194,1.1194,1.1194,1.1194,1.1194,1.1194,1.1194,1.1194,1.1194,0.0,0.0,0.0,0.0,1.0754,1.0687,1.0687,1.0687,1.0627,1.0612,1.0612,1.064,1.0621,1.0621,1.0621,1.0389,0.9568,0.9347,0.9116,0.8278,0.8051,0.7948,0.7948,0.7889,0.7789,0.7741,0.6483,0.551,0.5496,0.5399,0.5327,0.5327,0.5735,0.5847,0.5308,0.0,0.0,0.6054,0.663,0.7019,0.7019,0.7553,0.8127,0.8661,0.8703,0.8703,0.8703,0.8529,0.8439,0.8434,0.8222,0.8295,0.8573,0.8825,0.8955,0.0,0.0,0.0,0.0,0.0,0.0,0.0,0.0,0.0,0.0,0.0,0.0,0.0,0.0,0.0,1.5223,1.4133,1.3334,1.358,1.1951,1.0745,1.0825,1.0834,1.0849,1.0891,1.0896,1.0839,1.0749,1.066,1.0683,1.0683,1.0764,0.0,1.0834,1.099,1.1156,1.1335,1.1203,1.1227,1.1397,0.0,0.0,1.1194,1.1047,1.1047,1.1194,1.1047,1.1051,1.1194,1.1194,1.1194,1.1194,1.1194,1.1194,1.1194,1.1194,1.1194,1.1189,1.1151,1.1137,1.1132,1.109,1.1075,1.1075,1.1075,1.0962,0.0,1.0834,1.0707,1.0621,1.0621,1.0621,1.0565,1.0384,1.0329,1.0269,1.009,0.9455,0.8943,0.8943,0.8327,0.7779,0.7793,0.7013,0.6326,0.6213,0.6172,0.6153,0.6153,0.6633,0.6896,0.6777,0.6861,0.6865,0.671,0.7284,0.7629,0.7629,0.8203,0.8589,0.8703,0.8703,0.8703,0.8703,0.8666,0.8642,0.8642,0.8439,0.8376,0.8444,0.8609,0.873,0.0,0.0,0.0,0.0,0.0,0.0,0.0,0.0,0.0,0.0,0.0,1.4558,1.4766,0.0,1.525,1.5621,1.4825,1.4068,1.3827,1.257,1.1457,1.0944,1.0896,1.0853,1.0745,1.0735,1.0735,1.0735,1.0683,1.0622,1.0731,1.0834,1.0896,1.0896,1.109,1.1246,1.1354,1.1354,1.1411,1.152,1.151,1.1505,1.1505,1.1505,1.1505,1.1505,1.1505,1.1505,1.1501,1.1397,1.1354,1.1345,1.1236,1.1194,1.1194,1.1194,1.1194,1.1194,1.1194,1.1194,1.1194,1.1194,1.1194,1.1194,1.1194,1.1127,1.1047,1.1047,1.0967,1.0886,1.0886,1.0886,1.0858,1.0759,1.0735,1.0707,1.064,1.0214,0.9912,0.9912,0.9435,0.9034,0.9034,0.8309,0.7606,0.7179,0.7063,0.7059,0.7059,0.7491,0.7672,0.7388,0.772,0.7809,0.7536,0.7953,0.8241,0.8241,0.8551,0.8703,0.8703,0.8703,0.8703,0.8703,0.8703,0.8703,0.8703,0.86,0.8552,0.8548,0.8628,0.8657,0.0,0.0,0.0,0.0,0.0,0.0,0.0,0.0,1.4834,1.4539,1.47,1.4942,1.5072,1.5352,1.5716,1.6045,1.5469,1.4751,1.3963,1.2852,1.18,1.0877,1.0811,1.0764,1.0635,1.0621,1.0692,1.082,1.0712,1.0712,1.0886,1.0972,1.1019,1.1019,1.1212,1.1335,1.1378,1.1553,1.1657,1.1699,1.186,1.194,1.194,1.194,1.194,1.1883,1.1898,1.1855,1.1803,1.1642,1.1576,1.1557,1.1383,1.1293,1.125,1.1208,1.1194,1.1194,1.1194,1.1194,1.1194,1.1194,1.1194,1.1194,1.1194,1.1194,1.1194,1.1194,1.1194,1.1194,1.1194,1.1194,1.1156,1.0995,1.0953,1.0905,1.0731,1.0711,1.0683,1.0683,1.0516,1.0379,1.0379,0.9705,0.8888,0.8145,0.7989,0.7947,0.7947,0.8342,0.8437,0.794,0.8595,0.8825,0.8312,0.8551,0.8703,0.8703,0.8703,0.8703,0.8703,0.8703,0.8703,0.8703,0.8703,0.8703,0.8703,0.8703,0.8703,0.8703,0.8703,0.8649,1.7799,1.6966,1.5813,1.5369,1.5274,1.5279,0.0,0.0,1.5304,1.5202,1.5397,1.5609,1.5745,1.606,1.6419,1.6741,1.518,1.3963,1.3975,1.2299,1.09,1.0431,1.0499,1.0598,1.0621,1.0621,1.063,1.0608,1.0764,1.0872,1.0891,1.1246,1.1449,1.1449,1.1642,1.1841,1.1982,1.2006,1.2104,1.2283,1.2307,1.2316,1.2316,1.2316,1.2316,1.2307,1.2128,1.1997,1.1813,1.1794,1.1784,1.1784,1.1756,1.1638,1.1458,1.1269,1.1194,1.1194,1.1194,1.1194,1.1194,1.1194,1.1194,1.1194,1.1194,1.1194,1.1194,1.1194,1.1194,1.1194,1.1194,1.1194,1.1189,1.1165,1.1161,1.1156,1.1132,1.0986,1.0858,1.0858,1.0688,1.0588,1.0588,1.0326,0.9812,0.8915,0.8786,0.8773,0.8773,0.9175,0.9442,0.9358,0.9293,0.9178,0.892,0.8788,0.8703,0.8703,0.8703,0.8703,0.8703,0.8703,0.8703,0.8703,0.8703,0.8703,0.8703,0.8703,0.8703,0.8703,0.8703,0.8618,1.635,1.606,0.0,0.0,1.5339,1.5294,1.5196,1.5217,1.5334,1.5505,1.5676,1.5882,1.6118,1.6477,1.6741,0.0,1.5226,1.3928,1.3981,1.2129,1.0641,1.0466,1.0569,1.0527,1.0455,1.055,1.0721,1.0915,1.1019,1.1175,1.142,1.1667,1.1827,1.1827,1.2024,1.217,1.226,1.226,1.2302,1.2387,1.2387,1.2387,1.2387,1.2387,1.2387,1.2382,1.2297,1.2208,1.2118,1.2001,1.1954,1.194,1.1869,1.1765,1.1666,1.1458,1.1302,1.1194,1.1194,1.1194,1.1194,1.1194,1.1194,1.1194,1.1194,1.1194,1.1194,1.1194,1.1194,1.1194,1.1194,1.1194,1.1194,1.1194,1.1194,1.1194,1.1194,1.1132,1.1071,1.1071,1.0905,1.0764,1.0764,1.0589,1.0285,0.9807,0.9631,0.955,0.955,0.9702,0.9776,0.9616,0.9522,0.9385,0.9173,0.9011,0.8888,0.8888,0.877,0.8703,0.8703,0.8703,0.8703,0.8703,0.8703,0.8703,0.8703,0.8703,0.8703,0.8703,0.8703,0.8656,1.5729,0.0,0.0,1.5692,1.5568,1.5521,1.5395,1.5478,1.5625,1.5781,1.6048,1.633,1.6507,1.6815,0.0,1.6653,1.5147,1.3857,1.3553,1.1816,1.0597,1.0499,1.064,1.0654,1.0461,1.0627,1.0896,1.1255,1.1392,1.159,1.1888,1.2053,1.217,1.217,1.2311,1.2387,1.2387,1.2387,1.2387,1.2387,1.2387,1.2387,1.2387,1.2387,1.2387,1.2387,1.2387,1.2387,1.2372,1.2227,1.217,1.2156,1.1996,1.1954,1.1888,1.1742,1.152,1.1274,1.1217,1.1194,1.1194,1.1194,1.1194,1.1194,1.1194,1.1194,1.1194,1.1194,1.1194,1.1194,1.1194,1.1194,1.1194,1.1194,1.1194,1.1194,1.1194,1.1194,1.1194,1.1194,1.1075,1.0976,1.0976,1.0801,1.0612,1.0466,1.026,1.0061,1.0004,0.9994,0.9937,0.9743,0.9635,0.954,0.9385,0.9183,0.9046,0.8985,0.8878,0.8765,0.8703,0.8703,0.8703,0.8703,0.8703,0.8703,0.8703,0.8703,0.8703,0.8703,0.8703,0.8703,0.0,0.0,1.6682,1.626,1.6047,1.5981,1.6293,1.6476,1.6483,1.6219,1.6698,1.7108,1.6934,1.7099,1.6976,1.5974,1.4797,1.3559,1.234,1.1257,1.0545,1.035,1.0641,1.0882,0.0,1.1057,1.1269,1.1491,1.1831,1.2067,1.2076,1.2269,1.2372,1.2372,1.2382,1.2387,1.2387,1.2387,1.2387,1.2387,1.2387,1.2387,1.2387,1.2387,1.2387,1.2387,1.2387,1.2387,1.2387,1.2377,1.2372,1.2372,1.2368,1.225,1.2076,1.2071,1.1808,1.1477,1.1269,1.1194,1.1194,1.1194,1.1194,1.1194,1.1194,1.1194,1.1194,1.1194,1.1194,1.1194,1.1194,1.1194,1.1194,1.1194,1.1194,1.1194,1.1194,1.1194,1.1194,1.1194,1.1189,1.1184,1.1184,1.1019,1.0882,1.0877,1.0527,1.0232,1.0023,0.9994,0.9994,0.9985,0.9767,0.9602,0.9592,0.9395,0.9192,0.8995,0.8981,0.8921,0.8708,0.8703,0.8703,0.8703,0.8703,0.8703,0.8703,0.8703,0.8703,0.8703,0.8703,0.8703,0.0,0.0,1.6437,1.5988,1.5989,1.6103,1.6055,1.6288,1.6491,1.6618,1.6839,1.7014,1.7128,1.6685,1.6162,1.5691,1.397,1.2573,1.2169,1.1206,1.0598,1.0679,1.0929,0.0,0.0,0.0,0.0,1.1699,1.1926,1.2142,1.2278,1.2349,1.2387,1.2387,1.2387,1.2387,1.2387,1.2387,1.2387,1.2387,1.2387,1.2387,1.2387,1.2387,1.2387,1.2387,1.2387,1.2387,1.2387,1.2387,1.2387,1.2387,1.2387,1.2344,1.2269,1.2137,1.1996,1.1827,1.1529,1.1411,1.1387,1.1241,1.1194,1.1194,1.1194,1.1194,1.1194,1.1194,1.1194,1.1194,1.1194,1.1194,1.1194,1.1194,1.1194,1.1194,1.1194,1.1194,1.1194,1.1194,1.1194,1.1194,1.1194,1.1142,1.1052,1.0915,1.0542,1.0241,1.0023,0.9994,0.9994,0.9994,0.9933,0.9852,0.9852,0.9658,0.947,0.9399,0.9263,0.919,0.9115,0.8987,0.8916,0.8916,0.8774,0.8703,0.8703,0.8703,0.8703,0.8703,0.8703,0.8703,1.6123,1.6279,1.6466,1.6175,1.6246,1.6314,1.6226,1.6404,1.6646,1.6859,1.6991,1.7091,1.7289,1.6756,1.6135,1.551,1.4237,1.2992,1.2175,1.16,1.1157,1.0925,1.1071,0.0,0.0,0.0,0.0,1.1808,1.2029,1.225,1.2377,1.2387,1.2387,1.2387,1.2387,1.2387,1.2387,1.2387,1.2387,1.2387,1.2387,1.2387,1.2387,1.2387,1.2387,1.2387,1.2387,1.2387,1.2387,1.2387,1.2387,1.2387,1.2387,1.2387,1.2368,1.2241,1.2194,1.2133,1.177,1.1576,1.1496,1.1354,1.1255,1.1194,1.1194,1.1194,1.1194,1.1194,1.1194,1.1194,1.1194,1.1194,1.1194,1.1194,1.1194,1.1194,1.1194,1.1194,1.1194,1.1194,1.1194,1.1194,1.1194,1.1194,1.1127,1.0924,1.0669,1.0436,1.0146,1.0042,0.9994,0.9994,0.9994,0.9994,0.9994,0.9833,0.9682,0.9611,0.9475,0.9362,0.9286,0.9159,0.9094,0.9094,0.8996,0.8921,0.8921,0.8921,0.8921,0.8921,0.8921,0.8921,1.65,1.6549,1.6718,1.6853,1.6749,1.6642,1.669,1.6832,1.6925,1.6925,1.7121,1.7279,0.0,0.0,1.6789,1.5522,1.5311,1.453,1.2202,1.2144,1.1973,0.0,0.0,0.0,0.0,0.0,0.0,1.1831,0.0,1.2387,1.2387,1.2387,1.2387,1.2387,1.2387,1.2387,1.2387,1.2387,1.2387,1.2387,1.2387,1.2387,1.2387,1.2387,1.2387,1.2387,1.2387,1.2387,1.2387,1.2387,1.2387,1.2387,1.2387,1.2387,1.2387,1.2387,1.2387,1.233,1.1987,1.1718,1.1543,1.1524,1.1378,1.1208,1.1198,1.1194,1.1194,1.1194,1.1194,1.1194,1.1194,1.1194,1.1194,1.1194,1.1194,1.1194,1.1194,1.1194,1.1194,1.1194,1.1194,1.1194,1.1194,1.1194,1.1132,1.0938,1.0905,1.0745,1.0329,1.0137,1.0009,0.9994,0.9994,0.9994,0.9994,0.9994,0.9909,0.963,0.962,0.9526,0.9365,0.9305,0.9301,0.9301,0.9286,0.9282,0.9282,0.9282,0.9282,0.9282,0.9282,0.9282,1.6755,1.6825,1.6869,1.683,1.6927,1.6996,1.6899,1.702,1.7208,1.7208,1.7274,1.7279,0.0,0.0,0.0,1.5214,1.4025,0.0,1.2019,1.1547,0.0,0.0,0.0,1.1279,1.1496,1.1699,0.0,0.0,1.2241,1.2387,1.2387,1.2387,1.2387,1.2387,1.2387,1.2387,1.2387,1.2387,1.2387,1.2387,1.2387,1.2387,1.2387,1.2387,1.2387,1.2387,1.2387,1.2387,1.2387,1.2387,1.2387,1.2387,1.2387,1.2387,1.2387,1.2387,1.2387,1.2368,1.2264,1.2095,1.1878,1.1619,1.1482,1.1406,1.1246,1.1194,1.1194,1.1194,1.1194,1.1194,1.1194,1.1194,1.1194,1.1194,1.1194,1.1194,1.1194,1.1194,1.1194,1.1194,1.1194,1.1194,1.1194,1.1194,1.1179,1.1127,1.099,1.0745,1.0329,1.027,1.0175,1.0013,0.9994,0.9994,0.9994,0.9994,0.9971,0.9919,0.9914,0.989,0.9838,0.9644,0.9522,0.9522,0.9366,0.9282,0.9282,0.9282,0.9282,0.9282,0.9282,0.9282,1.6999,1.7093,1.7091,1.7142,1.7266,1.7304,1.7125,1.7201,1.7279,1.7279,1.7279,0.0,0.0,0.0,0.0,0.0,0.0,0.0,1.2905,1.2529,1.2112,0.0,1.1194,0.0,1.1619,1.1751,1.1945,0.0,1.2321,1.2387,1.2387,1.2387,1.2387,1.2387,1.2387,1.2387,1.2387,1.2387,1.2387,1.2387,1.2387,1.2387,1.2387,1.2387,1.2387,1.2387,0.0,1.2387,1.2387,1.2387,1.2387,1.2387,1.2387,1.2387,1.2387,1.2387,1.2387,1.2387,1.2387,1.2311,1.2165,1.1846,1.1615,1.1496,1.1373,1.1269,1.1194,1.1194,1.1194,1.1194,1.1194,1.1194,1.1194,1.1194,1.1194,1.1194,1.1194,1.1194,1.1194,1.1194,1.1194,1.1194,1.1194,1.1194,1.1194,1.1194,1.1099,1.091,1.0589,1.039,1.027,1.0151,1.0051,0.9994,0.9994,0.9994,0.9994,0.9994,0.9994,0.9994,0.9994,0.9842,0.9781,0.9781,0.9663,0.9601,0.9601,0.9601,0.9601,0.9601,0.9601,0.9601,1.7231,1.7392,1.7423,1.7663,1.7689,1.7629,1.7407,1.7326,1.7279,1.7279,0.0,1.7279,1.7279,0.0,1.7223,1.6954,0.0,1.6308,1.4092,1.3957,1.3355,1.1438,1.1194,1.1359,1.1779,1.1817,1.1992,1.2354,1.2387,1.2387,1.2387,1.2387,1.2387,1.2387,1.2387,1.2387,1.2387,1.2387,1.2387,1.2387,1.2387,1.2387,1.2387,1.2387,1.2387,1.2387,0.0,0.0,1.2387,1.2387,1.2387,1.2387,1.2387,1.2387,1.2387,1.2387,1.2387,1.2387,1.2387,1.2387,1.2354,1.2151,1.1846,1.1595,1.1567,1.1411,1.1236,1.1236,1.1217,1.1194,1.1194,1.1194,1.1194,1.1194,1.1194,1.1194,1.1194,1.1194,1.1194,1.1194,1.1194,1.1194,1.1194,1.1194,1.1194,1.1194,1.1194,1.1132,1.0957,1.0598,1.0393,1.036,1.0165,1.0037,1.0037,1.0013,0.9994,0.9994,0.9994,0.9994,0.9994,0.9994,0.9994,0.9994,0.9994,0.9994,0.9994,0.9994,0.9994,0.9994,0.9994,0.9994,1.7517,1.7727,1.7814,1.8254,1.8195,1.7972,1.7707,1.7481,0.0,0.0,0.0,1.7279,1.7279,1.7279,0.0,1.6954,0.0,0.0,0.0,0.0,1.2538,0.0,0.0,0.0,0.0,0.0,0.0,0.0,0.0,0.0,1.2387,1.2387,1.2387,1.2387,1.2387,1.2387,1.2387,1.2387,1.2387,1.2387,1.2387,1.2387,1.2387,1.2387,1.2387,1.2387,0.0,0.0,1.2387,1.2387,1.2387,1.2387,1.2387,1.2387,1.2387,1.2387,1.2387,1.2387,1.2387,1.2387,1.2354,1.2151,1.2038,1.1944,1.1817,1.1624,1.1463,1.1463,1.1335,1.1194,1.1194,1.1194,1.1194,1.1194,1.1194,1.1194,1.1194,1.1194,1.1194,1.1194,1.1194,1.1194,1.1194,1.1194,1.1194,1.1194,1.1194,1.1184,1.1146,1.0934,1.0721,1.0588,1.0384,1.026,1.026,1.0099,0.9994,0.9994,0.9994,0.9994,0.9994,0.9994,0.9994,0.9994,0.9994,0.9994,0.9994,0.9994,0.9994,0.9994,0.9994,0.9994,1.7374,1.7687,1.7854,1.8114,1.8149,1.804,1.7768,0.0,0.0,0.0,0.0,1.6879,1.7055,0.0,0.0,0.0,0.0,0.0,0.0,0.0,0.0,0.0,0.0,0.0,0.0,0.0,0.0,0.0,0.0,0.0,1.2387,1.2387,1.2387,1.2387,1.2387,1.2387,1.2387,1.2387,1.2387,1.2387,1.2387,1.2387,1.2387,1.2387,1.2387,1.2387,1.2387,0.0,1.2387,1.2387,1.2387,1.2387,1.2387,1.2387,1.2387,1.2387,1.2387,1.2387,1.2387,1.2387,1.2368,1.2274,1.217,1.2067,1.2016,1.1841,1.1652,1.1548,1.1444,1.1335,1.1227,1.1194,1.1194,1.1194,1.1194,1.1194,1.1194,1.1194,1.1194,1.1194,1.1194,1.1194,1.1194,1.1194,1.1194,1.1194,1.1194,1.1194,1.1194,1.1109,1.0972,1.0764,1.0602,1.0431,1.0327,1.0222,1.0113,1.0004,0.9994,0.9994,0.9994,0.9994,0.9994,0.9994,0.9994,0.9994,0.9994,0.9994,0.9994,0.9994,0.9994,0.9994,1.7183,1.7512,1.7704,1.7838,1.7955,1.7964,1.7658,1.7271,0.0,0.0,1.6587,1.6492,1.6749,0.0,0.0,0.0,0.0,0.0,0.0,0.0,0.0,0.0,0.0,0.0,0.0,0.0,0.0,0.0,0.0,0.0,1.2387,1.2387,1.2387,1.2387,1.2387,1.2387,1.2387,1.2387,1.2387,1.2387,1.2387,1.2387,1.2387,1.2387,1.2387,1.2387,1.2387,0.0,0.0,1.2387,1.2387,1.2387,1.2387,1.2387,1.2387,1.2387,1.2387,1.2387,1.2387,1.2387,1.2387,1.2387,1.2278,1.2151,1.2151,1.2001,1.1855,1.1694,1.1586,1.1477,1.1312,1.1231,1.1194,1.1194,1.1194,1.1194,1.1194,1.1194,1.1194,1.1194,1.1194,1.1194,1.1194,1.1194,1.1194,1.1194,1.1194,1.1194,1.1194,1.1194,1.1137,1.0976,1.0768,1.0579,1.0419,1.0407,1.0293,1.0075,1.0066,1.0042,0.9999,0.9994,0.9994,0.9994,0.9994,0.9994,0.9994,0.9994,0.9994,0.9994,0.9994,1.0038,1.7183,1.7302,1.7405,1.7739,1.7867,1.7778,1.7276,0.0,0.0,1.6566,1.6433,1.6419,1.6455,1.6697,1.691,0.0,0.0,0.0,0.0,0.0,0.0,0.0,0.0,0.0,0.0,0.0,0.0,0.0,0.0,0.0,0.0,1.2387,1.2387,1.2387,1.2387,1.2387,1.2387,1.2387,1.2387,1.2387,1.2387,1.2387,1.2387,1.2387,1.2387,1.2387,0.0,0.0,0.0,1.2387,1.2387,1.2387,1.2387,1.2387,1.2387,1.2387,1.2387,1.2387,1.2387,1.2387,1.2387,1.2387,1.2372,1.2358,1.2358,1.2217,1.2053,1.2034,1.1756,1.1515,1.1491,1.134,1.1194,1.1194,1.1194,1.1194,1.1194,1.1194,1.1194,1.1194,1.1194,1.1194,1.1194,1.1194,1.1194,1.1194,1.1194,1.1194,1.1194,1.1194,1.1189,1.117,1.0986,1.0858,1.0839,1.066,1.0502,1.0303,1.0289,1.0203,1.0004,0.9994,0.9994,0.9994,0.9994,0.9994,0.9994,0.9994,0.9994,0.9994,0.9994,1.0207,1.6913,1.7111,1.731,1.748,1.7557,1.7557,1.7329,0.0,0.0,1.6321,1.6021,1.5862,1.606,1.6352,1.6675,0.0,0.0,0.0,0.0,0.0,0.0,0.0,0.0,0.0,0.0,0.0,0.0,0.0,0.0,0.0,0.0,1.2387,1.2387,1.2387,1.2387,1.2387,1.2387,1.2387,1.2387,1.2387,1.2387,1.2387,1.2387,1.2387,1.2387,1.2387,0.0,0.0,0.0,1.2387,1.2387,1.2387,1.2387,1.2387,1.2387,1.2387,1.2387,1.2387,1.2387,1.2387,1.2387,1.2387,1.2387,1.2387,1.2387,1.233,1.2241,1.2123,1.1968,1.1836,1.1581,1.1354,1.1194,1.1194,1.1194,1.1194,1.1194,1.1194,1.1194,1.1194,1.1194,1.1194,1.1194,1.1194,1.1194,1.1194,1.1194,1.1194,1.1194,1.1194,1.1194,1.1194,1.1123,1.1028,1.0905,1.0816,1.0679,1.0466,1.0497,1.046,1.0374,1.0255,1.0189,1.0189,1.0061,0.9994,0.9994,0.9994,0.9994,0.9999,1.0127,1.0278,1.6689,1.6921,1.7119,1.7119,1.7254,1.7302,0.0,0.0,1.6332,1.6107,1.5738,1.5538,1.5731,1.6096,1.6492,1.6719,0.0,1.6943,0.0,0.0,0.0,0.0,0.0,0.0,0.0,0.0,0.0,0.0,0.0,0.0,0.0,1.2387,1.2387,1.2387,1.2387,1.2387,1.2387,1.2387,1.2387,1.2387,1.2387,1.2387,1.2387,1.2387,1.2387,1.2387,0.0,0.0,0.0,1.2387,1.2387,1.2387,1.2387,1.2387,1.2387,1.2387,1.2387,1.2387,1.2387,1.2387,1.2387,1.2387,1.2387,1.2387,1.2387,1.2387,1.2354,1.2212,1.2133,1.1991,1.1577,1.1401,1.1274,1.1208,1.1194,1.1194,1.1194,1.1194,1.1194,1.1194,1.1194,1.1194,1.1194,1.1194,1.1194,1.1194,1.1194,1.1194,1.1194,1.1194,1.1194,1.1194,1.1194,1.1137,1.0995,1.0981,1.0891,1.0683,1.0669,1.0641,1.0621,1.0438,1.0407,1.0407,1.0255,1.018,1.018,1.018,1.018,1.0184,1.0471,1.0769,1.6689,1.6697,1.6697,1.6697,1.7016,1.7141,0.0,0.0,1.6688,1.585,1.5699,1.5658,1.5431,1.595,1.6411,1.6419,1.6916,0.0,0.0,0.0,0.0,0.0,0.0,0.0,0.0,0.0,0.0,0.0,0.0,0.0,0.0,1.2387,1.2387,1.2387,1.2387,1.2387,1.2387,1.2387,1.2387,1.2387,1.2387,1.2387,1.2387,1.2387,1.2387,0.0,0.0,0.0,0.0,1.2387,1.2387,1.2387,1.2387,1.2387,1.2387,1.2387,1.2387,1.2387,1.2387,1.2387,1.2387,1.2387,1.2387,1.2387,1.2387,1.2387,1.2387,1.2382,1.2236,1.1991,1.1577,1.1515,1.1463,1.1246,1.1194,1.1194,1.1194,1.1194,1.1194,1.1194,1.1194,1.1194,1.1194,1.1194,1.1194,1.1194,1.1194,1.1194,1.1194,1.1194,1.1194,1.1194,1.1194,1.1194,1.1194,1.1194,1.1104,1.0905,1.0891,1.0797,1.063,1.0616,1.0616,1.0616,1.057,1.0611,1.0611,1.0611,1.0611,1.0611,1.1124,1.1905,1.6689,1.6689,1.6689,1.6689,1.6776,1.6832,1.6631,0.0,1.6443,1.6061,1.5955,1.588,1.5472,1.6072,1.6551,1.6411,1.6908,0.0,0.0,0.0,0.0,0.0,0.0,0.0,0.0,0.0,0.0,0.0,0.0,0.0,0.0,0.0,1.2387,1.2387,1.2387,1.2387,1.2387,1.2387,1.2387,1.2387,1.2387,1.2387,1.2387,1.2387,0.0,0.0,0.0,0.0,0.0,1.2387,1.2387,1.2387,1.2387,1.2387,1.2387,1.2387,1.2387,1.2387,1.2387,1.2659,1.3039,1.3039,1.331,1.363,1.363,1.3034,1.2387,1.2387,1.2241,1.2024,1.1794,1.1619,1.1463,1.1246,1.1194,1.1194,1.1194,1.1194,1.1194,1.1194,1.1194,1.1194,1.1194,1.1194,1.1194,1.1194,1.1194,1.1194,1.1194,1.1194,1.1194,1.1194,1.1194,1.1194,1.1194,1.1194,1.1165,1.1104,1.1099,1.1071,1.1,1.0868,1.0797,1.0797,1.0645,1.0621,1.0621,1.0621,1.0883,1.1363,1.1551,1.2194,0.0,1.6689,1.6689,1.6689,1.6689,0.0,0.0,0.0,1.6443,1.6245,1.6203,1.6079,1.5582,1.6158,1.6639,1.6411,1.6908,0.0,0.0,0.0,0.0,0.0,0.0,0.0,0.0,0.0,0.0,0.0,0.0,0.0,0.0,0.0,1.2387,1.2387,1.2387,1.2387,1.2387,1.2387,1.2387,1.2387,1.2387,1.2387,1.2387,1.2387,0.0,0.0,0.0,0.0,0.0,1.2387,1.2387,1.2387,1.2387,1.255,1.2767,1.2767,1.2767,1.2767,1.298,1.3202,1.3315,1.3581,1.39,1.4223,1.4223,1.3521,1.2713,1.2441,1.2459,1.2472,1.1992,1.1944,1.1834,1.1418,1.1255,1.1194,1.1194,1.1194,1.1194,1.1194,1.1194,1.1194,1.1194,1.1194,1.1194,1.1194,1.1194,1.1194,1.1194,1.1194,1.1194,1.1194,1.1389,1.1443,1.1198,1.1194,1.1194,1.1194,1.1194,1.1194,1.1194,1.1075,1.1106,1.1298,1.121,1.1142,1.1142,1.1142,1.1447,1.2119,1.231,1.2912,0.0,1.6673,1.6689,1.6689,1.6689,1.6689,0.0,0.0,0.0,1.6435,1.6394,1.6278,1.5805,1.6294,1.6647,1.6485,1.6923,0.0,0.0,0.0,0.0,0.0,0.0,0.0,0.0,0.0,0.0,0.0,0.0,0.0,0.0,0.0,1.2387,1.2387,1.2387,1.2387,1.2387,1.2387,1.2387,1.2387,1.2387,1.2387,1.2387,1.2387,0.0,0.0,0.0,0.0,0.0,1.2441,1.2441,1.2491,1.2491,1.2876,1.3369,1.3369,1.3369,1.3423,1.4008,1.3851,1.3532,1.4116,1.4326,1.4326,1.4326,1.3846,1.3207,1.2654,1.2876,1.3156,1.2404,1.2506,1.2541,1.182,1.1449,1.1292,1.1292,1.1247,1.1243,1.1194,1.1194,1.1194,1.1194,1.1194,1.1194,1.1194,1.1194,1.1194,1.1194,1.1194,1.1194,1.1243,1.1683,1.1834,1.134,1.1292,1.1243,1.1194,1.1194,1.1194,1.1194,1.1194,1.1438,1.198,1.2029,1.2078,1.2078,1.2078,1.2322,1.2861,1.3298,1.3775,1.623,0.0,1.6689,1.6689,1.6689,1.6689,0.0,0.0,0.0,0.0,0.0,0.0,0.0,1.6545,1.6906,1.6794,0.0,0.0,0.0,0.0,0.0,0.0,0.0,0.0,0.0,0.0,0.0,0.0,0.0,0.0,0.0,0.0,1.2387,1.2387,1.2387,1.2387,1.2387,1.2387,1.2387,1.2387,1.2387,1.2387,1.2387,1.2387,0.0,0.0,0.0,0.0,1.2441,1.2876,1.3098,1.3147,1.3576,1.3846,1.4008,1.4008,1.4008,1.4008,1.4169,1.4385,1.4713,1.5298,1.5512,1.5565,1.5713,1.4648,1.3369,1.3684,1.3527,1.3318,1.3466,1.3382,1.3247,1.2867,1.2587,1.2322,1.1878,1.1834,1.1688,1.1292,1.1194,1.1194,1.1194,1.1194,1.1194,1.1194,1.1194,1.1194,1.1194,1.1194,1.134,1.1785,1.1932,1.2127,1.2419,1.2029,1.1634,1.1243,1.1194,1.1194,1.1194,1.1194,1.1438,1.198,1.2419,1.2619,1.2619,1.2619,1.2861,1.3346,1.3443,1.3775,1.5872,1.6341,1.6689,1.6689,1.6689,1.6689,1.6689,0.0,0.0,0.0,0.0,0.0,0.0,0.0,0.0,0.0,0.0,0.0,0.0,0.0,0.0,0.0,0.0,0.0,0.0,0.0,0.0,0.0,0.0,0.0,0.0,0.0,1.2387,1.2387,1.2387,1.2387,1.2387,1.2387,1.2387,1.2387,1.2387,1.2387,1.2387,1.2387,0.0,0.0,0.0,0.0,1.2822,1.3152,1.3478,1.3743,1.4062,1.4331,1.4552,1.4552,1.4552,1.4606,1.4869,1.519,1.5517,1.6258,1.6518,1.6571,1.7094,1.6293,1.5167,1.4846,1.4433,1.4094,1.4072,1.4066,1.3922,1.3436,1.3148,1.2894,1.244,1.2175,1.1927,1.1634,1.1389,1.1194,1.1194,1.1194,1.1194,1.1194,1.1194,1.1194,1.1194,1.158,1.2063,1.2457,1.3125,1.365,1.3794,1.365,1.298,1.1634,1.1345,1.1194,1.1194,1.1438,1.1932,1.2662,1.2958,1.3104,1.3104,1.3104,1.3249,1.3491,1.3732,1.401,1.5831,1.6388,1.6853,1.673,1.6689,1.6689,1.6689,0.0,0.0,0.0,0.0,0.0,0.0,0.0,0.0,0.0,0.0,0.0,0.0,0.0,0.0,0.0,0.0,0.0,0.0,0.0,0.0,0.0,0.0,0.0,0.0,0.0,0.0,1.2654,1.2654,1.2599,1.2387,1.2387,1.2387,1.2387,1.2387,1.2387,1.2387,1.2387,1.2387,0.0,0.0,0.0,1.3315,1.3423,1.3797,1.4331,1.4439,1.4761,1.5143,1.5143,1.5143,1.5196,1.5731,1.5891,1.6045,1.6935,1.7199,1.7358,1.8311,1.814,1.7437,1.6374,1.5755,1.5298,1.4917,1.4941,1.4844,1.4094,1.369,1.3347,1.2959,1.2565,1.2224,1.2127,1.1688,1.134,1.134,1.134,1.134,1.134,1.1389,1.1487,1.1536,1.2349,1.3017,1.3403,1.4644,1.5406,1.5257,1.5358,1.4651,1.2694,1.1873,1.1433,1.1482,1.1975,1.271,1.3678,1.363,1.363,1.363,1.363,1.3678,1.3775,1.4154,1.4442,1.6809,1.7206,1.7602,1.6894,1.6689,1.6689,1.6689,0.0,0.0,0.0,0.0,0.0,0.0,0.0,0.0,0.0,0.0,0.0,0.0,0.0,0.0,0.0,0.0,0.0,0.0,0.0,0.0,0.0,0.0,0.0,0.0,0.0,0.0,1.3954,1.39,1.3408,1.2387,1.2387,1.2387,1.2387,1.2387,1.2387,1.2387,1.2387,1.2387,0.0,0.0,1.2767,1.3315,1.3851,1.4385,1.4928,1.5458,1.5672,1.5785,1.5785,1.5785,1.5785,1.5891,1.5891,1.6045,1.6935,1.7199,1.7463,1.9042,1.8945,1.8363,1.8878,1.8133,1.7233,1.7621,1.7147,1.6394,1.6017,1.5195,1.4292,1.3548,1.3346,1.3147,1.2764,1.2224,1.1883,1.1883,1.1883,1.1883,1.1883,1.2273,1.2705,1.3082,1.3499,1.407,1.4924,1.546,1.5893,1.6339,1.5994,1.5602,1.5222,1.3499,1.2587,1.278,1.3093,1.3673,1.4519,1.4292,1.4154,1.4154,1.4154,1.449,1.5105,1.4532,1.501,1.7301,1.7432,1.7542,1.6879,1.6689,1.6745,1.6984,0.0,0.0,0.0,0.0,0.0,0.0,0.0,0.0,0.0,0.0,0.0,0.0,0.0,0.0,0.0,0.0,0.0,0.0,0.0,0.0,0.0,0.0,0.0,0.0,0.0,0.0,0.0,1.5541,1.5269,1.4733,1.4728,1.3932,1.2387,1.2387,1.2387,1.2387,1.2767,1.2876,1.2876,0.0,1.3684,1.4283,1.5024,1.566,1.6252,1.6942,1.7259,1.7206,1.6783,1.6624,1.6518,1.6045,1.5891,1.6099,1.7417,1.7838,1.8146,1.9828,2.0094,1.9828,2.0248,1.919,1.8035,1.8318,1.8057,1.7571,1.7116,1.66,1.6035,1.5351,1.4962,1.4573,1.395,1.3366,1.2786,1.2122,1.2224,1.2322,1.2029,1.2791,1.3463,1.3692,1.4692,1.5596,1.617,1.6842,1.7419,1.7753,1.7473,1.6702,1.5453,1.383,1.3403,1.4507,1.4034,1.4328,1.5717,1.5629,1.5534,1.5534,1.5534,1.5724,1.6062,1.5676,1.592,1.8087,1.7999,1.7804,1.7245,1.6981,1.6937,1.7215,0.0,0.0,0.0,0.0,0.0,0.0,0.0,0.0,0.0,0.0,0.0,0.0,0.0,0.0,0.0,0.0,0.0,0.0,0.0,0.0,0.0,0.0,0.0,0.0,0.0,0.0,0.0,1.6821,1.671,1.6449,1.6449,1.5405,1.3398,1.3398,1.3398,1.3398,1.3678,1.3894,1.411,1.4374,1.4911,1.5666,1.6293,1.6929,1.7516,1.8153,1.8422,1.8318,1.7733,1.7463,1.7411,1.673,1.6471,1.6736,1.8213,1.8684,1.8997,2.0454,2.0925,2.0925,2.0925,1.9983,1.8997,1.8997,1.884,1.8594,1.8046,1.7704,1.7358,1.6853,1.6333,1.5805,1.5235,1.4698,1.4022,1.3076,1.3232,1.3377,1.2937,1.3836,1.4549,1.4692,1.5974,1.6976,1.7225,1.804,1.8612,1.8781,1.8651,1.7792,1.6015,1.4644,1.4555,1.5988,1.508,1.527,1.6817,1.6676,1.6588,1.6588,1.6588,1.6676,1.6857,1.6676,1.677,1.9813,1.9447,1.9033,1.8508,1.7803,0.0,1.727,1.756,0.0,0.0,0.0,0.0,0.0,0.0,0.0,0.0,0.0,0.0,0.0,0.0,0.0,0.0,0.0,0.0,0.0,0.0,0.0,0.0,0.0,0.0,0.0,0.0,0.0,0.0,0.0,1.6734,1.5708,1.5702,1.592,1.638,1.638,1.638,1.638,1.5583,1.5689,1.6433,1.563,1.6056,1.7331,1.7384,1.7765,1.8318,1.837,1.8422,1.837,1.8318,1.8318,1.8318,1.8265,1.8213,1.837,1.9309,1.9628,1.9783,2.066,2.0925,2.0925,2.0925,2.0814,2.0712,2.0712,2.0197,1.9538,1.9239,1.8318,1.7407,1.7113,1.677,1.6534,1.6487,1.6042,1.565,1.5561,1.5561,1.5561,1.5507,1.6048,1.6574,1.699,1.7412,1.7839,1.8334,1.8604,1.8781,1.8781,1.8781,1.8689,1.8542,1.7138,1.648,1.6796,1.6574,1.681,1.7598,1.6951,1.6588,1.6588,1.6588,1.6951,1.7598,1.6911,1.7333,1.963,1.9028,1.8365,1.7871,1.7677,0.0,0.0,1.8009,1.82,0.0,0.0,0.0,0.0,0.0,0.0,0.0,0.0,0.0,0.0,0.0,0.0,0.0,0.0,0.0,0.0,0.0,0.0,0.0,0.0,0.0,0.0,0.0,0.0,0.0,0.0,1.8712,1.8304,1.8255,1.8429,1.8678,1.713,1.6385,1.6392,1.6615,1.6903,1.7226,1.7233,1.7562,1.8087,1.8662,1.8982,1.9257,1.9776,1.9931,1.9879,1.9413,1.9205,1.9153,1.8579,1.8422,1.8527,1.942,1.968,1.9835,2.066,2.0925,2.0925,2.0925,2.0925,2.0925,2.0925,2.066,2.0369,2.0078,1.9479,1.8889,1.8603,1.8221,1.7846,1.7372,1.7124,1.6741,1.594,1.6089,1.619,1.5846,1.6655,1.7365,1.7512,1.8025,1.845,1.8651,1.8735,1.8781,1.8781,1.8781,1.8781,1.8781,1.7512,1.7178,1.8071,1.7271,1.7271,1.835,1.8125,1.7986,1.7986,1.7986,1.8125,1.8396,1.8079,1.8265,1.939,1.8718,1.8108,0.0,0.0,0.0,1.839,1.847,1.8533,0.0,0.0,0.0,0.0,0.0,0.0,0.0,0.0,0.0,0.0,0.0,0.0,0.0,0.0,0.0,0.0,0.0,0.0,0.0,0.0,0.0,0.0,0.0,0.0,0.0,0.0,0.0,1.9534,1.9534,1.9534,1.9542,1.7938,1.7278,1.7374,1.7784,1.8188,1.8455,1.8686,1.8945,1.9257,1.9835,2.0094,2.0145,2.066,2.0925,2.0822,2.03,2.0094,1.9983,1.9413,1.9205,1.9309,1.9887,2.0094,2.0197,2.0712,2.0925,2.0925,2.0925,2.0925,2.0925,2.0925,2.0925,2.0861,2.0615,2.0289,1.9988,1.9646,1.9248,1.8823,1.8187,1.8064,1.7785,1.6889,1.7037,1.7185,1.6796,1.7498,1.8064,1.8064,1.8496,1.8781,1.8781,1.8781,1.8781,1.8781,1.8781,1.8781,1.8781,1.7971,1.7878,1.8781,1.7978,1.7924,1.8781,1.8781,1.8781,1.8781,1.8781,1.8781,1.8781,1.8781,1.8781,1.939,1.8913,1.8581,0.0,0.0,0.0,0.0,1.8781,0.0,0.0,0.0,0.0,0.0,0.0,0.0,0.0,0.0,0.0,0.0,0.0,0.0,0.0,0.0,0.0,0.0,0.0,0.0,0.0,0.0,0.0,0.0,0.0,0.0,0.0,0.0,0.0,1.8781,1.8781,1.8781,1.8781,1.9193,1.959,1.9876,1.9365,1.9567,2.0358,1.989,2.0145,2.0917,2.0925,2.0925,2.0925,2.0925,2.0925,2.0925,2.0925,2.0925,2.0925,2.0925,2.0925,2.0925,2.0925,2.0925,2.0925,2.0925,2.0925,2.0925,2.0925,2.0925,2.0925,2.0925,2.0925,2.0925,2.0925,2.0655,2.0297,1.9996,1.9654,1.9264,1.8861,1.8781,1.8781,1.8781,1.8781,1.8781,1.8781,1.8781,1.8781,1.8781,1.8781,1.8781,1.8781,1.8781,1.8781,1.8781,1.8781,1.8781,1.8781,1.8781,1.8781,1.8781,1.8781,1.8781,1.8781,1.8781,1.8781,1.8781,1.8781,1.8781,1.8781,1.8781,1.8781,1.9346,1.8484,0.0,0.0,0.0,0.0,0.0,0.0,0.0,0.0,0.0,0.0,0.0,0.0,0.0,0.0,0.0,0.0,0.0,0.0,0.0,0.0,0.0,0.0,0.0,0.0,0.0,0.0,0.0,0.0,0.0,0.0,0.0,0.0,0.0,0.0,1.8781,1.8781,1.8781,1.8781,1.8939,1.9177,1.9534,1.9617,1.9823,2.0043,2.0142,2.035,2.0567,2.0821,2.0925,2.0925,2.0925,2.0925,2.0925,2.0925,2.0925,2.0925,2.0925,2.0925,2.0925,2.0925,2.0925,2.0925,2.0925,2.0925,2.0925,2.0925,2.0925,2.0925,2.0925,2.0925,2.0925,2.0925,2.0655,2.0361,2.0257,1.9781,1.9344,1.9233,1.9002,1.8781,1.8781,1.8781,1.8781,1.8781,1.8781,1.8781,1.8781,1.8781,1.8781,1.8781,1.8781,1.8781,1.8781,1.8781,1.8781,1.8781,1.8781,1.8781,1.8781,1.8781,1.8781,1.8781,1.8781,1.8781,1.8781,1.8781,1.8781,1.8781,1.8781,1.8781,1.8663,0.0,0.0,0.0,0.0,0.0,0.0,0.0,0.0,0.0,0.0,0.0,0.0,0.0,0.0,0.0,0.0,0.0,0.0,0.0,0.0,0.0,0.0,0.0,0.0,0.0,0.0,0.0,0.0,0.0,0.0,0.0,0.0,0.0,0.0,0.0,1.8781,1.8781,1.8781,1.8781,1.8781,1.8939,1.9169,1.9558,1.9718,1.9742,2.0178,2.0392,2.0416,2.0774,2.0925,2.0925,2.0925,2.0925,2.0925,2.0925,2.0925,2.0925,2.0925,2.0925,2.0925,2.0925,2.0925,2.0925,2.0925,2.0925,2.0925,2.0925,2.0925,2.0925,2.0925,2.0925,2.0925,2.0925,2.0758,2.0567,2.0424,1.9955,1.9574,1.9447,1.9082,1.8781,1.8781,1.8781,1.8781,1.8781,1.8781,1.8781,1.8781,1.8781,1.8781,1.8781,1.8781,1.8781,1.8781,1.8781,1.8781,1.8781,1.8781,1.8781,1.8781,1.8781,1.8781,1.8781,1.8781,1.8781,1.8781,1.8781,1.8781,1.8781,1.8781,1.8781,1.7871,0.0,0.0,0.0,0.0,0.0,0.0,0.0,0.0,0.0,0.0,0.0,0.0,0.0,0.0,0.0,0.0,0.0,0.0,0.0,0.0,0.0,0.0,0.0,0.0,0.0,0.0,0.0,0.0,0.0,0.0,0.0,0.0,0.0,0.0,0.0,1.8781,1.8781,1.8781,0.0,1.8781,1.8781,1.8789,1.9169,1.9391,1.9407,2.0027,2.0321,2.0369,2.0726,2.0869,2.0877,2.0909,2.0925,2.0925,2.0925,2.0925,2.0925,2.0925,2.0925,2.0925,2.0925,2.0925,2.0925,2.0925,2.0925,2.0925,2.0925,2.0925,2.0925,2.0925,2.0925,2.0925,2.0925,2.0925,2.0837,2.0512,2.0162,1.9861,1.9527,1.9129,1.8821,1.8835,1.8781,1.8781,1.8781,1.8781,1.8781,1.8781,1.8781,1.8781,1.8781,1.8781,1.8781,1.8781,1.8781,1.8781,1.8781,1.8781,1.8781,1.8781,1.8781,1.8781,1.8781,1.8781,1.8781,1.8781,1.8781,1.8781,1.8781,1.8781,1.8781,0.0,1.8549,0.0,0.0,0.0,0.0,0.0,0.0,0.0,0.0,0.0,0.0,0.0,0.0,0.0,0.0,0.0,0.0,0.0,0.0,0.0,0.0,0.0,0.0,0.0,0.0,0.0,0.0,0.0,0.0,0.0,0.0,0.0,0.0,0.0,1.8781,1.8781,1.8781,1.8781,0.0,1.8781,1.8781,1.8781,1.8907,1.9098,1.9431,1.9526,1.9741,2.0052,2.0361,2.0512,2.0535,2.0813,2.0925,2.0925,2.0925,2.0925,2.0925,2.0925,2.0925,2.0925,2.0925,2.0925,2.0925,2.0925,2.0925,2.0925,2.0925,2.0925,2.0925,2.0925,2.0925,2.0925,2.0925,2.0925,2.0901,2.0821,2.0527,2.0178,1.9877,1.9487,1.9161,1.8829,1.8781,1.8781,1.8781,1.8781,1.8781,1.8781,1.8781,1.8781,1.8781,1.8781,1.8781,1.8781,1.8781,1.8781,1.8781,1.8781,1.8781,1.8781,1.8781,1.8781,1.8781,1.8781,1.8781,1.8781,1.8781,1.8781,1.8781,1.8781,1.8781,0.0,0.0,0.0,0.0,0.0,0.0,0.0,0.0,0.0,0.0,0.0,0.0,0.0,0.0,0.0,0.0,0.0,0.0,0.0,0.0,0.0,0.0,0.0,0.0,0.0,0.0,0.0,0.0,0.0,0.0,0.0,0.0,0.0,0.0,1.8781,1.8781,1.8781,1.8781,1.8781,1.8781,1.8781,1.8781,1.8781,1.8781,1.8931,1.9121,1.9296,1.9519,1.9702,2.0003,2.0241,2.0408,2.0599,2.0774,2.0925,2.0925,2.0925,2.0925,2.0925,2.0925,2.0925,2.0925,2.0925,2.0925,2.0925,2.0925,2.0925,2.0925,2.0925,2.0925,2.0925,2.0925,2.0925,2.0925,2.0925,2.0925,2.0925,2.0647,2.0337,2.0154,1.9765,1.9312,1.9121,1.8947,1.8781,1.8781,1.8781,1.8781,1.8781,1.8781,1.8781,1.8781,1.8781,1.8781,1.8781,1.8781,1.8781,1.8781,1.8781,1.8781,1.8781,1.8781,1.8781,1.8781,1.8781,1.8781,1.8781,1.8781,1.8781,1.8781,1.8781,1.8781,0.0,0.0,0.0,0.0,0.0,0.0,0.0,0.0,0.0,0.0,0.0,0.0,0.0,0.0,0.0,0.0,0.0,0.0,0.0,0.0,0.0,0.0,0.0,0.0,0.0,0.0,0.0,0.0,0.0,0.0,0.0,0.0,1.8781,1.8781,1.8781,1.8781,1.8781,1.8781,1.8781,1.8781,1.8781,1.8781,1.8781,1.8781,1.8781,1.8797,1.9145,1.928,1.9304,1.9686,2.0004,2.0226,2.0345,2.0575,2.0837,2.0901,2.0925,2.0925,2.0925,2.0925,2.0925,2.0925,2.0925,2.0925,2.0925,2.0925,2.0925,2.0925,2.0925,2.0925,2.0925,2.0925,2.0925,2.0925,2.0925,2.0925,2.0925,2.0694,2.0464,2.0408,1.9836,1.9399,1.9288,1.9026,1.8781,1.8781,1.8781,1.8781,1.8781,1.8781,1.8781,1.8781,1.8781,1.8781,1.8781,1.8781,1.8781,1.8781,1.8781,1.8781,1.8781,1.8781,1.8781,1.8781,1.8781,1.8781,1.8781,1.8781,1.8781,1.8781,1.8781,1.8781,0.0,0.0,0.0,0.0,0.0,0.0,0.0,0.0,0.0,0.0,0.0,0.0,0.0,0.0,0.0,0.0,0.0,0.0,0.0,0.0,0.0,0.0,0.0,0.0,0.0,0.0,0.0,0.0,0.0,0.0,0.0,1.8781,1.8781,1.8781,1.8781,1.8781,1.8781,1.8781,1.8781,1.8781,1.8781,1.8781,1.8781,1.8781,1.8781,1.8781,1.8875,1.8899,1.8931,1.9288,1.9511,1.9566,2.0162,2.0424,2.0496,2.0805,2.0925,2.0925,2.0925,2.0925,2.0925,2.0925,2.0925,2.0925,2.0925,2.0925,2.0925,2.0925,2.0925,2.0925,2.0925,2.0925,2.0925,2.0925,2.0925,2.0925,2.0925,2.0885,2.0758,2.0456,1.9836,1.9272,1.8955,1.8859,1.8781,1.8781,1.8781,1.8781,1.8781,1.8781,1.8781,1.8781,1.8781,1.8781,1.8781,1.8781,1.8781,1.8781,1.8781,1.8781,1.8781,1.8781,1.8781,1.8781,1.8781,1.8781,1.8781,1.8781,1.8781,1.8781,1.8781,1.8781,0.0,0.0,0.0,0.0,0.0,0.0,0.0,0.0,0.0,0.0,0.0,0.0,0.0,0.0,0.0,0.0,0.0,0.0,0.0,0.0,0.0,0.0,0.0,0.0,0.0,0.0,0.0,0.0,0.0,0.0,1.8781,1.8781,1.8781,1.8781,1.8781,1.8781,1.8781,1.8781,1.8781,1.8781,1.8781,1.8781,1.8781,1.8781,1.8781,1.8781,1.8781,1.8781,1.8797,1.9002,1.9185,1.9471,1.9908,2.0218,2.044,2.079,2.0925,2.0925,2.0925,2.0925,2.0925,2.0925,2.0925,2.0925,2.0925,2.0925,2.0925,2.0925,2.0925,2.0925,2.0925,2.0925,2.0925,2.0925,2.0925,2.0925,2.0925,2.0925,2.0813,2.0464,1.9987,1.9534,1.9193,1.8962,1.8781,1.8781,1.8781,1.8781,1.8781,1.8781,1.8781,1.8781,1.8781,1.8781,1.8781,1.8781,1.8781,1.8781,1.8781,1.8781,1.8781,1.8781,1.8781,1.8781,1.8781,1.8781,1.8781,1.8781,1.8781,1.8781,1.8781,1.8781,0.0,0.0,0.0,0.0,0.0,0.0,0.0,0.0,0.0,0.0,0.0,0.0,0.0,0.0,0.0,0.0,0.0,0.0,0.0,0.0,0.0,0.0,0.0,0.0,0.0,0.0,0.0,0.0,0.0,0.0,1.8781,1.8781,1.8781,1.8781,1.8781,1.8781,1.8781,1.8781,1.8781,1.8781,1.8781,1.8781,1.8781,1.8781,1.8781,1.8781,1.8781,1.8781,1.8781,1.8781,1.8986,1.9264,1.9654,2.0004,2.0297,2.0655,2.0845,2.0925,2.0925,2.0925,2.0925,2.0925,2.0925,2.0925,2.0925,2.0925,2.0925,2.0925,2.0925,2.0925,2.0925,2.0925,2.0925,2.0925,2.0925,2.0925,2.0925,2.0925,2.0813,2.0464,2.0106,1.9805,1.9479,1.9066,1.8781,1.8781,1.8781,1.8781,1.8781,1.8781,1.8781,1.8781,1.8781,1.8781,1.8781,1.8781,1.8781,1.8781,1.8781,1.8781,1.8781,1.8781,1.8781,1.8781,1.8781,1.8781,1.8781,1.8781,1.8781,1.8781,1.8781,1.8781,0.0,0.0,0.0,0.0,0.0,0.0,0.0,0.0,0.0,0.0,0.0,0.0,0.0,0.0,0.0,0.0,0.0,0.0,0.0,0.0,0.0,0.0,0.0,0.0,0.0,0.0,0.0,0.0,0.0,0.0,1.8781,1.8781,1.8781,1.8781,1.8781,1.8781,1.8781,1.8781,1.8781,1.8781,1.8781,1.8781,1.8781,1.8781,1.8781,1.8781,1.8781,1.8781,1.8781,1.8781,1.8789,1.8891,1.9256,1.9646,1.998,2.0289,2.0639,2.0925,2.0925,2.0925,2.0925,2.0925,2.0925,2.0925,2.0925,2.0925,2.0925,2.0925,2.0925,2.0925,2.0925,2.0925,2.0925,2.0925,2.0925,2.0925,2.0925,2.0925,2.0813,2.0464,2.0106,1.9805,1.9479,1.9066,1.8781,1.8781,1.8781,1.8781,1.8781,1.8781,1.8781,1.8781,1.8781,1.8781,1.8781,1.8781,1.8781,1.8781,1.8781,1.8781,1.8781,1.8781,1.8781,1.8781,1.8781,1.8781,1.8781,1.8781,1.8781,1.8781,1.8781,1.8781,0.0,0.0,0.0,0.0,0.0,0.0,0.0,0.0,0.0,0.0,0.0,0.0,0.0,0.0,0.0,0.0,0.0,0.0,0.0,0.0,0.0,0.0,0.0,0.0,0.0,0.0,0.0,0.0,0.0,0.0,1.8781,1.8781,1.8781,1.8781,1.8781,1.8781,1.8781,1.8781,1.8781,1.8781,1.8781,1.8781,1.8781,1.8781,1.8781,1.8781,1.8781,1.8781,1.8781,1.8781,1.8781,1.8821,1.9233,1.9622,1.9957,2.0265,2.0615,2.0925,2.0925,2.0925,2.0925,2.0925,2.0925,2.0925,2.0925,2.0925,2.0925,2.0925,2.0925,2.0925,2.0925,2.0925,2.0925,2.0925,2.0925,2.0925,2.0925,2.0925,2.0885,2.0758,2.0448,2.0091,1.9797,1.9399,1.9098,1.8821,1.8781,1.8781,1.8781,1.8781,1.8781,1.8781,1.8781,1.8781,1.8781,1.8781,1.8781,1.8781,1.8781,1.8781,1.8781,1.8781,1.8781,1.8781,1.8781,1.8781,1.8781,1.8781,1.8781,1.8781,1.8781,1.8781,0.0,0.0,0.0,0.0,0.0,0.0,0.0,0.0,0.0,0.0,0.0,0.0,0.0,0.0,0.0,0.0,0.0,0.0,0.0,0.0,0.0,0.0,0.0,0.0,0.0,0.0,0.0,0.0,0.0,0.0,1.8781,1.8781,1.8781,1.8781,1.8781,1.8781,1.8781,1.8781,1.8781,1.8781,1.8781,1.8781,1.8781,1.8781,1.8781,1.8781,1.8781,1.8781,1.8781,1.8781,1.8781,1.8851,1.9098,1.9511,1.9941,2.013,2.0519,2.0925,2.0925,2.0925,2.0925,2.0925,2.0925,2.0925,2.0925,2.0925,2.0925,2.0925,2.0925,2.0925,2.0925,2.0925,2.0925,2.0925,2.0925,2.0925,2.0925,2.0925,2.0925,2.0925,2.0639,2.0321,2.0132,1.9718,1.9288,1.9042,1.8907,1.8781,1.8781,1.8781,1.8781,1.8781,1.8781,1.8781,1.8781,1.8781,1.8781,1.8781,1.8781,1.8781,1.8781,1.8781,1.8781,1.8781,1.8781,1.8781,1.8781,1.8781,1.8781,1.8781,1.8781,1.8781,0.0,0.0,0.0,0.0,0.0,0.0,0.0,0.0,0.0,0.0,0.0,0.0,0.0,0.0,0.0,0.0,0.0,0.0,0.0,0.0,0.0,0.0,0.0,0.0,0.0,0.0,0.0,0.0,0.0,1.8827,1.8827,1.8827,1.8781,1.8781,1.8781,1.8781,1.8781,1.8781,1.8781,1.8781,1.8781,1.8781,1.8781,1.8781,1.8781,1.8781,1.8781,1.8781,1.8781,1.8781,1.8781,1.8781,1.8797,1.9264,1.9917,1.9925,2.0321,2.0925,2.0925,2.0925,2.0925,2.0925,2.0925,2.0925,2.0925,2.0925,2.0925,2.0925,2.0925,2.0925,2.0925,2.0925,2.0925,2.0925,2.0925,2.0925,2.0925,2.0925,2.0925,2.0925,2.0647,2.0408,2.0392,1.9836,1.9431,1.9423,1.9066,1.8781,1.8781,1.8781,1.8781,1.8781,1.8781,1.8781,1.8781,1.8781,1.8781,1.8781,1.8781,1.8781,1.8781,1.8781,1.8781,1.8781,1.8781,1.8781,1.8781,1.8781,1.8781,1.8781,1.8789,1.8797,2.4497,0.0,0.0,0.0,0.0,0.0,0.0,0.0,0.0,0.0,0.0,0.0,0.0,0.0,0.0,0.0,0.0,0.0,0.0,0.0,0.0,0.0,0.0,0.0,0.0,0.0,0.0,0.0,2.0439,1.9894,1.9894,1.9188,1.8781,1.8781,1.8781,1.8781,1.8781,1.8781,1.8781,1.8781,1.8781,1.8781,1.8781,1.8781,1.8781,1.8781,1.8781,1.8781,1.8781,1.8781,1.8781,1.8805,1.9121,1.9535,1.9941,2.0154,2.0535,2.0925,2.0925,2.0925,2.0925,2.0925,2.0925,2.0925,2.0925,2.0925,2.0925,2.0925,2.0925,2.0925,2.0925,2.0925,2.0925,2.0925,2.0925,2.0925,2.0925,2.0925,2.0925,2.0925,2.0845,2.0694,2.044,2.0068,1.9694,1.9455,1.9066,1.8781,1.8781,1.8781,1.8781,1.8781,1.8781,1.8781,1.8781,1.8781,1.8781,1.8781,1.8781,1.8781,1.8781,1.8781,1.8781,1.8781,1.8781,1.8781,1.8781,1.8781,1.8781,1.8835,1.9098,1.9225,0.0,0.0,0.0,0.0,0.0,0.0,2.4497,2.4497,0.0,0.0,0.0,0.0,0.0,0.0,0.0,0.0,0.0,0.0,0.0,0.0,0.0,0.0,0.0,0.0,0.0,0.0,0.0,0.0,2.1418,2.0701,2.0294,1.9363,1.8781,1.8781,1.8781,1.8781,1.8781,1.8781,1.8781,1.8781,1.8781,1.8781,1.8781,1.8781,1.8781,1.8781,1.8781,1.8781,1.8781,1.8781,1.8781,1.8821,1.9233,1.9622,1.9957,2.0265,2.0615,2.0925,2.0925,2.0925,2.0925,2.0925,2.0925,2.0925,2.0925,2.0925,2.0925,2.0925,2.0925,2.0925,2.0925,2.0925,2.0925,2.0925,2.0925,2.0925,2.0925,2.0925,2.0925,2.0925,2.0925,2.0853,2.0647,2.0321,1.9971,1.9678,1.928,1.9002,1.8797,1.8781,1.8781,1.8781,1.8781,1.8781,1.8781,1.8781,1.8781,1.8781,1.8781,1.8781,1.8781,1.8781,1.8781,1.8781,1.8781,1.8861,1.9058,1.8899,1.8907,1.9058,1.9272,1.9495,0.0,0.0,0.0,0.0,0.0,0.0,2.454,2.454,2.454,0.0,0.0,0.0,0.0,0.0,0.0,0.0,0.0,0.0,0.0,0.0,0.0,0.0,0.0,0.0,0.0,0.0,2.328,2.328,2.2315,2.1284,2.0339,1.9363,1.8781,1.8781,1.8781,1.8781,1.8781,1.8781,1.8781,1.8781,1.8781,1.8781,1.8781,1.8781,1.8781,1.8781,1.8781,1.8781,1.8781,1.8781,1.8851,1.8923,1.9288,1.9678,2.0012,2.0321,2.0655,2.0925,2.0925,2.0925,2.0925,2.0925,2.0925,2.0925,2.0925,2.0925,2.0925,2.0925,2.0925,2.0925,2.0925,2.0925,2.0925,2.0925,2.0925,2.0925,2.0925,2.0925,2.0925,2.0925,2.0925,2.0925,2.0925,2.0623,2.0289,2.002,1.9654,1.9256,1.8931,1.8805,1.8781,1.8781,1.8781,1.8781,1.8781,1.8781,1.8781,1.8781,1.8781,1.8781,1.8781,1.8781,1.8781,1.8781,1.8821,1.9066,1.9471,1.9066,1.9074,1.9479,1.9511,1.9694,0.0,0.0,0.0,0.0,0.0,0.0,2.4861,2.4818,2.4786,0.0,0.0,0.0,0.0,0.0,0.0,0.0,0.0,0.0,0.0,0.0,0.0,0.0,0.0,0.0,0.0,0.0,2.4229,2.4229,2.2668,2.1284,2.0339,1.9363,1.8781,1.8781,1.8781,1.8781,1.8781,1.8781,1.8781,1.8781,1.8781,1.8781,1.8781,1.8781,1.8781,1.8781,1.8781,1.8781,1.8781,1.8781,1.9002,1.9304,1.9686,2.0028,2.0329,2.0686,2.0861,2.0925,2.0925,2.0925,2.0925,2.0925,2.0925,2.0925,2.0925,2.0925,2.0925,2.0925,2.0925,2.0925,2.0925,2.0925,2.0925,2.0925,2.0925,2.0925,2.0925,2.0925,2.0925,2.0925,2.0925,2.0925,2.0925,2.0623,2.0369,2.0297,1.9765,1.9391,1.928,1.901,1.8781,1.8781,1.8781,1.8781,1.8781,1.8781,1.8781,1.8781,1.8781,1.8781,1.8781,1.8781,1.8781,1.8781,1.9121,1.9431,1.9813,1.9431,1.9439,1.9821,2.0059,2.0226,0.0,0.0,0.0,2.4903,0.0,0.0,0.0,2.5031,0.0,0.0,0.0,0.0,0.0,0.0,0.0,0.0,0.0,0.0,0.0,0.0,0.0,0.0,0.0,0.0,0.0,0.0,2.4497,2.4497,2.2765,2.1472,2.1015,1.9583,1.8781,1.8781,1.8781,1.8781,1.8781,1.8781,1.8781,1.8781,1.8781,1.8781,1.8781,1.8781,1.8781,1.8781,1.8781,1.8781,1.8843,1.9026,1.9304,1.9686,1.9853,2.0083,2.044,2.079,2.0925,2.0925,2.0925,2.0925,2.0925,2.0925,2.0925,2.0925,2.0925,2.0925,2.0925,2.0925,2.0925,2.0925,2.0925,2.0925,2.0925,2.0925,2.0925,2.0925,2.0925,2.0925,2.0925,2.0925,2.0925,2.0925,2.0925,2.0774,2.0599,2.0416,2.0098,1.982,1.9686,1.932,1.9098,1.9098,1.8939,1.8781,1.8781,1.8781,1.8781,1.8781,1.8781,1.8781,1.8781,1.9002,1.9177,1.9344,1.9574,1.9789,2.013,1.9963,1.9971,2.013,2.0313,2.0488,0.0,0.0,0.0,0.0,0.0,2.5285,0.0,0.0,0.0,0.0,0.0,0.0,0.0,0.0,0.0,0.0,0.0,0.0,0.0,0.0,0.0,0.0,0.0,0.0,0.0,0.0,2.4497,2.4497,2.294,2.1961,2.1961,2.0121,1.9096,1.9096,1.892,1.8781,1.8781,1.8781,1.8781,1.8781,1.9012,1.9004,1.8827,1.9188,1.9279,1.9096,1.9271,1.9279,1.9128,1.9491,1.975,1.9925,1.9988,2.0178,2.0527,2.0813,2.0925,2.0925,2.0925,2.0925,2.0925,2.0925,2.0925,2.0925,2.0925,2.0925,2.0925,2.0925,2.0925,2.0925,2.0925,2.0925,2.0925,2.0925,2.0925,2.0925,2.0925,2.0925,2.0925,2.0925,2.0925,2.0925,2.0925,2.0925,2.0821,2.0535,2.044,2.0289,2.0052,1.9726,1.9519,1.9519,1.9201,1.9026,1.9026,1.9026,1.9026,1.9026,1.9026,1.9026,1.9026,1.9312,1.967,2.0012,2.0012,2.0138,2.0496,2.0496,2.0496,2.0496,2.0496,2.0647,0.0,0.0,0.0,0.0,2.5559,0.0,0.0,0.0,0.0,0.0,0.0,0.0,0.0,0.0,0.0,0.0,0.0,0.0,0.0,0.0,0.0,0.0,0.0,0.0,0.0,0.0,0.0,2.4497,2.3551,2.2921,2.2921,2.1141,2.0121,2.0121,1.9271,1.8781,1.8781,1.8781,1.8781,1.8827,1.972,1.9675,1.8874,2.0574,2.0934,2.0167,2.1024,2.0889,2.0147,2.0483,2.0345,1.9941,2.021,2.0551,2.0861,2.0909,2.0925,2.0925,2.0925,2.0925,2.0925,2.0925,2.0925,2.0925,2.0925,2.0925,2.0925,2.0925,2.0925,2.0925,2.0925,2.0925,2.0925,2.0925,2.0925,2.0925,2.0925,2.0925,2.0925,2.0925,2.0925,2.0925,2.0925,2.0925,2.0909,2.0869,2.0599,2.0377,2.0337,2.0027,1.9861,1.9861,1.9821,1.9797,1.9797,1.9797,1.9797,1.9797,1.9797,1.9797,1.9797,1.9837,2.002,2.0329,2.0329,2.0512,2.0861,2.0861,2.0861,2.0861,2.0861,2.0885,0.0,0.0,0.0,0.0,0.0,0.0,0.0,0.0,2.5728,0.0,0.0,0.0,0.0,0.0,0.0,0.0,0.0,0.0,0.0,0.0,0.0,0.0,0.0,0.0,0.0,0.0,0.0,0.0,0.0,2.3096,2.3096,2.1819,2.1105,2.1105,2.0709,2.0484,2.0484,2.0484,2.0484,2.0484,2.0934,2.0889,2.0484,2.1338,2.1472,2.115,2.1516,2.1644,2.1525,2.1864,2.202,2.2021,2.1736,2.134,2.0925,2.0925,2.0925,2.0925,2.0925,2.0925,2.0925,2.0925,2.0925,2.0925,2.0925,2.0925,2.0925,2.0925,2.0925,2.0925,2.0925,2.0925,2.0925,2.0925,2.0925,2.0925,2.0925,2.0925,2.0925,2.0925,2.0925,2.0925,2.0925,2.0925,2.0925,2.0925,2.0798,2.0702,2.0702,2.0392,2.017,2.017,2.0036,1.9917,1.9917,1.9917,1.9917,1.9917,1.9917,2.0004,2.0162,2.017,2.0337,2.0694,2.0702,2.0774,2.0925,2.0925,2.0925,2.0925,2.0925,2.0925,2.4861,0.0,0.0,0.0,0.0,0.0,0.0,0.0,0.0,0.0,0.0,0.0,0.0,0.0,0.0,0.0,0.0,0.0,0.0,0.0,0.0,0.0,0.0,0.0,0.0,0.0,0.0,0.0,0.0,0.0,2.3497,2.257,2.2085,2.2085,2.1828,2.1695,2.1695,2.1695,2.1695,2.1695,2.1961,2.1961,2.1739,2.2227,2.2315,2.2085,2.2359,2.2596,2.2784,2.314,2.34,2.3568,2.3102,2.2467,2.1717,2.1121,2.0925,2.0925,2.0925,2.0925,2.0976,2.1224,2.1121,2.0925,2.0925,2.0925,2.0925,2.0925,2.0925,2.0925,2.0925,2.0925,2.0925,2.0925,2.0925,2.0925,2.0925,2.0925,2.0925,2.0925,2.0925,2.0925,2.0925,2.0925,2.0925,2.0925,2.0925,2.0925,2.0925,2.0694,2.0535,2.0535,2.0313,2.0154,2.0154,2.0154,2.0154,2.0154,2.0154,2.0265,2.0527,2.0535,2.0655,2.0917,2.0925,2.0925,2.0925,2.0925,2.0925,2.0925,2.0925,2.0925,0.0,0.0,0.0,2.5517,0.0,0.0,0.0,0.0,2.5895,0.0,0.0,0.0,0.0,0.0,0.0,0.0,0.0,0.0,0.0,0.0,0.0,0.0,0.0,0.0,0.0,0.0,0.0,0.0,0.0,0.0,2.4454,2.3551,2.3052,2.3052,2.2173,2.1695,2.1695,2.1695,2.1695,2.1695,2.2614,2.257,2.1739,2.356,2.3907,2.3096,2.4003,2.4159,2.3779,2.4117,2.4021,2.3616,2.3932,2.4038,2.3741,2.1666,2.0925,2.0925,2.0925,2.0925,2.107,2.2123,2.1725,2.0925,2.0925,2.0925,2.0925,2.0925,2.0925,2.0925,2.0925,2.0925,2.0925,2.0925,2.0925,2.0925,2.0925,2.0925,2.0925,2.0925,2.0925,2.0925,2.0925,2.0925,2.0925,2.0925,2.0925,2.0925,2.0925,2.0909,2.0901,2.0901,2.0893,2.0885,2.0885,2.0885,2.0885,2.0885,2.0885,2.0893,2.0901,2.0901,2.0909,2.0925,2.0925,2.0925,2.0925,2.0925,2.0925,2.0925,2.0925,2.0925,0.0,0.0,2.4882,2.5475,0.0,0.0,0.0,0.0,0.0,0.0,0.0,0.0,0.0,0.0,0.0,0.0,0.0,0.0,0.0,0.0,0.0,0.0,0.0,0.0,0.0,0.0,0.0,0.0,0.0,0.0,0.0,2.4186,2.4046,2.4046,2.3734,2.356,2.356,2.356,2.356,2.356,2.3864,2.3864,2.356,2.4186,2.4315,2.4067,2.4676,2.5067,2.5218,2.563,2.5936,2.6006,2.5382,2.5138,2.4992,2.3552,2.3003,2.3003,2.3003,2.256,2.2021,2.2375,2.2274,2.1827,2.1121,2.0925,2.0925,2.0925,2.0925,2.0925,2.0925,2.0925,2.0925,2.0925,2.0925,2.0925,2.0925,2.0925,2.0925,2.0925,2.0925,2.0925,2.0925,2.0925,2.0925,2.0925,2.0925,2.0925,2.0925,2.0925,2.0925,2.0925,2.0925,2.0925,2.0925,2.0925,2.0925,2.0925,2.0925,2.0925,2.0925,2.0925,2.0925,2.0925,2.0925,2.0925,2.0925,2.0925,2.0925,2.0925,2.0925,2.0925,2.47,2.47,0.0,2.5211,2.5285,0.0,2.5686,0.0,0.0,0.0,0.0,0.0,0.0,0.0,0.0,0.0,0.0,0.0,0.0,2.5073,0.0,0.0,0.0,0.0,0.0,0.0,0.0,0.0,0.0,0.0,0.0,0.0,2.4497,2.4497,2.4497,2.4497,2.4497,2.4497,2.4497,2.4497,2.4497,2.4497,2.4497,2.4497,2.4497,2.4528,2.4993,2.5482,2.5962,2.6428,2.6884,2.7214,2.6524,2.6284,2.6081,2.4639,2.4088,2.4137,2.4541,2.3949,2.3111,2.3511,2.3361,2.2961,2.2266,2.1768,2.1479,2.1479,2.1173,2.0925,2.0925,2.0925,2.0925,2.0925,2.0925,2.0925,2.0925,2.0925,2.0925,2.0925,2.0925,2.0925,2.0925,2.0925,2.0925,2.0925,2.0925,2.0925,2.0925,2.0925,2.0925,2.0925,2.0925,2.0925,2.0925,2.0925,2.0925,2.0925,2.0925,2.0925,2.0925,2.0925,2.0861,2.0734,2.0853,2.0861,2.0734,2.0861,2.0925,2.0925,2.0925,2.0925]}]]